<?xml version="1.0" encoding="UTF-8" standalone="no" ?>
<gpx xmlns="http://www.topografix.com/GPX/1/1" xmlns:xsi="http://www.w3.org/2001/XMLSchema-instance" xsi:schemaLocation="http://www.topografix.com/GPX/1/1 http://www.topografix.com/GPX/1/1/gpx.xsd" version="1.1" creator="VisuGPX - https://www.visugpx.com">
  <metadata>
    <name>Chateauneuf de galaure</name>
    <desc><![CDATA[encore un petit circuit]]></desc>
  </metadata>
  <trk>
    <name><![CDATA[Chateauneuf de galaure]]></name>
    <cmt><![CDATA[Seul]]></cmt>
    <trkseg>
      <trkpt lat="45.11573" lon="4.96429">
        <ele>226.26300048828</ele>
        <time>2009-11-08T09:22:56Z</time>
      </trkpt>
      <trkpt lat="45.1156" lon="4.96451">
        <ele>223.82000732422</ele>
        <time>2009-11-08T09:25:55Z</time>
      </trkpt>
      <trkpt lat="45.11561" lon="4.96446">
        <ele>223.82600402832</ele>
        <time>2009-11-08T09:26:08Z</time>
      </trkpt>
      <trkpt lat="45.11561" lon="4.96444">
        <ele>223.70700073242</ele>
        <time>2009-11-08T09:26:09Z</time>
      </trkpt>
      <trkpt lat="45.1157" lon="4.96423">
        <ele>221.41499328613</ele>
        <time>2009-11-08T09:27:47Z</time>
      </trkpt>
      <trkpt lat="45.1157" lon="4.96424">
        <ele>222.63200378418</ele>
        <time>2009-11-08T09:28:08Z</time>
      </trkpt>
      <trkpt lat="45.1157" lon="4.96424">
        <ele>222.65600585938</ele>
        <time>2009-11-08T09:28:09Z</time>
      </trkpt>
      <trkpt lat="45.11581" lon="4.9643">
        <ele>219.95500183106</ele>
        <time>2009-11-08T09:31:24Z</time>
      </trkpt>
      <trkpt lat="45.11581" lon="4.96434">
        <ele>219.16700744629</ele>
        <time>2009-11-08T09:31:26Z</time>
      </trkpt>
      <trkpt lat="45.11581" lon="4.96453">
        <ele>219.21600341797</ele>
        <time>2009-11-08T09:31:32Z</time>
      </trkpt>
      <trkpt lat="45.11557" lon="4.9647">
        <ele>219.30299377441</ele>
        <time>2009-11-08T09:31:33Z</time>
      </trkpt>
      <trkpt lat="45.11581" lon="4.96453">
        <ele>219.74800109863</ele>
        <time>2009-11-08T09:31:39Z</time>
      </trkpt>
      <trkpt lat="45.11581" lon="4.96453">
        <ele>219.90899658203</ele>
        <time>2009-11-08T09:31:43Z</time>
      </trkpt>
      <trkpt lat="45.1158" lon="4.96465">
        <ele>218.97599792481</ele>
        <time>2009-11-08T09:31:55Z</time>
      </trkpt>
      <trkpt lat="45.1158" lon="4.96482">
        <ele>218.82299804688</ele>
        <time>2009-11-08T09:32:00Z</time>
      </trkpt>
      <trkpt lat="45.1158" lon="4.96484">
        <ele>218.7380065918</ele>
        <time>2009-11-08T09:32:02Z</time>
      </trkpt>
      <trkpt lat="45.11579" lon="4.96487">
        <ele>218.10200500488</ele>
        <time>2009-11-08T09:32:13Z</time>
      </trkpt>
      <trkpt lat="45.11579" lon="4.96494">
        <ele>217.69700622559</ele>
        <time>2009-11-08T09:32:19Z</time>
      </trkpt>
      <trkpt lat="45.11579" lon="4.96505">
        <ele>217.38499450684</ele>
        <time>2009-11-08T09:32:23Z</time>
      </trkpt>
      <trkpt lat="45.11595" lon="4.96543">
        <ele>217.47700500488</ele>
        <time>2009-11-08T09:32:28Z</time>
      </trkpt>
      <trkpt lat="45.116" lon="4.96555">
        <ele>217.39100646973</ele>
        <time>2009-11-08T09:32:35Z</time>
      </trkpt>
      <trkpt lat="45.11614" lon="4.96586">
        <ele>217.68400573731</ele>
        <time>2009-11-08T09:32:36Z</time>
      </trkpt>
      <trkpt lat="45.11621" lon="4.96603">
        <ele>217.94599914551</ele>
        <time>2009-11-08T09:32:43Z</time>
      </trkpt>
      <trkpt lat="45.11655" lon="4.96692">
        <ele>218.21899414062</ele>
        <time>2009-11-08T09:32:52Z</time>
      </trkpt>
      <trkpt lat="45.11682" lon="4.96753">
        <ele>219.0299987793</ele>
        <time>2009-11-08T09:33:01Z</time>
      </trkpt>
      <trkpt lat="45.1172" lon="4.96811">
        <ele>219.49499511719</ele>
        <time>2009-11-08T09:33:11Z</time>
      </trkpt>
      <trkpt lat="45.11724" lon="4.96816">
        <ele>219.71899414062</ele>
        <time>2009-11-08T09:33:12Z</time>
      </trkpt>
      <trkpt lat="45.11737" lon="4.96831">
        <ele>219.82099914551</ele>
        <time>2009-11-08T09:33:17Z</time>
      </trkpt>
      <trkpt lat="45.11737" lon="4.96831">
        <ele>219.91299438477</ele>
        <time>2009-11-08T09:33:20Z</time>
      </trkpt>
      <trkpt lat="45.11757" lon="4.96904">
        <ele>219.625</ele>
        <time>2009-11-08T09:33:23Z</time>
      </trkpt>
      <trkpt lat="45.1181" lon="4.96956">
        <ele>220.09399414062</ele>
        <time>2009-11-08T09:33:34Z</time>
      </trkpt>
      <trkpt lat="45.11848" lon="4.97011">
        <ele>220.12600708008</ele>
        <time>2009-11-08T09:33:43Z</time>
      </trkpt>
      <trkpt lat="45.11873" lon="4.97047">
        <ele>220.38200378418</ele>
        <time>2009-11-08T09:33:49Z</time>
      </trkpt>
      <trkpt lat="45.11883" lon="4.97063">
        <ele>220.02200317383</ele>
        <time>2009-11-08T09:33:53Z</time>
      </trkpt>
      <trkpt lat="45.1188" lon="4.97121">
        <ele>219.13299560547</ele>
        <time>2009-11-08T09:33:58Z</time>
      </trkpt>
      <trkpt lat="45.11879" lon="4.97157">
        <ele>218.62600708008</ele>
        <time>2009-11-08T09:34:02Z</time>
      </trkpt>
      <trkpt lat="45.11895" lon="4.97267">
        <ele>217.4940032959</ele>
        <time>2009-11-08T09:34:14Z</time>
      </trkpt>
      <trkpt lat="45.11907" lon="4.97338">
        <ele>217.33599853516</ele>
        <time>2009-11-08T09:34:22Z</time>
      </trkpt>
      <trkpt lat="45.11922" lon="4.97421">
        <ele>217.8690032959</ele>
        <time>2009-11-08T09:34:32Z</time>
      </trkpt>
      <trkpt lat="45.11937" lon="4.97503">
        <ele>218.15600585938</ele>
        <time>2009-11-08T09:34:42Z</time>
      </trkpt>
      <trkpt lat="45.11951" lon="4.97579">
        <ele>219.34899902344</ele>
        <time>2009-11-08T09:34:52Z</time>
      </trkpt>
      <trkpt lat="45.11953" lon="4.97595">
        <ele>219.5</ele>
        <time>2009-11-08T09:34:54Z</time>
      </trkpt>
      <trkpt lat="45.11956" lon="4.9761">
        <ele>219.61599731445</ele>
        <time>2009-11-08T09:34:56Z</time>
      </trkpt>
      <trkpt lat="45.11973" lon="4.97707">
        <ele>219.34899902344</ele>
        <time>2009-11-08T09:35:08Z</time>
      </trkpt>
      <trkpt lat="45.11988" lon="4.9779">
        <ele>219.82600402832</ele>
        <time>2009-11-08T09:35:18Z</time>
      </trkpt>
      <trkpt lat="45.12005" lon="4.97878">
        <ele>220.48199462891</ele>
        <time>2009-11-08T09:35:29Z</time>
      </trkpt>
      <trkpt lat="45.12021" lon="4.97959">
        <ele>221.19400024414</ele>
        <time>2009-11-08T09:35:39Z</time>
      </trkpt>
      <trkpt lat="45.1204" lon="4.98049">
        <ele>222.03999328613</ele>
        <time>2009-11-08T09:35:50Z</time>
      </trkpt>
      <trkpt lat="45.12055" lon="4.98123">
        <ele>222.61500549316</ele>
        <time>2009-11-08T09:35:59Z</time>
      </trkpt>
      <trkpt lat="45.12066" lon="4.98196">
        <ele>222.97900390625</ele>
        <time>2009-11-08T09:36:08Z</time>
      </trkpt>
      <trkpt lat="45.12068" lon="4.98221">
        <ele>223.63000488281</ele>
        <time>2009-11-08T09:36:11Z</time>
      </trkpt>
      <trkpt lat="45.12061" lon="4.98282">
        <ele>223.15400695801</ele>
        <time>2009-11-08T09:36:18Z</time>
      </trkpt>
      <trkpt lat="45.12051" lon="4.9836">
        <ele>224.41600036621</ele>
        <time>2009-11-08T09:36:27Z</time>
      </trkpt>
      <trkpt lat="45.12046" lon="4.98389">
        <ele>224.78999328613</ele>
        <time>2009-11-08T09:36:32Z</time>
      </trkpt>
      <trkpt lat="45.12046" lon="4.98389">
        <ele>224.88000488281</ele>
        <time>2009-11-08T09:36:35Z</time>
      </trkpt>
      <trkpt lat="45.12041" lon="4.98435">
        <ele>224.6130065918</ele>
        <time>2009-11-08T09:36:37Z</time>
      </trkpt>
      <trkpt lat="45.12054" lon="4.98425">
        <ele>224.95199584961</ele>
        <time>2009-11-08T09:36:40Z</time>
      </trkpt>
      <trkpt lat="45.1208" lon="4.9841">
        <ele>224.67700195312</ele>
        <time>2009-11-08T09:36:44Z</time>
      </trkpt>
      <trkpt lat="45.12143" lon="4.9841">
        <ele>224.57800292969</ele>
        <time>2009-11-08T09:36:54Z</time>
      </trkpt>
      <trkpt lat="45.12168" lon="4.9841">
        <ele>224.63299560547</ele>
        <time>2009-11-08T09:36:58Z</time>
      </trkpt>
      <trkpt lat="45.12184" lon="4.9841">
        <ele>225.12199401856</ele>
        <time>2009-11-08T09:37:05Z</time>
      </trkpt>
      <trkpt lat="45.12184" lon="4.9841">
        <ele>225.00100708008</ele>
        <time>2009-11-08T09:37:06Z</time>
      </trkpt>
      <trkpt lat="45.12222" lon="4.98415">
        <ele>225.51499938965</ele>
        <time>2009-11-08T09:37:12Z</time>
      </trkpt>
      <trkpt lat="45.1226" lon="4.98415">
        <ele>225.68800354004</ele>
        <time>2009-11-08T09:37:15Z</time>
      </trkpt>
      <trkpt lat="45.12281" lon="4.98415">
        <ele>225.88999938965</ele>
        <time>2009-11-08T09:37:19Z</time>
      </trkpt>
      <trkpt lat="45.1232" lon="4.98418">
        <ele>226.22700500488</ele>
        <time>2009-11-08T09:37:26Z</time>
      </trkpt>
      <trkpt lat="45.12341" lon="4.98411">
        <ele>226.38600158691</ele>
        <time>2009-11-08T09:37:30Z</time>
      </trkpt>
      <trkpt lat="45.1235" lon="4.98399">
        <ele>226.70300292969</ele>
        <time>2009-11-08T09:37:32Z</time>
      </trkpt>
      <trkpt lat="45.12351" lon="4.98397">
        <ele>226.78399658203</ele>
        <time>2009-11-08T09:37:34Z</time>
      </trkpt>
      <trkpt lat="45.12375" lon="4.98365">
        <ele>226.98199462891</ele>
        <time>2009-11-08T09:37:39Z</time>
      </trkpt>
      <trkpt lat="45.12377" lon="4.98363">
        <ele>227.33700561523</ele>
        <time>2009-11-08T09:37:41Z</time>
      </trkpt>
      <trkpt lat="45.12422" lon="4.98336">
        <ele>227.48599243164</ele>
        <time>2009-11-08T09:37:48Z</time>
      </trkpt>
      <trkpt lat="45.12448" lon="4.9832">
        <ele>227.7799987793</ele>
        <time>2009-11-08T09:37:54Z</time>
      </trkpt>
      <trkpt lat="45.12478" lon="4.98304">
        <ele>228.17700195312</ele>
        <time>2009-11-08T09:38:01Z</time>
      </trkpt>
      <trkpt lat="45.12517" lon="4.98287">
        <ele>229.38499450684</ele>
        <time>2009-11-08T09:38:08Z</time>
      </trkpt>
      <trkpt lat="45.12546" lon="4.98278">
        <ele>230.19099426269</ele>
        <time>2009-11-08T09:38:13Z</time>
      </trkpt>
      <trkpt lat="45.12592" lon="4.98265">
        <ele>231.48399353027</ele>
        <time>2009-11-08T09:38:21Z</time>
      </trkpt>
      <trkpt lat="45.12636" lon="4.98251">
        <ele>232.7859954834</ele>
        <time>2009-11-08T09:38:29Z</time>
      </trkpt>
      <trkpt lat="45.12674" lon="4.98243">
        <ele>233.89599609375</ele>
        <time>2009-11-08T09:38:36Z</time>
      </trkpt>
      <trkpt lat="45.12699" lon="4.98243">
        <ele>235.29499816894</ele>
        <time>2009-11-08T09:38:43Z</time>
      </trkpt>
      <trkpt lat="45.12755" lon="4.98249">
        <ele>236.01899719238</ele>
        <time>2009-11-08T09:38:52Z</time>
      </trkpt>
      <trkpt lat="45.12809" lon="4.98256">
        <ele>237.66400146484</ele>
        <time>2009-11-08T09:39:03Z</time>
      </trkpt>
      <trkpt lat="45.12854" lon="4.98268">
        <ele>239.35800170898</ele>
        <time>2009-11-08T09:39:12Z</time>
      </trkpt>
      <trkpt lat="45.12902" lon="4.98287">
        <ele>238.85400390625</ele>
        <time>2009-11-08T09:39:21Z</time>
      </trkpt>
      <trkpt lat="45.12945" lon="4.98304">
        <ele>238.78300476074</ele>
        <time>2009-11-08T09:39:29Z</time>
      </trkpt>
      <trkpt lat="45.13001" lon="4.98309">
        <ele>239.49699401856</ele>
        <time>2009-11-08T09:39:39Z</time>
      </trkpt>
      <trkpt lat="45.13023" lon="4.98305">
        <ele>239.53799438477</ele>
        <time>2009-11-08T09:39:42Z</time>
      </trkpt>
      <trkpt lat="45.13132" lon="4.98256">
        <ele>240.25100708008</ele>
        <time>2009-11-08T09:40:04Z</time>
      </trkpt>
      <trkpt lat="45.13165" lon="4.98238">
        <ele>240.66299438477</ele>
        <time>2009-11-08T09:40:10Z</time>
      </trkpt>
      <trkpt lat="45.13182" lon="4.98232">
        <ele>240.63299560547</ele>
        <time>2009-11-08T09:40:13Z</time>
      </trkpt>
      <trkpt lat="45.13208" lon="4.98222">
        <ele>240.87199401856</ele>
        <time>2009-11-08T09:40:18Z</time>
      </trkpt>
      <trkpt lat="45.13241" lon="4.9821">
        <ele>241.2859954834</ele>
        <time>2009-11-08T09:40:24Z</time>
      </trkpt>
      <trkpt lat="45.1328" lon="4.98198">
        <ele>241.79800415039</ele>
        <time>2009-11-08T09:40:31Z</time>
      </trkpt>
      <trkpt lat="45.13334" lon="4.98184">
        <ele>241.97700500488</ele>
        <time>2009-11-08T09:40:41Z</time>
      </trkpt>
      <trkpt lat="45.13379" lon="4.98172">
        <ele>242.45599365234</ele>
        <time>2009-11-08T09:40:49Z</time>
      </trkpt>
      <trkpt lat="45.13423" lon="4.9816">
        <ele>242.69099426269</ele>
        <time>2009-11-08T09:40:57Z</time>
      </trkpt>
      <trkpt lat="45.13468" lon="4.98149">
        <ele>243.64900207519</ele>
        <time>2009-11-08T09:41:05Z</time>
      </trkpt>
      <trkpt lat="45.13517" lon="4.98134">
        <ele>244.05700683594</ele>
        <time>2009-11-08T09:41:14Z</time>
      </trkpt>
      <trkpt lat="45.13567" lon="4.98114">
        <ele>244.94999694824</ele>
        <time>2009-11-08T09:41:23Z</time>
      </trkpt>
      <trkpt lat="45.13608" lon="4.98092">
        <ele>245.19799804688</ele>
        <time>2009-11-08T09:41:31Z</time>
      </trkpt>
      <trkpt lat="45.13654" lon="4.98058">
        <ele>245.11500549316</ele>
        <time>2009-11-08T09:41:40Z</time>
      </trkpt>
      <trkpt lat="45.13696" lon="4.9803">
        <ele>246.16299438477</ele>
        <time>2009-11-08T09:41:48Z</time>
      </trkpt>
      <trkpt lat="45.13733" lon="4.98014">
        <ele>245.91700744629</ele>
        <time>2009-11-08T09:41:55Z</time>
      </trkpt>
      <trkpt lat="45.1377" lon="4.97997">
        <ele>247.03900146484</ele>
        <time>2009-11-08T09:42:02Z</time>
      </trkpt>
      <trkpt lat="45.13801" lon="4.97983">
        <ele>247.4109954834</ele>
        <time>2009-11-08T09:42:08Z</time>
      </trkpt>
      <trkpt lat="45.13842" lon="4.97964">
        <ele>247.33999633789</ele>
        <time>2009-11-08T09:42:16Z</time>
      </trkpt>
      <trkpt lat="45.13889" lon="4.97943">
        <ele>248.33399963379</ele>
        <time>2009-11-08T09:42:25Z</time>
      </trkpt>
      <trkpt lat="45.13928" lon="4.97925">
        <ele>248.23599243164</ele>
        <time>2009-11-08T09:42:33Z</time>
      </trkpt>
      <trkpt lat="45.13985" lon="4.979">
        <ele>248.24299621582</ele>
        <time>2009-11-08T09:42:44Z</time>
      </trkpt>
      <trkpt lat="45.1403" lon="4.97879">
        <ele>248.19799804688</ele>
        <time>2009-11-08T09:42:53Z</time>
      </trkpt>
      <trkpt lat="45.14071" lon="4.97861">
        <ele>248.12399291992</ele>
        <time>2009-11-08T09:43:01Z</time>
      </trkpt>
      <trkpt lat="45.1408" lon="4.97857">
        <ele>249.87899780273</ele>
        <time>2009-11-08T09:43:05Z</time>
      </trkpt>
      <trkpt lat="45.14132" lon="4.97831">
        <ele>250.52600097656</ele>
        <time>2009-11-08T09:43:13Z</time>
      </trkpt>
      <trkpt lat="45.14188" lon="4.97804">
        <ele>250.87199401856</ele>
        <time>2009-11-08T09:43:24Z</time>
      </trkpt>
      <trkpt lat="45.14238" lon="4.9778">
        <ele>251.38200378418</ele>
        <time>2009-11-08T09:43:34Z</time>
      </trkpt>
      <trkpt lat="45.14289" lon="4.97754">
        <ele>251.51499938965</ele>
        <time>2009-11-08T09:43:44Z</time>
      </trkpt>
      <trkpt lat="45.14328" lon="4.97733">
        <ele>251.43800354004</ele>
        <time>2009-11-08T09:43:52Z</time>
      </trkpt>
      <trkpt lat="45.14368" lon="4.97697">
        <ele>251.44700622559</ele>
        <time>2009-11-08T09:44:01Z</time>
      </trkpt>
      <trkpt lat="45.14403" lon="4.97667">
        <ele>252.69400024414</ele>
        <time>2009-11-08T09:44:09Z</time>
      </trkpt>
      <trkpt lat="45.14449" lon="4.97628">
        <ele>252.74000549316</ele>
        <time>2009-11-08T09:44:19Z</time>
      </trkpt>
      <trkpt lat="45.1448" lon="4.97602">
        <ele>253.56599426269</ele>
        <time>2009-11-08T09:44:25Z</time>
      </trkpt>
      <trkpt lat="45.1454" lon="4.9755">
        <ele>254.59300231934</ele>
        <time>2009-11-08T09:44:40Z</time>
      </trkpt>
      <trkpt lat="45.14609" lon="4.97513">
        <ele>255.9880065918</ele>
        <time>2009-11-08T09:44:52Z</time>
      </trkpt>
      <trkpt lat="45.14653" lon="4.97494">
        <ele>256.85699462891</ele>
        <time>2009-11-08T09:45:00Z</time>
      </trkpt>
      <trkpt lat="45.14697" lon="4.97478">
        <ele>256.61999511719</ele>
        <time>2009-11-08T09:45:08Z</time>
      </trkpt>
      <trkpt lat="45.14751" lon="4.97459">
        <ele>257.99700927734</ele>
        <time>2009-11-08T09:45:18Z</time>
      </trkpt>
      <trkpt lat="45.14801" lon="4.97452">
        <ele>258.96398925781</ele>
        <time>2009-11-08T09:45:27Z</time>
      </trkpt>
      <trkpt lat="45.14857" lon="4.97451">
        <ele>260.10000610352</ele>
        <time>2009-11-08T09:45:37Z</time>
      </trkpt>
      <trkpt lat="45.14907" lon="4.97449">
        <ele>260.97399902344</ele>
        <time>2009-11-08T09:45:46Z</time>
      </trkpt>
      <trkpt lat="45.14958" lon="4.97451">
        <ele>261.49700927734</ele>
        <time>2009-11-08T09:45:55Z</time>
      </trkpt>
      <trkpt lat="45.15003" lon="4.97449">
        <ele>261.77499389648</ele>
        <time>2009-11-08T09:46:03Z</time>
      </trkpt>
      <trkpt lat="45.15054" lon="4.97433">
        <ele>261.98901367188</ele>
        <time>2009-11-08T09:46:12Z</time>
      </trkpt>
      <trkpt lat="45.15098" lon="4.9741">
        <ele>262.70901489258</ele>
        <time>2009-11-08T09:46:20Z</time>
      </trkpt>
      <trkpt lat="45.15164" lon="4.97373">
        <ele>262.89099121094</ele>
        <time>2009-11-08T09:46:32Z</time>
      </trkpt>
      <trkpt lat="45.15223" lon="4.97336">
        <ele>263.35598754883</ele>
        <time>2009-11-08T09:46:43Z</time>
      </trkpt>
      <trkpt lat="45.15282" lon="4.97299">
        <ele>264.62399291992</ele>
        <time>2009-11-08T09:46:56Z</time>
      </trkpt>
      <trkpt lat="45.15327" lon="4.97275">
        <ele>265.89099121094</ele>
        <time>2009-11-08T09:47:04Z</time>
      </trkpt>
      <trkpt lat="45.15359" lon="4.97258">
        <ele>267.5719909668</ele>
        <time>2009-11-08T09:47:11Z</time>
      </trkpt>
      <trkpt lat="45.15392" lon="4.97239">
        <ele>269.48400878906</ele>
        <time>2009-11-08T09:47:20Z</time>
      </trkpt>
      <trkpt lat="45.15419" lon="4.97226">
        <ele>270.9460144043</ele>
        <time>2009-11-08T09:47:27Z</time>
      </trkpt>
      <trkpt lat="45.15443" lon="4.97217">
        <ele>272.25100708008</ele>
        <time>2009-11-08T09:47:33Z</time>
      </trkpt>
      <trkpt lat="45.15465" lon="4.97216">
        <ele>273.55099487305</ele>
        <time>2009-11-08T09:47:39Z</time>
      </trkpt>
      <trkpt lat="45.15485" lon="4.97215">
        <ele>274.76800537109</ele>
        <time>2009-11-08T09:47:45Z</time>
      </trkpt>
      <trkpt lat="45.15506" lon="4.97214">
        <ele>276.2200012207</ele>
        <time>2009-11-08T09:47:51Z</time>
      </trkpt>
      <trkpt lat="45.15527" lon="4.97209">
        <ele>277.61898803711</ele>
        <time>2009-11-08T09:47:57Z</time>
      </trkpt>
      <trkpt lat="45.15546" lon="4.97198">
        <ele>279.35699462891</ele>
        <time>2009-11-08T09:48:03Z</time>
      </trkpt>
      <trkpt lat="45.15566" lon="4.97176">
        <ele>280.26400756836</ele>
        <time>2009-11-08T09:48:10Z</time>
      </trkpt>
      <trkpt lat="45.15576" lon="4.97148">
        <ele>281.27099609375</ele>
        <time>2009-11-08T09:48:16Z</time>
      </trkpt>
      <trkpt lat="45.15589" lon="4.97113">
        <ele>282.80599975586</ele>
        <time>2009-11-08T09:48:23Z</time>
      </trkpt>
      <trkpt lat="45.15603" lon="4.97066">
        <ele>283.92001342773</ele>
        <time>2009-11-08T09:48:32Z</time>
      </trkpt>
      <trkpt lat="45.1562" lon="4.97012">
        <ele>285.46099853516</ele>
        <time>2009-11-08T09:48:42Z</time>
      </trkpt>
      <trkpt lat="45.15634" lon="4.96964">
        <ele>287.02301025391</ele>
        <time>2009-11-08T09:48:51Z</time>
      </trkpt>
      <trkpt lat="45.15658" lon="4.96929">
        <ele>288.26998901367</ele>
        <time>2009-11-08T09:48:59Z</time>
      </trkpt>
      <trkpt lat="45.15686" lon="4.96895">
        <ele>288.77899169922</ele>
        <time>2009-11-08T09:49:07Z</time>
      </trkpt>
      <trkpt lat="45.1569" lon="4.96891">
        <ele>288.84399414062</ele>
        <time>2009-11-08T09:49:08Z</time>
      </trkpt>
      <trkpt lat="45.15719" lon="4.96862">
        <ele>289.5419921875</ele>
        <time>2009-11-08T09:49:16Z</time>
      </trkpt>
      <trkpt lat="45.15757" lon="4.96824">
        <ele>290.58499145508</ele>
        <time>2009-11-08T09:49:25Z</time>
      </trkpt>
      <trkpt lat="45.15783" lon="4.96798">
        <ele>291.10900878906</ele>
        <time>2009-11-08T09:49:31Z</time>
      </trkpt>
      <trkpt lat="45.15805" lon="4.96778">
        <ele>291.72100830078</ele>
        <time>2009-11-08T09:49:36Z</time>
      </trkpt>
      <trkpt lat="45.15849" lon="4.96754">
        <ele>292.29699707031</ele>
        <time>2009-11-08T09:49:45Z</time>
      </trkpt>
      <trkpt lat="45.15893" lon="4.96735">
        <ele>293.48300170898</ele>
        <time>2009-11-08T09:49:54Z</time>
      </trkpt>
      <trkpt lat="45.15945" lon="4.96719">
        <ele>294.61700439453</ele>
        <time>2009-11-08T09:50:05Z</time>
      </trkpt>
      <trkpt lat="45.15992" lon="4.96704">
        <ele>296.2619934082</ele>
        <time>2009-11-08T09:50:16Z</time>
      </trkpt>
      <trkpt lat="45.16027" lon="4.96702">
        <ele>298.00201416016</ele>
        <time>2009-11-08T09:50:25Z</time>
      </trkpt>
      <trkpt lat="45.16053" lon="4.96706">
        <ele>299.18899536133</ele>
        <time>2009-11-08T09:50:32Z</time>
      </trkpt>
      <trkpt lat="45.16075" lon="4.96715">
        <ele>300.40399169922</ele>
        <time>2009-11-08T09:50:39Z</time>
      </trkpt>
      <trkpt lat="45.16105" lon="4.96735">
        <ele>301.6960144043</ele>
        <time>2009-11-08T09:50:47Z</time>
      </trkpt>
      <trkpt lat="45.16136" lon="4.96741">
        <ele>302.24398803711</ele>
        <time>2009-11-08T09:50:54Z</time>
      </trkpt>
      <trkpt lat="45.16155" lon="4.96736">
        <ele>302.76800537109</ele>
        <time>2009-11-08T09:50:59Z</time>
      </trkpt>
      <trkpt lat="45.16187" lon="4.96719">
        <ele>303.51800537109</ele>
        <time>2009-11-08T09:51:07Z</time>
      </trkpt>
      <trkpt lat="45.1622" lon="4.96697">
        <ele>304.85699462891</ele>
        <time>2009-11-08T09:51:15Z</time>
      </trkpt>
      <trkpt lat="45.16249" lon="4.96678">
        <ele>305.42401123047</ele>
        <time>2009-11-08T09:51:22Z</time>
      </trkpt>
      <trkpt lat="45.16267" lon="4.96663">
        <ele>307.46398925781</ele>
        <time>2009-11-08T09:51:27Z</time>
      </trkpt>
      <trkpt lat="45.1628" lon="4.96634">
        <ele>307.84600830078</ele>
        <time>2009-11-08T09:51:33Z</time>
      </trkpt>
      <trkpt lat="45.16282" lon="4.96629">
        <ele>308.38000488281</ele>
        <time>2009-11-08T09:51:34Z</time>
      </trkpt>
      <trkpt lat="45.16285" lon="4.96587">
        <ele>308.92098999023</ele>
        <time>2009-11-08T09:51:41Z</time>
      </trkpt>
      <trkpt lat="45.16288" lon="4.96532">
        <ele>309.75500488281</ele>
        <time>2009-11-08T09:51:49Z</time>
      </trkpt>
      <trkpt lat="45.16303" lon="4.96495">
        <ele>310.26000976562</ele>
        <time>2009-11-08T09:51:54Z</time>
      </trkpt>
      <trkpt lat="45.16323" lon="4.96483">
        <ele>310.66900634766</ele>
        <time>2009-11-08T09:51:58Z</time>
      </trkpt>
      <trkpt lat="45.16338" lon="4.96483">
        <ele>310.95001220703</ele>
        <time>2009-11-08T09:52:01Z</time>
      </trkpt>
      <trkpt lat="45.16371" lon="4.96493">
        <ele>313.25799560547</ele>
        <time>2009-11-08T09:52:09Z</time>
      </trkpt>
      <trkpt lat="45.16396" lon="4.965">
        <ele>315.16198730469</ele>
        <time>2009-11-08T09:52:16Z</time>
      </trkpt>
      <trkpt lat="45.16431" lon="4.96498">
        <ele>316.44198608398</ele>
        <time>2009-11-08T09:52:25Z</time>
      </trkpt>
      <trkpt lat="45.1647" lon="4.96497">
        <ele>318.65798950195</ele>
        <time>2009-11-08T09:52:35Z</time>
      </trkpt>
      <trkpt lat="45.165" lon="4.96505">
        <ele>320.22500610352</ele>
        <time>2009-11-08T09:52:43Z</time>
      </trkpt>
      <trkpt lat="45.16516" lon="4.9652">
        <ele>321.45700073242</ele>
        <time>2009-11-08T09:52:48Z</time>
      </trkpt>
      <trkpt lat="45.1653" lon="4.96546">
        <ele>322.81500244141</ele>
        <time>2009-11-08T09:52:55Z</time>
      </trkpt>
      <trkpt lat="45.16542" lon="4.96583">
        <ele>325.07598876953</ele>
        <time>2009-11-08T09:53:03Z</time>
      </trkpt>
      <trkpt lat="45.1655" lon="4.96613">
        <ele>325.69400024414</ele>
        <time>2009-11-08T09:53:09Z</time>
      </trkpt>
      <trkpt lat="45.1656" lon="4.96647">
        <ele>327.38500976562</ele>
        <time>2009-11-08T09:53:17Z</time>
      </trkpt>
      <trkpt lat="45.16578" lon="4.9668">
        <ele>328.65798950195</ele>
        <time>2009-11-08T09:53:25Z</time>
      </trkpt>
      <trkpt lat="45.16603" lon="4.96706">
        <ele>329.01098632812</ele>
        <time>2009-11-08T09:53:33Z</time>
      </trkpt>
      <trkpt lat="45.16609" lon="4.96711">
        <ele>328.96798706055</ele>
        <time>2009-11-08T09:53:35Z</time>
      </trkpt>
      <trkpt lat="45.16634" lon="4.96711">
        <ele>328.67300415039</ele>
        <time>2009-11-08T09:53:40Z</time>
      </trkpt>
      <trkpt lat="45.16651" lon="4.96711">
        <ele>328.54299926758</ele>
        <time>2009-11-08T09:53:43Z</time>
      </trkpt>
      <trkpt lat="45.16677" lon="4.96722">
        <ele>327.17498779297</ele>
        <time>2009-11-08T09:53:48Z</time>
      </trkpt>
      <trkpt lat="45.16694" lon="4.96748">
        <ele>327.10101318359</ele>
        <time>2009-11-08T09:53:52Z</time>
      </trkpt>
      <trkpt lat="45.16729" lon="4.96801">
        <ele>327.40600585938</ele>
        <time>2009-11-08T09:54:00Z</time>
      </trkpt>
      <trkpt lat="45.16764" lon="4.96854">
        <ele>327.4289855957</ele>
        <time>2009-11-08T09:54:08Z</time>
      </trkpt>
      <trkpt lat="45.16778" lon="4.96869">
        <ele>327.25299072266</ele>
        <time>2009-11-08T09:54:11Z</time>
      </trkpt>
      <trkpt lat="45.16806" lon="4.96878">
        <ele>327.43798828125</ele>
        <time>2009-11-08T09:54:16Z</time>
      </trkpt>
      <trkpt lat="45.16832" lon="4.96878">
        <ele>327.58200073242</ele>
        <time>2009-11-08T09:54:20Z</time>
      </trkpt>
      <trkpt lat="45.16882" lon="4.96846">
        <ele>328.27200317383</ele>
        <time>2009-11-08T09:54:29Z</time>
      </trkpt>
      <trkpt lat="45.16911" lon="4.96824">
        <ele>329.19500732422</ele>
        <time>2009-11-08T09:54:35Z</time>
      </trkpt>
      <trkpt lat="45.1693" lon="4.96801">
        <ele>330.22799682617</ele>
        <time>2009-11-08T09:54:40Z</time>
      </trkpt>
      <trkpt lat="45.1693" lon="4.96775">
        <ele>330.95199584961</ele>
        <time>2009-11-08T09:54:44Z</time>
      </trkpt>
      <trkpt lat="45.16927" lon="4.96764">
        <ele>331.27398681641</ele>
        <time>2009-11-08T09:54:46Z</time>
      </trkpt>
      <trkpt lat="45.16919" lon="4.96731">
        <ele>332.94900512695</ele>
        <time>2009-11-08T09:54:52Z</time>
      </trkpt>
      <trkpt lat="45.16913" lon="4.96703">
        <ele>334.23098754883</ele>
        <time>2009-11-08T09:54:56Z</time>
      </trkpt>
      <trkpt lat="45.16916" lon="4.96683">
        <ele>335.14498901367</ele>
        <time>2009-11-08T09:54:59Z</time>
      </trkpt>
      <trkpt lat="45.16922" lon="4.96655">
        <ele>336.27398681641</ele>
        <time>2009-11-08T09:55:04Z</time>
      </trkpt>
      <trkpt lat="45.16937" lon="4.96635">
        <ele>337.68399047852</ele>
        <time>2009-11-08T09:55:09Z</time>
      </trkpt>
      <trkpt lat="45.16953" lon="4.96618">
        <ele>339.26400756836</ele>
        <time>2009-11-08T09:55:14Z</time>
      </trkpt>
      <trkpt lat="45.16966" lon="4.96584">
        <ele>340.76699829102</ele>
        <time>2009-11-08T09:55:21Z</time>
      </trkpt>
      <trkpt lat="45.16971" lon="4.96568">
        <ele>341.45700073242</ele>
        <time>2009-11-08T09:55:24Z</time>
      </trkpt>
      <trkpt lat="45.16985" lon="4.96524">
        <ele>343.10101318359</ele>
        <time>2009-11-08T09:55:32Z</time>
      </trkpt>
      <trkpt lat="45.16991" lon="4.96501">
        <ele>343.94799804688</ele>
        <time>2009-11-08T09:55:36Z</time>
      </trkpt>
      <trkpt lat="45.17002" lon="4.96451">
        <ele>345.23901367188</ele>
        <time>2009-11-08T09:55:44Z</time>
      </trkpt>
      <trkpt lat="45.17002" lon="4.96399">
        <ele>345.65399169922</ele>
        <time>2009-11-08T09:55:52Z</time>
      </trkpt>
      <trkpt lat="45.16999" lon="4.96339">
        <ele>344.89498901367</ele>
        <time>2009-11-08T09:55:59Z</time>
      </trkpt>
      <trkpt lat="45.16994" lon="4.96266">
        <ele>343.75601196289</ele>
        <time>2009-11-08T09:56:07Z</time>
      </trkpt>
      <trkpt lat="45.16987" lon="4.96234">
        <ele>343.38299560547</ele>
        <time>2009-11-08T09:56:11Z</time>
      </trkpt>
      <trkpt lat="45.17015" lon="4.96219">
        <ele>344.10800170898</ele>
        <time>2009-11-08T09:56:14Z</time>
      </trkpt>
      <trkpt lat="45.17047" lon="4.96213">
        <ele>345.52700805664</ele>
        <time>2009-11-08T09:56:20Z</time>
      </trkpt>
      <trkpt lat="45.17077" lon="4.96222">
        <ele>347.28298950195</ele>
        <time>2009-11-08T09:56:27Z</time>
      </trkpt>
      <trkpt lat="45.17106" lon="4.96242">
        <ele>349.49398803711</ele>
        <time>2009-11-08T09:56:35Z</time>
      </trkpt>
      <trkpt lat="45.17129" lon="4.96257">
        <ele>351.04598999023</ele>
        <time>2009-11-08T09:56:42Z</time>
      </trkpt>
      <trkpt lat="45.17152" lon="4.96272">
        <ele>352.63000488281</ele>
        <time>2009-11-08T09:56:49Z</time>
      </trkpt>
      <trkpt lat="45.17179" lon="4.96298">
        <ele>354.94100952148</ele>
        <time>2009-11-08T09:56:58Z</time>
      </trkpt>
      <trkpt lat="45.17194" lon="4.96324">
        <ele>356.05999755859</ele>
        <time>2009-11-08T09:57:04Z</time>
      </trkpt>
      <trkpt lat="45.17201" lon="4.96366">
        <ele>356.59201049805</ele>
        <time>2009-11-08T09:57:11Z</time>
      </trkpt>
      <trkpt lat="45.17203" lon="4.96378">
        <ele>357.02200317383</ele>
        <time>2009-11-08T09:57:13Z</time>
      </trkpt>
      <trkpt lat="45.17204" lon="4.96397">
        <ele>357.17999267578</ele>
        <time>2009-11-08T09:57:16Z</time>
      </trkpt>
      <trkpt lat="45.17195" lon="4.96431">
        <ele>358.76098632812</ele>
        <time>2009-11-08T09:57:22Z</time>
      </trkpt>
      <trkpt lat="45.1718" lon="4.96464">
        <ele>360.22100830078</ele>
        <time>2009-11-08T09:57:29Z</time>
      </trkpt>
      <trkpt lat="45.17179" lon="4.96489">
        <ele>361.65399169922</ele>
        <time>2009-11-08T09:57:34Z</time>
      </trkpt>
      <trkpt lat="45.17186" lon="4.96506">
        <ele>362.9460144043</ele>
        <time>2009-11-08T09:57:39Z</time>
      </trkpt>
      <trkpt lat="45.17202" lon="4.96516">
        <ele>364.28500366211</ele>
        <time>2009-11-08T09:57:45Z</time>
      </trkpt>
      <trkpt lat="45.17221" lon="4.96519">
        <ele>365.76501464844</ele>
        <time>2009-11-08T09:57:51Z</time>
      </trkpt>
      <trkpt lat="45.17243" lon="4.9652">
        <ele>367.3210144043</ele>
        <time>2009-11-08T09:57:58Z</time>
      </trkpt>
      <trkpt lat="45.17265" lon="4.96522">
        <ele>368.69400024414</ele>
        <time>2009-11-08T09:58:04Z</time>
      </trkpt>
      <trkpt lat="45.17285" lon="4.9653">
        <ele>369.75698852539</ele>
        <time>2009-11-08T09:58:10Z</time>
      </trkpt>
      <trkpt lat="45.17305" lon="4.9654">
        <ele>370.73901367188</ele>
        <time>2009-11-08T09:58:16Z</time>
      </trkpt>
      <trkpt lat="45.17328" lon="4.96555">
        <ele>372.82800292969</ele>
        <time>2009-11-08T09:58:23Z</time>
      </trkpt>
      <trkpt lat="45.17359" lon="4.96584">
        <ele>374.75100708008</ele>
        <time>2009-11-08T09:58:33Z</time>
      </trkpt>
      <trkpt lat="45.17387" lon="4.96605">
        <ele>376.50900268555</ele>
        <time>2009-11-08T09:58:42Z</time>
      </trkpt>
      <trkpt lat="45.17407" lon="4.96611">
        <ele>377.85400390625</ele>
        <time>2009-11-08T09:58:48Z</time>
      </trkpt>
      <trkpt lat="45.17441" lon="4.96603">
        <ele>378.50100708008</ele>
        <time>2009-11-08T09:58:57Z</time>
      </trkpt>
      <trkpt lat="45.17464" lon="4.96597">
        <ele>379.49798583984</ele>
        <time>2009-11-08T09:59:03Z</time>
      </trkpt>
      <trkpt lat="45.17492" lon="4.96591">
        <ele>380.41101074219</ele>
        <time>2009-11-08T09:59:10Z</time>
      </trkpt>
      <trkpt lat="45.17533" lon="4.96581">
        <ele>382.09298706055</ele>
        <time>2009-11-08T09:59:20Z</time>
      </trkpt>
      <trkpt lat="45.17562" lon="4.9657">
        <ele>383.20001220703</ele>
        <time>2009-11-08T09:59:28Z</time>
      </trkpt>
      <trkpt lat="45.17592" lon="4.96544">
        <ele>384.51400756836</ele>
        <time>2009-11-08T09:59:37Z</time>
      </trkpt>
      <trkpt lat="45.17635" lon="4.96503">
        <ele>385.77899169922</ele>
        <time>2009-11-08T09:59:49Z</time>
      </trkpt>
      <trkpt lat="45.17673" lon="4.9647">
        <ele>388.09600830078</ele>
        <time>2009-11-08T09:59:59Z</time>
      </trkpt>
      <trkpt lat="45.17707" lon="4.96445">
        <ele>389.0830078125</ele>
        <time>2009-11-08T10:00:08Z</time>
      </trkpt>
      <trkpt lat="45.17727" lon="4.9643">
        <ele>389.18399047852</ele>
        <time>2009-11-08T10:00:13Z</time>
      </trkpt>
      <trkpt lat="45.17743" lon="4.96421">
        <ele>389.29901123047</ele>
        <time>2009-11-08T10:00:17Z</time>
      </trkpt>
      <trkpt lat="45.17779" lon="4.96399">
        <ele>391.06600952148</ele>
        <time>2009-11-08T10:00:26Z</time>
      </trkpt>
      <trkpt lat="45.17821" lon="4.96384">
        <ele>390.91198730469</ele>
        <time>2009-11-08T10:00:35Z</time>
      </trkpt>
      <trkpt lat="45.17849" lon="4.9638">
        <ele>391.28201293945</ele>
        <time>2009-11-08T10:00:41Z</time>
      </trkpt>
      <trkpt lat="45.17891" lon="4.96389">
        <ele>391.7799987793</ele>
        <time>2009-11-08T10:00:49Z</time>
      </trkpt>
      <trkpt lat="45.17918" lon="4.96402">
        <ele>393.48001098633</ele>
        <time>2009-11-08T10:00:55Z</time>
      </trkpt>
      <trkpt lat="45.17943" lon="4.96413">
        <ele>395.01699829102</ele>
        <time>2009-11-08T10:01:02Z</time>
      </trkpt>
      <trkpt lat="45.17963" lon="4.9643">
        <ele>397.0710144043</ele>
        <time>2009-11-08T10:01:09Z</time>
      </trkpt>
      <trkpt lat="45.17977" lon="4.96448">
        <ele>398.59698486328</ele>
        <time>2009-11-08T10:01:15Z</time>
      </trkpt>
      <trkpt lat="45.17988" lon="4.96471">
        <ele>400.24398803711</ele>
        <time>2009-11-08T10:01:21Z</time>
      </trkpt>
      <trkpt lat="45.18002" lon="4.96499">
        <ele>401.98001098633</ele>
        <time>2009-11-08T10:01:28Z</time>
      </trkpt>
      <trkpt lat="45.18011" lon="4.96518">
        <ele>403.14498901367</ele>
        <time>2009-11-08T10:01:33Z</time>
      </trkpt>
      <trkpt lat="45.18025" lon="4.96546">
        <ele>404.42300415039</ele>
        <time>2009-11-08T10:01:40Z</time>
      </trkpt>
      <trkpt lat="45.18037" lon="4.96571">
        <ele>405.46099853516</ele>
        <time>2009-11-08T10:01:46Z</time>
      </trkpt>
      <trkpt lat="45.1805" lon="4.96598">
        <ele>405.93301391602</ele>
        <time>2009-11-08T10:01:52Z</time>
      </trkpt>
      <trkpt lat="45.18067" lon="4.96633">
        <ele>406.82299804688</ele>
        <time>2009-11-08T10:01:59Z</time>
      </trkpt>
      <trkpt lat="45.18082" lon="4.96667">
        <ele>407.05099487305</ele>
        <time>2009-11-08T10:02:05Z</time>
      </trkpt>
      <trkpt lat="45.1811" lon="4.96714">
        <ele>407.66101074219</ele>
        <time>2009-11-08T10:02:14Z</time>
      </trkpt>
      <trkpt lat="45.18112" lon="4.9672">
        <ele>407.60998535156</ele>
        <time>2009-11-08T10:02:15Z</time>
      </trkpt>
      <trkpt lat="45.18129" lon="4.9675">
        <ele>406.78799438477</ele>
        <time>2009-11-08T10:02:20Z</time>
      </trkpt>
      <trkpt lat="45.18154" lon="4.96776">
        <ele>405.57699584961</ele>
        <time>2009-11-08T10:02:25Z</time>
      </trkpt>
      <trkpt lat="45.18178" lon="4.968">
        <ele>402.98498535156</ele>
        <time>2009-11-08T10:02:29Z</time>
      </trkpt>
      <trkpt lat="45.18211" lon="4.96843">
        <ele>399.54998779297</ele>
        <time>2009-11-08T10:02:34Z</time>
      </trkpt>
      <trkpt lat="45.18241" lon="4.96875">
        <ele>397.08700561523</ele>
        <time>2009-11-08T10:02:38Z</time>
      </trkpt>
      <trkpt lat="45.18269" lon="4.96891">
        <ele>395.68701171875</ele>
        <time>2009-11-08T10:02:41Z</time>
      </trkpt>
      <trkpt lat="45.18296" lon="4.96907">
        <ele>394.60000610352</ele>
        <time>2009-11-08T10:02:44Z</time>
      </trkpt>
      <trkpt lat="45.1833" lon="4.96933">
        <ele>391.81201171875</ele>
        <time>2009-11-08T10:02:48Z</time>
      </trkpt>
      <trkpt lat="45.1837" lon="4.96948">
        <ele>388.41900634766</ele>
        <time>2009-11-08T10:02:52Z</time>
      </trkpt>
      <trkpt lat="45.18422" lon="4.96954">
        <ele>387.01400756836</ele>
        <time>2009-11-08T10:02:57Z</time>
      </trkpt>
      <trkpt lat="45.1846" lon="4.9695">
        <ele>385.77700805664</ele>
        <time>2009-11-08T10:03:01Z</time>
      </trkpt>
      <trkpt lat="45.18502" lon="4.96928">
        <ele>384.63101196289</ele>
        <time>2009-11-08T10:03:06Z</time>
      </trkpt>
      <trkpt lat="45.18532" lon="4.96919">
        <ele>384.70098876953</ele>
        <time>2009-11-08T10:03:10Z</time>
      </trkpt>
      <trkpt lat="45.18552" lon="4.96927">
        <ele>384.83898925781</ele>
        <time>2009-11-08T10:03:13Z</time>
      </trkpt>
      <trkpt lat="45.18587" lon="4.9695">
        <ele>387.04901123047</ele>
        <time>2009-11-08T10:03:19Z</time>
      </trkpt>
      <trkpt lat="45.18607" lon="4.96963">
        <ele>388.15100097656</ele>
        <time>2009-11-08T10:03:23Z</time>
      </trkpt>
      <trkpt lat="45.18608" lon="4.96964">
        <ele>388.75100708008</ele>
        <time>2009-11-08T10:03:28Z</time>
      </trkpt>
      <trkpt lat="45.18658" lon="4.96989">
        <ele>389.10998535156</ele>
        <time>2009-11-08T10:03:33Z</time>
      </trkpt>
      <trkpt lat="45.18686" lon="4.97024">
        <ele>389.14700317383</ele>
        <time>2009-11-08T10:03:41Z</time>
      </trkpt>
      <trkpt lat="45.18708" lon="4.97052">
        <ele>388.96099853516</ele>
        <time>2009-11-08T10:03:43Z</time>
      </trkpt>
      <trkpt lat="45.18738" lon="4.9708">
        <ele>388.34201049805</ele>
        <time>2009-11-08T10:03:48Z</time>
      </trkpt>
      <trkpt lat="45.18768" lon="4.97088">
        <ele>388.47799682617</ele>
        <time>2009-11-08T10:03:52Z</time>
      </trkpt>
      <trkpt lat="45.1878" lon="4.97082">
        <ele>388.80599975586</ele>
        <time>2009-11-08T10:03:54Z</time>
      </trkpt>
      <trkpt lat="45.18797" lon="4.97069">
        <ele>390.13800048828</ele>
        <time>2009-11-08T10:03:57Z</time>
      </trkpt>
      <trkpt lat="45.18827" lon="4.97047">
        <ele>391.66400146484</ele>
        <time>2009-11-08T10:04:04Z</time>
      </trkpt>
      <trkpt lat="45.18855" lon="4.97026">
        <ele>392.84799194336</ele>
        <time>2009-11-08T10:04:11Z</time>
      </trkpt>
      <trkpt lat="45.18886" lon="4.97018">
        <ele>393.73001098633</ele>
        <time>2009-11-08T10:04:18Z</time>
      </trkpt>
      <trkpt lat="45.1893" lon="4.97011">
        <ele>394.20901489258</ele>
        <time>2009-11-08T10:04:27Z</time>
      </trkpt>
      <trkpt lat="45.18941" lon="4.97011">
        <ele>394.06201171875</ele>
        <time>2009-11-08T10:04:29Z</time>
      </trkpt>
      <trkpt lat="45.18975" lon="4.97019">
        <ele>391.64999389648</ele>
        <time>2009-11-08T10:04:34Z</time>
      </trkpt>
      <trkpt lat="45.18982" lon="4.97023">
        <ele>391.34698486328</ele>
        <time>2009-11-08T10:04:35Z</time>
      </trkpt>
      <trkpt lat="45.19019" lon="4.97047">
        <ele>389.24700927734</ele>
        <time>2009-11-08T10:04:40Z</time>
      </trkpt>
      <trkpt lat="45.19052" lon="4.97058">
        <ele>386.99200439453</ele>
        <time>2009-11-08T10:04:44Z</time>
      </trkpt>
      <trkpt lat="45.19096" lon="4.97045">
        <ele>384.01501464844</ele>
        <time>2009-11-08T10:04:49Z</time>
      </trkpt>
      <trkpt lat="45.19105" lon="4.97042">
        <ele>384.0530090332</ele>
        <time>2009-11-08T10:04:50Z</time>
      </trkpt>
      <trkpt lat="45.19139" lon="4.9704">
        <ele>383.26800537109</ele>
        <time>2009-11-08T10:04:54Z</time>
      </trkpt>
      <trkpt lat="45.1916" lon="4.97058">
        <ele>382.64099121094</ele>
        <time>2009-11-08T10:04:57Z</time>
      </trkpt>
      <trkpt lat="45.19187" lon="4.97085">
        <ele>382.22601318359</ele>
        <time>2009-11-08T10:05:01Z</time>
      </trkpt>
      <trkpt lat="45.19215" lon="4.97102">
        <ele>382.50500488281</ele>
        <time>2009-11-08T10:05:05Z</time>
      </trkpt>
      <trkpt lat="45.19249" lon="4.97109">
        <ele>383.20098876953</ele>
        <time>2009-11-08T10:05:10Z</time>
      </trkpt>
      <trkpt lat="45.19282" lon="4.97102">
        <ele>383.98098754883</ele>
        <time>2009-11-08T10:05:16Z</time>
      </trkpt>
      <trkpt lat="45.19297" lon="4.97098">
        <ele>383.43499755859</ele>
        <time>2009-11-08T10:05:19Z</time>
      </trkpt>
      <trkpt lat="45.19318" lon="4.97091">
        <ele>381.18099975586</ele>
        <time>2009-11-08T10:05:22Z</time>
      </trkpt>
      <trkpt lat="45.19326" lon="4.97089">
        <ele>380.18301391602</ele>
        <time>2009-11-08T10:05:23Z</time>
      </trkpt>
      <trkpt lat="45.19361" lon="4.97068">
        <ele>376.81298828125</ele>
        <time>2009-11-08T10:05:27Z</time>
      </trkpt>
      <trkpt lat="45.19395" lon="4.9705">
        <ele>373.37399291992</ele>
        <time>2009-11-08T10:05:31Z</time>
      </trkpt>
      <trkpt lat="45.19412" lon="4.97045">
        <ele>372.7200012207</ele>
        <time>2009-11-08T10:05:33Z</time>
      </trkpt>
      <trkpt lat="45.19447" lon="4.97035">
        <ele>372.45700073242</ele>
        <time>2009-11-08T10:05:37Z</time>
      </trkpt>
      <trkpt lat="45.19481" lon="4.97026">
        <ele>373.20498657227</ele>
        <time>2009-11-08T10:05:42Z</time>
      </trkpt>
      <trkpt lat="45.19505" lon="4.9702">
        <ele>372.58401489258</ele>
        <time>2009-11-08T10:05:47Z</time>
      </trkpt>
      <trkpt lat="45.19526" lon="4.97017">
        <ele>371.03201293945</ele>
        <time>2009-11-08T10:05:53Z</time>
      </trkpt>
      <trkpt lat="45.19531" lon="4.97016">
        <ele>370.48199462891</ele>
        <time>2009-11-08T10:05:54Z</time>
      </trkpt>
      <trkpt lat="45.19558" lon="4.97013">
        <ele>368.13800048828</ele>
        <time>2009-11-08T10:05:59Z</time>
      </trkpt>
      <trkpt lat="45.19586" lon="4.97009">
        <ele>365.18099975586</ele>
        <time>2009-11-08T10:06:04Z</time>
      </trkpt>
      <trkpt lat="45.19603" lon="4.97007">
        <ele>363.74899291992</ele>
        <time>2009-11-08T10:06:07Z</time>
      </trkpt>
      <trkpt lat="45.19607" lon="4.97006">
        <ele>363.14498901367</ele>
        <time>2009-11-08T10:06:08Z</time>
      </trkpt>
      <trkpt lat="45.19625" lon="4.97003">
        <ele>363.04501342773</ele>
        <time>2009-11-08T10:06:12Z</time>
      </trkpt>
      <trkpt lat="45.19631" lon="4.96982">
        <ele>363.82998657227</ele>
        <time>2009-11-08T10:06:15Z</time>
      </trkpt>
      <trkpt lat="45.19635" lon="4.96966">
        <ele>363.5</ele>
        <time>2009-11-08T10:06:18Z</time>
      </trkpt>
      <trkpt lat="45.1964" lon="4.96945">
        <ele>363.29800415039</ele>
        <time>2009-11-08T10:06:22Z</time>
      </trkpt>
      <trkpt lat="45.19644" lon="4.96933">
        <ele>362.88800048828</ele>
        <time>2009-11-08T10:06:25Z</time>
      </trkpt>
      <trkpt lat="45.19646" lon="4.96923">
        <ele>362.54800415039</ele>
        <time>2009-11-08T10:06:30Z</time>
      </trkpt>
      <trkpt lat="45.19647" lon="4.96921">
        <ele>362.57800292969</ele>
        <time>2009-11-08T10:06:33Z</time>
      </trkpt>
      <trkpt lat="45.19647" lon="4.96921">
        <ele>362.79901123047</ele>
        <time>2009-11-08T10:06:36Z</time>
      </trkpt>
      <trkpt lat="45.19625" lon="4.96921">
        <ele>364.08801269531</ele>
        <time>2009-11-08T10:06:44Z</time>
      </trkpt>
      <trkpt lat="45.19623" lon="4.96921">
        <ele>363.22500610352</ele>
        <time>2009-11-08T10:06:46Z</time>
      </trkpt>
      <trkpt lat="45.19628" lon="4.96921">
        <ele>363.55200195312</ele>
        <time>2009-11-08T10:06:56Z</time>
      </trkpt>
      <trkpt lat="45.19635" lon="4.96921">
        <ele>363.0830078125</ele>
        <time>2009-11-08T10:06:59Z</time>
      </trkpt>
      <trkpt lat="45.19647" lon="4.96921">
        <ele>362.99899291992</ele>
        <time>2009-11-08T10:07:03Z</time>
      </trkpt>
      <trkpt lat="45.19635" lon="4.96967">
        <ele>363.47900390625</ele>
        <time>2009-11-08T10:07:08Z</time>
      </trkpt>
      <trkpt lat="45.19627" lon="4.96994">
        <ele>363.05999755859</ele>
        <time>2009-11-08T10:07:13Z</time>
      </trkpt>
      <trkpt lat="45.19625" lon="4.97003">
        <ele>363.29400634766</ele>
        <time>2009-11-08T10:07:17Z</time>
      </trkpt>
      <trkpt lat="45.19596" lon="4.97008">
        <ele>363.99499511719</ele>
        <time>2009-11-08T10:07:21Z</time>
      </trkpt>
      <trkpt lat="45.19595" lon="4.97008">
        <ele>364.23098754883</ele>
        <time>2009-11-08T10:07:22Z</time>
      </trkpt>
      <trkpt lat="45.196" lon="4.97014">
        <ele>363.56698608398</ele>
        <time>2009-11-08T10:07:24Z</time>
      </trkpt>
      <trkpt lat="45.19604" lon="4.97007">
        <ele>362.79000854492</ele>
        <time>2009-11-08T10:07:28Z</time>
      </trkpt>
      <trkpt lat="45.19604" lon="4.97007">
        <ele>363.22100830078</ele>
        <time>2009-11-08T10:07:31Z</time>
      </trkpt>
      <trkpt lat="45.19604" lon="4.97007">
        <ele>363.51000976562</ele>
        <time>2009-11-08T10:07:32Z</time>
      </trkpt>
      <trkpt lat="45.1964" lon="4.96948">
        <ele>363.22698974609</ele>
        <time>2009-11-08T10:07:39Z</time>
      </trkpt>
      <trkpt lat="45.19645" lon="4.96926">
        <ele>363.02200317383</ele>
        <time>2009-11-08T10:07:43Z</time>
      </trkpt>
      <trkpt lat="45.19647" lon="4.96921">
        <ele>363.00698852539</ele>
        <time>2009-11-08T10:07:46Z</time>
      </trkpt>
      <trkpt lat="45.19678" lon="4.96916">
        <ele>363.78500366211</ele>
        <time>2009-11-08T10:07:51Z</time>
      </trkpt>
      <trkpt lat="45.19687" lon="4.96914">
        <ele>363.89199829102</ele>
        <time>2009-11-08T10:07:53Z</time>
      </trkpt>
      <trkpt lat="45.19706" lon="4.96916">
        <ele>363.53298950195</ele>
        <time>2009-11-08T10:07:58Z</time>
      </trkpt>
      <trkpt lat="45.19711" lon="4.96918">
        <ele>363.33700561523</ele>
        <time>2009-11-08T10:07:59Z</time>
      </trkpt>
      <trkpt lat="45.19738" lon="4.96929">
        <ele>361.05599975586</ele>
        <time>2009-11-08T10:08:04Z</time>
      </trkpt>
      <trkpt lat="45.19763" lon="4.96944">
        <ele>358.76800537109</ele>
        <time>2009-11-08T10:08:08Z</time>
      </trkpt>
      <trkpt lat="45.19773" lon="4.96951">
        <ele>357.00698852539</ele>
        <time>2009-11-08T10:08:12Z</time>
      </trkpt>
      <trkpt lat="45.19763" lon="4.96969">
        <ele>357.16400146484</ele>
        <time>2009-11-08T10:08:16Z</time>
      </trkpt>
      <trkpt lat="45.19757" lon="4.96972">
        <ele>357.18899536133</ele>
        <time>2009-11-08T10:08:19Z</time>
      </trkpt>
      <trkpt lat="45.19769" lon="4.96949">
        <ele>357.03601074219</ele>
        <time>2009-11-08T10:08:22Z</time>
      </trkpt>
      <trkpt lat="45.19769" lon="4.96967">
        <ele>356.80200195312</ele>
        <time>2009-11-08T10:08:26Z</time>
      </trkpt>
      <trkpt lat="45.1979" lon="4.96955">
        <ele>356.0419921875</ele>
        <time>2009-11-08T10:08:31Z</time>
      </trkpt>
      <trkpt lat="45.19802" lon="4.96947">
        <ele>355.75399780273</ele>
        <time>2009-11-08T10:08:34Z</time>
      </trkpt>
      <trkpt lat="45.19823" lon="4.96934">
        <ele>355.06399536133</ele>
        <time>2009-11-08T10:08:39Z</time>
      </trkpt>
      <trkpt lat="45.19828" lon="4.96931">
        <ele>355.08801269531</ele>
        <time>2009-11-08T10:08:40Z</time>
      </trkpt>
      <trkpt lat="45.19851" lon="4.96908">
        <ele>353.26300048828</ele>
        <time>2009-11-08T10:08:45Z</time>
      </trkpt>
      <trkpt lat="45.19854" lon="4.96893">
        <ele>352.58898925781</ele>
        <time>2009-11-08T10:08:47Z</time>
      </trkpt>
      <trkpt lat="45.19855" lon="4.96866">
        <ele>351.5539855957</ele>
        <time>2009-11-08T10:08:50Z</time>
      </trkpt>
      <trkpt lat="45.19853" lon="4.96827">
        <ele>350.11099243164</ele>
        <time>2009-11-08T10:08:54Z</time>
      </trkpt>
      <trkpt lat="45.19839" lon="4.96803">
        <ele>348.75299072266</ele>
        <time>2009-11-08T10:08:57Z</time>
      </trkpt>
      <trkpt lat="45.19824" lon="4.96796">
        <ele>348.49499511719</ele>
        <time>2009-11-08T10:08:59Z</time>
      </trkpt>
      <trkpt lat="45.19774" lon="4.96776">
        <ele>345.83401489258</ele>
        <time>2009-11-08T10:09:05Z</time>
      </trkpt>
      <trkpt lat="45.19753" lon="4.96772">
        <ele>344.7380065918</ele>
        <time>2009-11-08T10:09:07Z</time>
      </trkpt>
      <trkpt lat="45.19703" lon="4.96762">
        <ele>341.74301147461</ele>
        <time>2009-11-08T10:09:12Z</time>
      </trkpt>
      <trkpt lat="45.19683" lon="4.96758">
        <ele>340.32000732422</ele>
        <time>2009-11-08T10:09:14Z</time>
      </trkpt>
      <trkpt lat="45.19642" lon="4.96757">
        <ele>340.31900024414</ele>
        <time>2009-11-08T10:09:18Z</time>
      </trkpt>
      <trkpt lat="45.19598" lon="4.9678">
        <ele>339.7380065918</ele>
        <time>2009-11-08T10:09:23Z</time>
      </trkpt>
      <trkpt lat="45.19577" lon="4.96783">
        <ele>338.59100341797</ele>
        <time>2009-11-08T10:09:26Z</time>
      </trkpt>
      <trkpt lat="45.19574" lon="4.96775">
        <ele>337.92300415039</ele>
        <time>2009-11-08T10:09:27Z</time>
      </trkpt>
      <trkpt lat="45.19552" lon="4.96712">
        <ele>334.5830078125</ele>
        <time>2009-11-08T10:09:33Z</time>
      </trkpt>
      <trkpt lat="45.19544" lon="4.96689">
        <ele>333.94299316406</ele>
        <time>2009-11-08T10:09:35Z</time>
      </trkpt>
      <trkpt lat="45.19541" lon="4.96653">
        <ele>331.9880065918</ele>
        <time>2009-11-08T10:09:38Z</time>
      </trkpt>
      <trkpt lat="45.19543" lon="4.96626">
        <ele>331.22500610352</ele>
        <time>2009-11-08T10:09:41Z</time>
      </trkpt>
      <trkpt lat="45.19554" lon="4.96622">
        <ele>330.11401367188</ele>
        <time>2009-11-08T10:09:44Z</time>
      </trkpt>
      <trkpt lat="45.19572" lon="4.96625">
        <ele>328.60800170898</ele>
        <time>2009-11-08T10:09:47Z</time>
      </trkpt>
      <trkpt lat="45.196" lon="4.96629">
        <ele>326.76901245117</ele>
        <time>2009-11-08T10:09:51Z</time>
      </trkpt>
      <trkpt lat="45.19642" lon="4.96615">
        <ele>322.51800537109</ele>
        <time>2009-11-08T10:09:56Z</time>
      </trkpt>
      <trkpt lat="45.19661" lon="4.96605">
        <ele>320.60000610352</ele>
        <time>2009-11-08T10:09:58Z</time>
      </trkpt>
      <trkpt lat="45.19703" lon="4.96596">
        <ele>317.27801513672</ele>
        <time>2009-11-08T10:10:02Z</time>
      </trkpt>
      <trkpt lat="45.1976" lon="4.96598">
        <ele>312.31900024414</ele>
        <time>2009-11-08T10:10:07Z</time>
      </trkpt>
      <trkpt lat="45.19806" lon="4.96597">
        <ele>308.75299072266</ele>
        <time>2009-11-08T10:10:11Z</time>
      </trkpt>
      <trkpt lat="45.19828" lon="4.96591">
        <ele>307.39001464844</ele>
        <time>2009-11-08T10:10:13Z</time>
      </trkpt>
      <trkpt lat="45.19873" lon="4.96583">
        <ele>305.39498901367</ele>
        <time>2009-11-08T10:10:17Z</time>
      </trkpt>
      <trkpt lat="45.19895" lon="4.96579">
        <ele>303.99499511719</ele>
        <time>2009-11-08T10:10:19Z</time>
      </trkpt>
      <trkpt lat="45.19927" lon="4.96574">
        <ele>302.72799682617</ele>
        <time>2009-11-08T10:10:22Z</time>
      </trkpt>
      <trkpt lat="45.19948" lon="4.96571">
        <ele>301.97100830078</ele>
        <time>2009-11-08T10:10:24Z</time>
      </trkpt>
      <trkpt lat="45.19987" lon="4.96579">
        <ele>300.61499023438</ele>
        <time>2009-11-08T10:10:28Z</time>
      </trkpt>
      <trkpt lat="45.20015" lon="4.96588">
        <ele>299.50698852539</ele>
        <time>2009-11-08T10:10:31Z</time>
      </trkpt>
      <trkpt lat="45.20057" lon="4.96595">
        <ele>299.78900146484</ele>
        <time>2009-11-08T10:10:36Z</time>
      </trkpt>
      <trkpt lat="45.20108" lon="4.96595">
        <ele>301.89001464844</ele>
        <time>2009-11-08T10:10:43Z</time>
      </trkpt>
      <trkpt lat="45.20123" lon="4.96595">
        <ele>302.02099609375</ele>
        <time>2009-11-08T10:10:46Z</time>
      </trkpt>
      <trkpt lat="45.20123" lon="4.96595">
        <ele>302.80200195312</ele>
        <time>2009-11-08T10:10:48Z</time>
      </trkpt>
      <trkpt lat="45.20176" lon="4.9658">
        <ele>301.77600097656</ele>
        <time>2009-11-08T10:10:53Z</time>
      </trkpt>
      <trkpt lat="45.20224" lon="4.96575">
        <ele>301.77200317383</ele>
        <time>2009-11-08T10:10:59Z</time>
      </trkpt>
      <trkpt lat="45.20235" lon="4.96573">
        <ele>301.88598632812</ele>
        <time>2009-11-08T10:11:04Z</time>
      </trkpt>
      <trkpt lat="45.2035" lon="4.96573">
        <ele>301.39599609375</ele>
        <time>2009-11-08T10:11:16Z</time>
      </trkpt>
      <trkpt lat="45.20409" lon="4.96573">
        <ele>302.19000244141</ele>
        <time>2009-11-08T10:11:24Z</time>
      </trkpt>
      <trkpt lat="45.20452" lon="4.96573">
        <ele>303.25399780273</ele>
        <time>2009-11-08T10:11:31Z</time>
      </trkpt>
      <trkpt lat="45.20502" lon="4.96573">
        <ele>304.57901000977</ele>
        <time>2009-11-08T10:11:40Z</time>
      </trkpt>
      <trkpt lat="45.20535" lon="4.96573">
        <ele>303.73599243164</ele>
        <time>2009-11-08T10:11:46Z</time>
      </trkpt>
      <trkpt lat="45.20546" lon="4.96573">
        <ele>302.9169921875</ele>
        <time>2009-11-08T10:11:48Z</time>
      </trkpt>
      <trkpt lat="45.20573" lon="4.96562">
        <ele>300.13800048828</ele>
        <time>2009-11-08T10:11:53Z</time>
      </trkpt>
      <trkpt lat="45.20592" lon="4.96566">
        <ele>296.18099975586</ele>
        <time>2009-11-08T10:11:57Z</time>
      </trkpt>
      <trkpt lat="45.20599" lon="4.96583">
        <ele>294.10699462891</ele>
        <time>2009-11-08T10:12:00Z</time>
      </trkpt>
      <trkpt lat="45.20604" lon="4.966">
        <ele>291.60400390625</ele>
        <time>2009-11-08T10:12:03Z</time>
      </trkpt>
      <trkpt lat="45.2062" lon="4.96628">
        <ele>286.69500732422</ele>
        <time>2009-11-08T10:12:08Z</time>
      </trkpt>
      <trkpt lat="45.20633" lon="4.96632">
        <ele>283.42001342773</ele>
        <time>2009-11-08T10:12:11Z</time>
      </trkpt>
      <trkpt lat="45.20651" lon="4.96629">
        <ele>280.57299804688</ele>
        <time>2009-11-08T10:12:14Z</time>
      </trkpt>
      <trkpt lat="45.20672" lon="4.96626">
        <ele>278.08801269531</ele>
        <time>2009-11-08T10:12:17Z</time>
      </trkpt>
      <trkpt lat="45.20717" lon="4.96637">
        <ele>271.81100463867</ele>
        <time>2009-11-08T10:12:22Z</time>
      </trkpt>
      <trkpt lat="45.20756" lon="4.96649">
        <ele>267.52099609375</ele>
        <time>2009-11-08T10:12:26Z</time>
      </trkpt>
      <trkpt lat="45.20789" lon="4.96658">
        <ele>263.98001098633</ele>
        <time>2009-11-08T10:12:30Z</time>
      </trkpt>
      <trkpt lat="45.20796" lon="4.9666">
        <ele>263.71398925781</ele>
        <time>2009-11-08T10:12:31Z</time>
      </trkpt>
      <trkpt lat="45.20832" lon="4.96669">
        <ele>260.75201416016</ele>
        <time>2009-11-08T10:12:35Z</time>
      </trkpt>
      <trkpt lat="45.20841" lon="4.96671">
        <ele>260.01501464844</ele>
        <time>2009-11-08T10:12:36Z</time>
      </trkpt>
      <trkpt lat="45.20889" lon="4.96668">
        <ele>257.31600952148</ele>
        <time>2009-11-08T10:12:41Z</time>
      </trkpt>
      <trkpt lat="45.20909" lon="4.96668">
        <ele>257.20700073242</ele>
        <time>2009-11-08T10:12:45Z</time>
      </trkpt>
      <trkpt lat="45.20916" lon="4.96687">
        <ele>257.57400512695</ele>
        <time>2009-11-08T10:12:48Z</time>
      </trkpt>
      <trkpt lat="45.20918" lon="4.96692">
        <ele>257.5</ele>
        <time>2009-11-08T10:12:49Z</time>
      </trkpt>
      <trkpt lat="45.2094" lon="4.96721">
        <ele>257.93798828125</ele>
        <time>2009-11-08T10:12:55Z</time>
      </trkpt>
      <trkpt lat="45.20945" lon="4.96724">
        <ele>258.0119934082</ele>
        <time>2009-11-08T10:12:56Z</time>
      </trkpt>
      <trkpt lat="45.20994" lon="4.9672">
        <ele>259.21701049805</ele>
        <time>2009-11-08T10:13:03Z</time>
      </trkpt>
      <trkpt lat="45.21007" lon="4.96719">
        <ele>259.64401245117</ele>
        <time>2009-11-08T10:13:05Z</time>
      </trkpt>
      <trkpt lat="45.21024" lon="4.96711">
        <ele>261.01501464844</ele>
        <time>2009-11-08T10:13:09Z</time>
      </trkpt>
      <trkpt lat="45.2104" lon="4.96651">
        <ele>260.71600341797</ele>
        <time>2009-11-08T10:13:16Z</time>
      </trkpt>
      <trkpt lat="45.21047" lon="4.96623">
        <ele>261.05999755859</ele>
        <time>2009-11-08T10:13:19Z</time>
      </trkpt>
      <trkpt lat="45.21068" lon="4.96548">
        <ele>261.25500488281</ele>
        <time>2009-11-08T10:13:27Z</time>
      </trkpt>
      <trkpt lat="45.21084" lon="4.96492">
        <ele>260.99899291992</ele>
        <time>2009-11-08T10:13:34Z</time>
      </trkpt>
      <trkpt lat="45.21089" lon="4.96421">
        <ele>261.35000610352</ele>
        <time>2009-11-08T10:13:40Z</time>
      </trkpt>
      <trkpt lat="45.21089" lon="4.96389">
        <ele>259.90301513672</ele>
        <time>2009-11-08T10:13:45Z</time>
      </trkpt>
      <trkpt lat="45.21103" lon="4.96285">
        <ele>258.73498535156</ele>
        <time>2009-11-08T10:13:52Z</time>
      </trkpt>
      <trkpt lat="45.21114" lon="4.96201">
        <ele>258.57400512695</ele>
        <time>2009-11-08T10:13:59Z</time>
      </trkpt>
      <trkpt lat="45.21117" lon="4.96148">
        <ele>259.13400268555</ele>
        <time>2009-11-08T10:14:04Z</time>
      </trkpt>
      <trkpt lat="45.21124" lon="4.96085">
        <ele>259.27398681641</ele>
        <time>2009-11-08T10:14:11Z</time>
      </trkpt>
      <trkpt lat="45.21132" lon="4.9606">
        <ele>259.34600830078</ele>
        <time>2009-11-08T10:14:14Z</time>
      </trkpt>
      <trkpt lat="45.21162" lon="4.96007">
        <ele>259.61499023438</ele>
        <time>2009-11-08T10:14:21Z</time>
      </trkpt>
      <trkpt lat="45.21166" lon="4.96001">
        <ele>259.48599243164</ele>
        <time>2009-11-08T10:14:22Z</time>
      </trkpt>
      <trkpt lat="45.21174" lon="4.95989">
        <ele>259.48300170898</ele>
        <time>2009-11-08T10:14:24Z</time>
      </trkpt>
      <trkpt lat="45.21199" lon="4.95951">
        <ele>258.51699829102</ele>
        <time>2009-11-08T10:14:30Z</time>
      </trkpt>
      <trkpt lat="45.21233" lon="4.95897">
        <ele>257.33700561523</ele>
        <time>2009-11-08T10:14:37Z</time>
      </trkpt>
      <trkpt lat="45.2127" lon="4.95839">
        <ele>256.05700683594</ele>
        <time>2009-11-08T10:14:44Z</time>
      </trkpt>
      <trkpt lat="45.21301" lon="4.95787">
        <ele>256.32501220703</ele>
        <time>2009-11-08T10:14:50Z</time>
      </trkpt>
      <trkpt lat="45.21329" lon="4.9573">
        <ele>255.10400390625</ele>
        <time>2009-11-08T10:14:56Z</time>
      </trkpt>
      <trkpt lat="45.21354" lon="4.95669">
        <ele>255.07400512695</ele>
        <time>2009-11-08T10:15:02Z</time>
      </trkpt>
      <trkpt lat="45.21366" lon="4.95606">
        <ele>253.85099792481</ele>
        <time>2009-11-08T10:15:08Z</time>
      </trkpt>
      <trkpt lat="45.21379" lon="4.95534">
        <ele>253.55499267578</ele>
        <time>2009-11-08T10:15:15Z</time>
      </trkpt>
      <trkpt lat="45.21384" lon="4.9551">
        <ele>254.58700561523</ele>
        <time>2009-11-08T10:15:18Z</time>
      </trkpt>
      <trkpt lat="45.21387" lon="4.95497">
        <ele>255.45100402832</ele>
        <time>2009-11-08T10:15:20Z</time>
      </trkpt>
      <trkpt lat="45.2139" lon="4.95479">
        <ele>256.01400756836</ele>
        <time>2009-11-08T10:15:23Z</time>
      </trkpt>
      <trkpt lat="45.21394" lon="4.95462">
        <ele>256.13000488281</ele>
        <time>2009-11-08T10:15:27Z</time>
      </trkpt>
      <trkpt lat="45.21394" lon="4.95462">
        <ele>256.36599731445</ele>
        <time>2009-11-08T10:15:32Z</time>
      </trkpt>
      <trkpt lat="45.21394" lon="4.95462">
        <ele>258.00601196289</ele>
        <time>2009-11-08T10:15:40Z</time>
      </trkpt>
      <trkpt lat="45.21394" lon="4.95462">
        <ele>258.71499633789</ele>
        <time>2009-11-08T10:15:43Z</time>
      </trkpt>
      <trkpt lat="45.21438" lon="4.95329">
        <ele>258.20999145508</ele>
        <time>2009-11-08T10:15:49Z</time>
      </trkpt>
      <trkpt lat="45.21451" lon="4.95298">
        <ele>255.60000610352</ele>
        <time>2009-11-08T10:15:54Z</time>
      </trkpt>
      <trkpt lat="45.21465" lon="4.95267">
        <ele>252.62199401856</ele>
        <time>2009-11-08T10:16:00Z</time>
      </trkpt>
      <trkpt lat="45.21474" lon="4.95247">
        <ele>250.74000549316</ele>
        <time>2009-11-08T10:16:04Z</time>
      </trkpt>
      <trkpt lat="45.21492" lon="4.95221">
        <ele>247.84599304199</ele>
        <time>2009-11-08T10:16:09Z</time>
      </trkpt>
      <trkpt lat="45.21503" lon="4.95206">
        <ele>246.17300415039</ele>
        <time>2009-11-08T10:16:13Z</time>
      </trkpt>
      <trkpt lat="45.21519" lon="4.95193">
        <ele>243.70899963379</ele>
        <time>2009-11-08T10:16:17Z</time>
      </trkpt>
      <trkpt lat="45.21524" lon="4.95189">
        <ele>243.52600097656</ele>
        <time>2009-11-08T10:16:18Z</time>
      </trkpt>
      <trkpt lat="45.21542" lon="4.95174">
        <ele>242.20199584961</ele>
        <time>2009-11-08T10:16:22Z</time>
      </trkpt>
      <trkpt lat="45.21554" lon="4.95162">
        <ele>240.87100219727</ele>
        <time>2009-11-08T10:16:27Z</time>
      </trkpt>
      <trkpt lat="45.21567" lon="4.95147">
        <ele>239.66400146484</ele>
        <time>2009-11-08T10:16:31Z</time>
      </trkpt>
      <trkpt lat="45.21588" lon="4.95114">
        <ele>238.72500610352</ele>
        <time>2009-11-08T10:16:38Z</time>
      </trkpt>
      <trkpt lat="45.21595" lon="4.95102">
        <ele>237.84800720215</ele>
        <time>2009-11-08T10:16:43Z</time>
      </trkpt>
      <trkpt lat="45.216" lon="4.95091">
        <ele>237.15100097656</ele>
        <time>2009-11-08T10:16:50Z</time>
      </trkpt>
      <trkpt lat="45.216" lon="4.9509">
        <ele>237.10299682617</ele>
        <time>2009-11-08T10:16:52Z</time>
      </trkpt>
      <trkpt lat="45.21602" lon="4.95087">
        <ele>237.02699279785</ele>
        <time>2009-11-08T10:16:57Z</time>
      </trkpt>
      <trkpt lat="45.21611" lon="4.95077">
        <ele>237.0119934082</ele>
        <time>2009-11-08T10:17:02Z</time>
      </trkpt>
      <trkpt lat="45.21618" lon="4.95067">
        <ele>237.54499816894</ele>
        <time>2009-11-08T10:17:06Z</time>
      </trkpt>
      <trkpt lat="45.21629" lon="4.95059">
        <ele>238.28700256348</ele>
        <time>2009-11-08T10:17:10Z</time>
      </trkpt>
      <trkpt lat="45.21642" lon="4.95048">
        <ele>238.14199829102</ele>
        <time>2009-11-08T10:17:14Z</time>
      </trkpt>
      <trkpt lat="45.21665" lon="4.95013">
        <ele>237.77099609375</ele>
        <time>2009-11-08T10:17:21Z</time>
      </trkpt>
      <trkpt lat="45.21688" lon="4.94982">
        <ele>238.01699829102</ele>
        <time>2009-11-08T10:17:27Z</time>
      </trkpt>
      <trkpt lat="45.21727" lon="4.94925">
        <ele>239.01800537109</ele>
        <time>2009-11-08T10:17:37Z</time>
      </trkpt>
      <trkpt lat="45.21735" lon="4.94913">
        <ele>239.19900512695</ele>
        <time>2009-11-08T10:17:39Z</time>
      </trkpt>
      <trkpt lat="45.21805" lon="4.94848">
        <ele>240.31199645996</ele>
        <time>2009-11-08T10:17:47Z</time>
      </trkpt>
      <trkpt lat="45.21805" lon="4.94848">
        <ele>240.30999755859</ele>
        <time>2009-11-08T10:17:52Z</time>
      </trkpt>
      <trkpt lat="45.21805" lon="4.94848">
        <ele>241.47399902344</ele>
        <time>2009-11-08T10:17:57Z</time>
      </trkpt>
      <trkpt lat="45.21801" lon="4.9483">
        <ele>241.58200073242</ele>
        <time>2009-11-08T10:18:02Z</time>
      </trkpt>
      <trkpt lat="45.218" lon="4.94825">
        <ele>241.82899475098</ele>
        <time>2009-11-08T10:18:03Z</time>
      </trkpt>
      <trkpt lat="45.21796" lon="4.94807">
        <ele>241.97599792481</ele>
        <time>2009-11-08T10:18:06Z</time>
      </trkpt>
      <trkpt lat="45.21796" lon="4.94769">
        <ele>241.95700073242</ele>
        <time>2009-11-08T10:18:11Z</time>
      </trkpt>
      <trkpt lat="45.21803" lon="4.94725">
        <ele>241.94400024414</ele>
        <time>2009-11-08T10:18:17Z</time>
      </trkpt>
      <trkpt lat="45.21813" lon="4.94661">
        <ele>242.89399719238</ele>
        <time>2009-11-08T10:18:25Z</time>
      </trkpt>
      <trkpt lat="45.21814" lon="4.94652">
        <ele>243.1549987793</ele>
        <time>2009-11-08T10:18:26Z</time>
      </trkpt>
      <trkpt lat="45.21827" lon="4.94577">
        <ele>243.05599975586</ele>
        <time>2009-11-08T10:18:35Z</time>
      </trkpt>
      <trkpt lat="45.21839" lon="4.94501">
        <ele>243.78100585938</ele>
        <time>2009-11-08T10:18:44Z</time>
      </trkpt>
      <trkpt lat="45.21848" lon="4.94443">
        <ele>244.41299438477</ele>
        <time>2009-11-08T10:18:51Z</time>
      </trkpt>
      <trkpt lat="45.2186" lon="4.94368">
        <ele>243.38000488281</ele>
        <time>2009-11-08T10:19:00Z</time>
      </trkpt>
      <trkpt lat="45.21862" lon="4.94351">
        <ele>243.54100036621</ele>
        <time>2009-11-08T10:19:02Z</time>
      </trkpt>
      <trkpt lat="45.21868" lon="4.94332">
        <ele>244.18800354004</ele>
        <time>2009-11-08T10:19:06Z</time>
      </trkpt>
      <trkpt lat="45.21871" lon="4.94331">
        <ele>244.04800415039</ele>
        <time>2009-11-08T10:19:08Z</time>
      </trkpt>
      <trkpt lat="45.21869" lon="4.94317">
        <ele>244.06700134277</ele>
        <time>2009-11-08T10:19:12Z</time>
      </trkpt>
      <trkpt lat="45.21849" lon="4.94283">
        <ele>243.97200012207</ele>
        <time>2009-11-08T10:19:18Z</time>
      </trkpt>
      <trkpt lat="45.21814" lon="4.94239">
        <ele>243.87199401856</ele>
        <time>2009-11-08T10:19:25Z</time>
      </trkpt>
      <trkpt lat="45.21778" lon="4.94194">
        <ele>244.65299987793</ele>
        <time>2009-11-08T10:19:32Z</time>
      </trkpt>
      <trkpt lat="45.21738" lon="4.94143">
        <ele>245.4940032959</ele>
        <time>2009-11-08T10:19:40Z</time>
      </trkpt>
      <trkpt lat="45.21712" lon="4.94107">
        <ele>244.38499450684</ele>
        <time>2009-11-08T10:19:45Z</time>
      </trkpt>
      <trkpt lat="45.2167" lon="4.94041">
        <ele>241.94299316406</ele>
        <time>2009-11-08T10:19:52Z</time>
      </trkpt>
      <trkpt lat="45.2163" lon="4.93984">
        <ele>240.2380065918</ele>
        <time>2009-11-08T10:19:58Z</time>
      </trkpt>
      <trkpt lat="45.21577" lon="4.93915">
        <ele>238.88200378418</ele>
        <time>2009-11-08T10:20:05Z</time>
      </trkpt>
      <trkpt lat="45.21539" lon="4.9387">
        <ele>237.86399841309</ele>
        <time>2009-11-08T10:20:10Z</time>
      </trkpt>
      <trkpt lat="45.21481" lon="4.93822">
        <ele>236.96499633789</ele>
        <time>2009-11-08T10:20:17Z</time>
      </trkpt>
      <trkpt lat="45.21434" lon="4.93781">
        <ele>236.54600524902</ele>
        <time>2009-11-08T10:20:23Z</time>
      </trkpt>
      <trkpt lat="45.21384" lon="4.93725">
        <ele>236.18299865723</ele>
        <time>2009-11-08T10:20:30Z</time>
      </trkpt>
      <trkpt lat="45.21326" lon="4.93641">
        <ele>235.03500366211</ele>
        <time>2009-11-08T10:20:39Z</time>
      </trkpt>
      <trkpt lat="45.21281" lon="4.93579">
        <ele>235.375</ele>
        <time>2009-11-08T10:20:46Z</time>
      </trkpt>
      <trkpt lat="45.21242" lon="4.93524">
        <ele>236.32499694824</ele>
        <time>2009-11-08T10:20:53Z</time>
      </trkpt>
      <trkpt lat="45.21204" lon="4.93469">
        <ele>236.64999389648</ele>
        <time>2009-11-08T10:21:01Z</time>
      </trkpt>
      <trkpt lat="45.21167" lon="4.93412">
        <ele>236.07800292969</ele>
        <time>2009-11-08T10:21:09Z</time>
      </trkpt>
      <trkpt lat="45.21147" lon="4.93383">
        <ele>235.31399536133</ele>
        <time>2009-11-08T10:21:13Z</time>
      </trkpt>
      <trkpt lat="45.21136" lon="4.93368">
        <ele>234.70700073242</ele>
        <time>2009-11-08T10:21:16Z</time>
      </trkpt>
      <trkpt lat="45.21157" lon="4.93398">
        <ele>234.74200439453</ele>
        <time>2009-11-08T10:21:19Z</time>
      </trkpt>
      <trkpt lat="45.21144" lon="4.93379">
        <ele>234.83200073242</ele>
        <time>2009-11-08T10:21:21Z</time>
      </trkpt>
      <trkpt lat="45.21158" lon="4.93398">
        <ele>235.70700073242</ele>
        <time>2009-11-08T10:21:26Z</time>
      </trkpt>
      <trkpt lat="45.21184" lon="4.9339">
        <ele>236.22700500488</ele>
        <time>2009-11-08T10:21:31Z</time>
      </trkpt>
      <trkpt lat="45.21196" lon="4.93387">
        <ele>236.76100158691</ele>
        <time>2009-11-08T10:21:33Z</time>
      </trkpt>
      <trkpt lat="45.21232" lon="4.93381">
        <ele>238.21200561523</ele>
        <time>2009-11-08T10:21:39Z</time>
      </trkpt>
      <trkpt lat="45.21266" lon="4.93377">
        <ele>239.48699951172</ele>
        <time>2009-11-08T10:21:45Z</time>
      </trkpt>
      <trkpt lat="45.21308" lon="4.93363">
        <ele>240.30099487305</ele>
        <time>2009-11-08T10:21:53Z</time>
      </trkpt>
      <trkpt lat="45.21348" lon="4.93339">
        <ele>240.22399902344</ele>
        <time>2009-11-08T10:22:02Z</time>
      </trkpt>
      <trkpt lat="45.21355" lon="4.93333">
        <ele>241.65800476074</ele>
        <time>2009-11-08T10:22:06Z</time>
      </trkpt>
      <trkpt lat="45.21355" lon="4.93333">
        <ele>241.74099731445</ele>
        <time>2009-11-08T10:22:07Z</time>
      </trkpt>
      <trkpt lat="45.21355" lon="4.93333">
        <ele>243.62399291992</ele>
        <time>2009-11-08T10:22:14Z</time>
      </trkpt>
      <trkpt lat="45.2141" lon="4.93314">
        <ele>243.50900268555</ele>
        <time>2009-11-08T10:22:59Z</time>
      </trkpt>
      <trkpt lat="45.21355" lon="4.93333">
        <ele>244.26100158691</ele>
        <time>2009-11-08T10:23:04Z</time>
      </trkpt>
      <trkpt lat="45.21355" lon="4.93333">
        <ele>244.52400207519</ele>
        <time>2009-11-08T10:23:08Z</time>
      </trkpt>
      <trkpt lat="45.21355" lon="4.93333">
        <ele>245.02299499512</ele>
        <time>2009-11-08T10:23:12Z</time>
      </trkpt>
      <trkpt lat="45.21355" lon="4.93333">
        <ele>245.89599609375</ele>
        <time>2009-11-08T10:23:17Z</time>
      </trkpt>
      <trkpt lat="45.21471" lon="4.93281">
        <ele>247.07000732422</ele>
        <time>2009-11-08T10:23:24Z</time>
      </trkpt>
      <trkpt lat="45.21499" lon="4.93267">
        <ele>248.6609954834</ele>
        <time>2009-11-08T10:23:32Z</time>
      </trkpt>
      <trkpt lat="45.21525" lon="4.93254">
        <ele>249.54200744629</ele>
        <time>2009-11-08T10:23:39Z</time>
      </trkpt>
      <trkpt lat="45.21546" lon="4.93241">
        <ele>250.82499694824</ele>
        <time>2009-11-08T10:23:45Z</time>
      </trkpt>
      <trkpt lat="45.21564" lon="4.93225">
        <ele>252.10899353027</ele>
        <time>2009-11-08T10:23:51Z</time>
      </trkpt>
      <trkpt lat="45.21579" lon="4.93208">
        <ele>254.17500305176</ele>
        <time>2009-11-08T10:23:57Z</time>
      </trkpt>
      <trkpt lat="45.21587" lon="4.9319">
        <ele>254.3869934082</ele>
        <time>2009-11-08T10:24:02Z</time>
      </trkpt>
      <trkpt lat="45.21596" lon="4.93174">
        <ele>256.10400390625</ele>
        <time>2009-11-08T10:24:07Z</time>
      </trkpt>
      <trkpt lat="45.21599" lon="4.93166">
        <ele>256.83999633789</ele>
        <time>2009-11-08T10:24:09Z</time>
      </trkpt>
      <trkpt lat="45.21611" lon="4.93144">
        <ele>259.04699707031</ele>
        <time>2009-11-08T10:24:15Z</time>
      </trkpt>
      <trkpt lat="45.21624" lon="4.93145">
        <ele>260.21398925781</ele>
        <time>2009-11-08T10:24:19Z</time>
      </trkpt>
      <trkpt lat="45.21637" lon="4.93162">
        <ele>260.38800048828</ele>
        <time>2009-11-08T10:24:24Z</time>
      </trkpt>
      <trkpt lat="45.21646" lon="4.93173">
        <ele>259.66299438477</ele>
        <time>2009-11-08T10:24:27Z</time>
      </trkpt>
      <trkpt lat="45.2168" lon="4.93197">
        <ele>259.31201171875</ele>
        <time>2009-11-08T10:24:35Z</time>
      </trkpt>
      <trkpt lat="45.21714" lon="4.93222">
        <ele>259.04998779297</ele>
        <time>2009-11-08T10:24:42Z</time>
      </trkpt>
      <trkpt lat="45.21734" lon="4.9324">
        <ele>260.69000244141</ele>
        <time>2009-11-08T10:24:48Z</time>
      </trkpt>
      <trkpt lat="45.21755" lon="4.93261">
        <ele>262.98599243164</ele>
        <time>2009-11-08T10:24:56Z</time>
      </trkpt>
      <trkpt lat="45.21772" lon="4.93277">
        <ele>264.71200561523</ele>
        <time>2009-11-08T10:25:03Z</time>
      </trkpt>
      <trkpt lat="45.21791" lon="4.93289">
        <ele>266.75399780273</ele>
        <time>2009-11-08T10:25:10Z</time>
      </trkpt>
      <trkpt lat="45.21815" lon="4.93306">
        <ele>268.86999511719</ele>
        <time>2009-11-08T10:25:19Z</time>
      </trkpt>
      <trkpt lat="45.21835" lon="4.93308">
        <ele>270.93499755859</ele>
        <time>2009-11-08T10:25:27Z</time>
      </trkpt>
      <trkpt lat="45.21851" lon="4.93312">
        <ele>272.33999633789</ele>
        <time>2009-11-08T10:25:33Z</time>
      </trkpt>
      <trkpt lat="45.21867" lon="4.93316">
        <ele>273.57400512695</ele>
        <time>2009-11-08T10:25:39Z</time>
      </trkpt>
      <trkpt lat="45.2189" lon="4.93313">
        <ele>275.79400634766</ele>
        <time>2009-11-08T10:25:47Z</time>
      </trkpt>
      <trkpt lat="45.21906" lon="4.93312">
        <ele>277.44400024414</ele>
        <time>2009-11-08T10:25:53Z</time>
      </trkpt>
      <trkpt lat="45.21919" lon="4.9331">
        <ele>278.58499145508</ele>
        <time>2009-11-08T10:25:58Z</time>
      </trkpt>
      <trkpt lat="45.21933" lon="4.93308">
        <ele>280.14300537109</ele>
        <time>2009-11-08T10:26:04Z</time>
      </trkpt>
      <trkpt lat="45.21958" lon="4.93306">
        <ele>283.31698608398</ele>
        <time>2009-11-08T10:26:14Z</time>
      </trkpt>
      <trkpt lat="45.2196" lon="4.93305">
        <ele>283.56799316406</ele>
        <time>2009-11-08T10:26:15Z</time>
      </trkpt>
      <trkpt lat="45.21976" lon="4.93304">
        <ele>285.53799438477</ele>
        <time>2009-11-08T10:26:21Z</time>
      </trkpt>
      <trkpt lat="45.21985" lon="4.93303">
        <ele>287.10400390625</ele>
        <time>2009-11-08T10:26:24Z</time>
      </trkpt>
      <trkpt lat="45.21996" lon="4.93301">
        <ele>288.5539855957</ele>
        <time>2009-11-08T10:26:28Z</time>
      </trkpt>
      <trkpt lat="45.22015" lon="4.93299">
        <ele>291.61099243164</ele>
        <time>2009-11-08T10:26:35Z</time>
      </trkpt>
      <trkpt lat="45.22035" lon="4.93297">
        <ele>294.2200012207</ele>
        <time>2009-11-08T10:26:44Z</time>
      </trkpt>
      <trkpt lat="45.22049" lon="4.93295">
        <ele>296.28601074219</ele>
        <time>2009-11-08T10:26:50Z</time>
      </trkpt>
      <trkpt lat="45.22065" lon="4.93301">
        <ele>298.59899902344</ele>
        <time>2009-11-08T10:26:57Z</time>
      </trkpt>
      <trkpt lat="45.22076" lon="4.93313">
        <ele>299.58599853516</ele>
        <time>2009-11-08T10:27:03Z</time>
      </trkpt>
      <trkpt lat="45.2209" lon="4.93329">
        <ele>300.81500244141</ele>
        <time>2009-11-08T10:27:10Z</time>
      </trkpt>
      <trkpt lat="45.22107" lon="4.93347">
        <ele>302.76699829102</ele>
        <time>2009-11-08T10:27:18Z</time>
      </trkpt>
      <trkpt lat="45.22118" lon="4.93356">
        <ele>304.22299194336</ele>
        <time>2009-11-08T10:27:23Z</time>
      </trkpt>
      <trkpt lat="45.22131" lon="4.93365">
        <ele>306.23999023438</ele>
        <time>2009-11-08T10:27:29Z</time>
      </trkpt>
      <trkpt lat="45.2214" lon="4.93373">
        <ele>307.43200683594</ele>
        <time>2009-11-08T10:27:34Z</time>
      </trkpt>
      <trkpt lat="45.22156" lon="4.93384">
        <ele>308.84600830078</ele>
        <time>2009-11-08T10:27:41Z</time>
      </trkpt>
      <trkpt lat="45.22174" lon="4.93397">
        <ele>310.63400268555</ele>
        <time>2009-11-08T10:27:48Z</time>
      </trkpt>
      <trkpt lat="45.22189" lon="4.93407">
        <ele>311.30899047852</ele>
        <time>2009-11-08T10:27:54Z</time>
      </trkpt>
      <trkpt lat="45.2221" lon="4.93422">
        <ele>311.48001098633</ele>
        <time>2009-11-08T10:28:01Z</time>
      </trkpt>
      <trkpt lat="45.22242" lon="4.93444">
        <ele>312.4169921875</ele>
        <time>2009-11-08T10:28:10Z</time>
      </trkpt>
      <trkpt lat="45.22261" lon="4.93463">
        <ele>314.25</ele>
        <time>2009-11-08T10:28:17Z</time>
      </trkpt>
      <trkpt lat="45.22281" lon="4.93483">
        <ele>315.8219909668</ele>
        <time>2009-11-08T10:28:25Z</time>
      </trkpt>
      <trkpt lat="45.22304" lon="4.93506">
        <ele>317.54998779297</ele>
        <time>2009-11-08T10:28:34Z</time>
      </trkpt>
      <trkpt lat="45.22336" lon="4.93531">
        <ele>319.96499633789</ele>
        <time>2009-11-08T10:28:45Z</time>
      </trkpt>
      <trkpt lat="45.2236" lon="4.93544">
        <ele>321.3869934082</ele>
        <time>2009-11-08T10:28:53Z</time>
      </trkpt>
      <trkpt lat="45.2238" lon="4.93541">
        <ele>323.46398925781</ele>
        <time>2009-11-08T10:29:00Z</time>
      </trkpt>
      <trkpt lat="45.22405" lon="4.93535">
        <ele>325.29000854492</ele>
        <time>2009-11-08T10:29:09Z</time>
      </trkpt>
      <trkpt lat="45.22427" lon="4.93529">
        <ele>327.30200195312</ele>
        <time>2009-11-08T10:29:17Z</time>
      </trkpt>
      <trkpt lat="45.22447" lon="4.93523">
        <ele>329.27398681641</ele>
        <time>2009-11-08T10:29:25Z</time>
      </trkpt>
      <trkpt lat="45.22464" lon="4.93518">
        <ele>331.04000854492</ele>
        <time>2009-11-08T10:29:32Z</time>
      </trkpt>
      <trkpt lat="45.22478" lon="4.93512">
        <ele>332.98001098633</ele>
        <time>2009-11-08T10:29:38Z</time>
      </trkpt>
      <trkpt lat="45.22495" lon="4.93503">
        <ele>334.67199707031</ele>
        <time>2009-11-08T10:29:45Z</time>
      </trkpt>
      <trkpt lat="45.22514" lon="4.93488">
        <ele>336.87600708008</ele>
        <time>2009-11-08T10:29:54Z</time>
      </trkpt>
      <trkpt lat="45.22527" lon="4.93477">
        <ele>339.08700561523</ele>
        <time>2009-11-08T10:30:01Z</time>
      </trkpt>
      <trkpt lat="45.22546" lon="4.93467">
        <ele>341.68200683594</ele>
        <time>2009-11-08T10:30:10Z</time>
      </trkpt>
      <trkpt lat="45.22562" lon="4.9346">
        <ele>344.32699584961</ele>
        <time>2009-11-08T10:30:18Z</time>
      </trkpt>
      <trkpt lat="45.22575" lon="4.93454">
        <ele>345.82901000977</ele>
        <time>2009-11-08T10:30:24Z</time>
      </trkpt>
      <trkpt lat="45.2259" lon="4.93446">
        <ele>347.89700317383</ele>
        <time>2009-11-08T10:30:31Z</time>
      </trkpt>
      <trkpt lat="45.2261" lon="4.93436">
        <ele>350.38598632812</ele>
        <time>2009-11-08T10:30:40Z</time>
      </trkpt>
      <trkpt lat="45.22626" lon="4.93429">
        <ele>352.48001098633</ele>
        <time>2009-11-08T10:30:47Z</time>
      </trkpt>
      <trkpt lat="45.22641" lon="4.93422">
        <ele>354.73300170898</ele>
        <time>2009-11-08T10:30:54Z</time>
      </trkpt>
      <trkpt lat="45.22657" lon="4.93414">
        <ele>356.52301025391</ele>
        <time>2009-11-08T10:31:01Z</time>
      </trkpt>
      <trkpt lat="45.22671" lon="4.93407">
        <ele>357.9289855957</ele>
        <time>2009-11-08T10:31:07Z</time>
      </trkpt>
      <trkpt lat="45.22688" lon="4.93399">
        <ele>358.61999511719</ele>
        <time>2009-11-08T10:31:13Z</time>
      </trkpt>
      <trkpt lat="45.22697" lon="4.93395">
        <ele>359.90798950195</ele>
        <time>2009-11-08T10:31:16Z</time>
      </trkpt>
      <trkpt lat="45.22712" lon="4.93387">
        <ele>361.07000732422</ele>
        <time>2009-11-08T10:31:22Z</time>
      </trkpt>
      <trkpt lat="45.22742" lon="4.93373">
        <ele>362.87899780273</ele>
        <time>2009-11-08T10:31:31Z</time>
      </trkpt>
      <trkpt lat="45.22775" lon="4.93357">
        <ele>365.36700439453</ele>
        <time>2009-11-08T10:31:40Z</time>
      </trkpt>
      <trkpt lat="45.22811" lon="4.93333">
        <ele>367.43701171875</ele>
        <time>2009-11-08T10:31:50Z</time>
      </trkpt>
      <trkpt lat="45.22846" lon="4.93305">
        <ele>370.17401123047</ele>
        <time>2009-11-08T10:32:00Z</time>
      </trkpt>
      <trkpt lat="45.22864" lon="4.93292">
        <ele>372.48199462891</ele>
        <time>2009-11-08T10:32:06Z</time>
      </trkpt>
      <trkpt lat="45.22887" lon="4.93285">
        <ele>375.10501098633</ele>
        <time>2009-11-08T10:32:15Z</time>
      </trkpt>
      <trkpt lat="45.22908" lon="4.9328">
        <ele>376.88000488281</ele>
        <time>2009-11-08T10:32:23Z</time>
      </trkpt>
      <trkpt lat="45.22926" lon="4.93279">
        <ele>378.7919921875</ele>
        <time>2009-11-08T10:32:30Z</time>
      </trkpt>
      <trkpt lat="45.22943" lon="4.93283">
        <ele>380.05499267578</ele>
        <time>2009-11-08T10:32:37Z</time>
      </trkpt>
      <trkpt lat="45.22959" lon="4.93286">
        <ele>380.92199707031</ele>
        <time>2009-11-08T10:32:43Z</time>
      </trkpt>
      <trkpt lat="45.22977" lon="4.93281">
        <ele>380.81900024414</ele>
        <time>2009-11-08T10:32:49Z</time>
      </trkpt>
      <trkpt lat="45.22992" lon="4.93275">
        <ele>380.60699462891</ele>
        <time>2009-11-08T10:32:53Z</time>
      </trkpt>
      <trkpt lat="45.23016" lon="4.93268">
        <ele>380.17700195312</ele>
        <time>2009-11-08T10:32:58Z</time>
      </trkpt>
      <trkpt lat="45.23029" lon="4.9326">
        <ele>380.37600708008</ele>
        <time>2009-11-08T10:33:01Z</time>
      </trkpt>
      <trkpt lat="45.23059" lon="4.93225">
        <ele>379.82501220703</ele>
        <time>2009-11-08T10:33:09Z</time>
      </trkpt>
      <trkpt lat="45.23088" lon="4.93192">
        <ele>379.71398925781</ele>
        <time>2009-11-08T10:33:16Z</time>
      </trkpt>
      <trkpt lat="45.23116" lon="4.93163">
        <ele>379.82000732422</ele>
        <time>2009-11-08T10:33:22Z</time>
      </trkpt>
      <trkpt lat="45.23161" lon="4.93117">
        <ele>380.03601074219</ele>
        <time>2009-11-08T10:33:31Z</time>
      </trkpt>
      <trkpt lat="45.232" lon="4.93077">
        <ele>380.79000854492</ele>
        <time>2009-11-08T10:33:39Z</time>
      </trkpt>
      <trkpt lat="45.23245" lon="4.93033">
        <ele>380.99600219727</ele>
        <time>2009-11-08T10:33:48Z</time>
      </trkpt>
      <trkpt lat="45.23288" lon="4.93001">
        <ele>381.70901489258</ele>
        <time>2009-11-08T10:33:56Z</time>
      </trkpt>
      <trkpt lat="45.23336" lon="4.92964">
        <ele>380.82800292969</ele>
        <time>2009-11-08T10:34:05Z</time>
      </trkpt>
      <trkpt lat="45.23391" lon="4.9292">
        <ele>379.58898925781</ele>
        <time>2009-11-08T10:34:15Z</time>
      </trkpt>
      <trkpt lat="45.23455" lon="4.92868">
        <ele>379.28399658203</ele>
        <time>2009-11-08T10:34:26Z</time>
      </trkpt>
      <trkpt lat="45.23473" lon="4.92852">
        <ele>378.79699707031</ele>
        <time>2009-11-08T10:34:29Z</time>
      </trkpt>
      <trkpt lat="45.23508" lon="4.92819">
        <ele>378.26400756836</ele>
        <time>2009-11-08T10:34:35Z</time>
      </trkpt>
      <trkpt lat="45.23535" lon="4.92807">
        <ele>377.48999023438</ele>
        <time>2009-11-08T10:34:39Z</time>
      </trkpt>
      <trkpt lat="45.23549" lon="4.92804">
        <ele>376.93200683594</ele>
        <time>2009-11-08T10:34:41Z</time>
      </trkpt>
      <trkpt lat="45.23594" lon="4.92799">
        <ele>375.78601074219</ele>
        <time>2009-11-08T10:34:47Z</time>
      </trkpt>
      <trkpt lat="45.23612" lon="4.92797">
        <ele>374.13900756836</ele>
        <time>2009-11-08T10:34:51Z</time>
      </trkpt>
      <trkpt lat="45.23612" lon="4.92797">
        <ele>373.85900878906</ele>
        <time>2009-11-08T10:34:53Z</time>
      </trkpt>
      <trkpt lat="45.23612" lon="4.92797">
        <ele>374.05700683594</ele>
        <time>2009-11-08T10:34:56Z</time>
      </trkpt>
      <trkpt lat="45.23616" lon="4.92793">
        <ele>373.77099609375</ele>
        <time>2009-11-08T10:34:59Z</time>
      </trkpt>
      <trkpt lat="45.23617" lon="4.92772">
        <ele>373.71301269531</ele>
        <time>2009-11-08T10:35:05Z</time>
      </trkpt>
      <trkpt lat="45.23619" lon="4.92725">
        <ele>374.29000854492</ele>
        <time>2009-11-08T10:35:12Z</time>
      </trkpt>
      <trkpt lat="45.23622" lon="4.92663">
        <ele>374.17199707031</ele>
        <time>2009-11-08T10:35:20Z</time>
      </trkpt>
      <trkpt lat="45.23624" lon="4.92619">
        <ele>374.15399169922</ele>
        <time>2009-11-08T10:35:26Z</time>
      </trkpt>
      <trkpt lat="45.23626" lon="4.92585">
        <ele>374.14498901367</ele>
        <time>2009-11-08T10:35:32Z</time>
      </trkpt>
      <trkpt lat="45.23628" lon="4.92567">
        <ele>375.70300292969</ele>
        <time>2009-11-08T10:35:35Z</time>
      </trkpt>
      <trkpt lat="45.23628" lon="4.92561">
        <ele>375.70498657227</ele>
        <time>2009-11-08T10:35:36Z</time>
      </trkpt>
      <trkpt lat="45.23633" lon="4.92512">
        <ele>375.6780090332</ele>
        <time>2009-11-08T10:35:44Z</time>
      </trkpt>
      <trkpt lat="45.23637" lon="4.92476">
        <ele>376.14001464844</ele>
        <time>2009-11-08T10:35:50Z</time>
      </trkpt>
      <trkpt lat="45.23639" lon="4.92432">
        <ele>376.32598876953</ele>
        <time>2009-11-08T10:35:56Z</time>
      </trkpt>
      <trkpt lat="45.23641" lon="4.92393">
        <ele>376.06600952148</ele>
        <time>2009-11-08T10:36:01Z</time>
      </trkpt>
      <trkpt lat="45.23642" lon="4.92385">
        <ele>376.06600952148</ele>
        <time>2009-11-08T10:36:02Z</time>
      </trkpt>
      <trkpt lat="45.23645" lon="4.92323">
        <ele>375.37799072266</ele>
        <time>2009-11-08T10:36:09Z</time>
      </trkpt>
      <trkpt lat="45.23648" lon="4.92256">
        <ele>375.07400512695</ele>
        <time>2009-11-08T10:36:16Z</time>
      </trkpt>
      <trkpt lat="45.23648" lon="4.92246">
        <ele>374.78298950195</ele>
        <time>2009-11-08T10:36:17Z</time>
      </trkpt>
      <trkpt lat="45.2365" lon="4.92199">
        <ele>374.83700561523</ele>
        <time>2009-11-08T10:36:22Z</time>
      </trkpt>
      <trkpt lat="45.23652" lon="4.92139">
        <ele>375.48098754883</ele>
        <time>2009-11-08T10:36:29Z</time>
      </trkpt>
      <trkpt lat="45.23653" lon="4.92098">
        <ele>375.46499633789</ele>
        <time>2009-11-08T10:36:35Z</time>
      </trkpt>
      <trkpt lat="45.23654" lon="4.92071">
        <ele>375.45098876953</ele>
        <time>2009-11-08T10:36:41Z</time>
      </trkpt>
      <trkpt lat="45.23654" lon="4.92057">
        <ele>376.19500732422</ele>
        <time>2009-11-08T10:36:46Z</time>
      </trkpt>
      <trkpt lat="45.23655" lon="4.92041">
        <ele>376.45199584961</ele>
        <time>2009-11-08T10:36:53Z</time>
      </trkpt>
      <trkpt lat="45.23651" lon="4.92021">
        <ele>376.43099975586</ele>
        <time>2009-11-08T10:37:01Z</time>
      </trkpt>
      <trkpt lat="45.23646" lon="4.92003">
        <ele>376.41101074219</ele>
        <time>2009-11-08T10:37:09Z</time>
      </trkpt>
      <trkpt lat="45.23641" lon="4.91987">
        <ele>376.39099121094</ele>
        <time>2009-11-08T10:37:17Z</time>
      </trkpt>
      <trkpt lat="45.23634" lon="4.91963">
        <ele>376.20599365234</ele>
        <time>2009-11-08T10:37:26Z</time>
      </trkpt>
      <trkpt lat="45.23626" lon="4.91939">
        <ele>376.06100463867</ele>
        <time>2009-11-08T10:37:31Z</time>
      </trkpt>
      <trkpt lat="45.23615" lon="4.91904">
        <ele>375.7200012207</ele>
        <time>2009-11-08T10:37:36Z</time>
      </trkpt>
      <trkpt lat="45.23598" lon="4.91848">
        <ele>375.57400512695</ele>
        <time>2009-11-08T10:37:43Z</time>
      </trkpt>
      <trkpt lat="45.2359" lon="4.91822">
        <ele>374.98400878906</ele>
        <time>2009-11-08T10:37:46Z</time>
      </trkpt>
      <trkpt lat="45.23564" lon="4.91739">
        <ele>374.32699584961</ele>
        <time>2009-11-08T10:37:55Z</time>
      </trkpt>
      <trkpt lat="45.23544" lon="4.9167">
        <ele>374.43899536133</ele>
        <time>2009-11-08T10:38:02Z</time>
      </trkpt>
      <trkpt lat="45.23529" lon="4.91615">
        <ele>373.61499023438</ele>
        <time>2009-11-08T10:38:08Z</time>
      </trkpt>
      <trkpt lat="45.23517" lon="4.91549">
        <ele>374.34100341797</ele>
        <time>2009-11-08T10:38:15Z</time>
      </trkpt>
      <trkpt lat="45.23499" lon="4.91472">
        <ele>374.24099731445</ele>
        <time>2009-11-08T10:38:24Z</time>
      </trkpt>
      <trkpt lat="45.23481" lon="4.91415">
        <ele>374.62799072266</ele>
        <time>2009-11-08T10:38:31Z</time>
      </trkpt>
      <trkpt lat="45.23463" lon="4.91354">
        <ele>373.63198852539</ele>
        <time>2009-11-08T10:38:38Z</time>
      </trkpt>
      <trkpt lat="45.23442" lon="4.91289">
        <ele>372.01901245117</ele>
        <time>2009-11-08T10:38:45Z</time>
      </trkpt>
      <trkpt lat="45.23439" lon="4.91279">
        <ele>371.76998901367</ele>
        <time>2009-11-08T10:38:46Z</time>
      </trkpt>
      <trkpt lat="45.23401" lon="4.91206">
        <ele>369.85000610352</ele>
        <time>2009-11-08T10:38:54Z</time>
      </trkpt>
      <trkpt lat="45.23374" lon="4.91149">
        <ele>368.35598754883</ele>
        <time>2009-11-08T10:39:00Z</time>
      </trkpt>
      <trkpt lat="45.23353" lon="4.91104">
        <ele>366.69299316406</ele>
        <time>2009-11-08T10:39:05Z</time>
      </trkpt>
      <trkpt lat="45.23339" lon="4.91079">
        <ele>365.25500488281</ele>
        <time>2009-11-08T10:39:08Z</time>
      </trkpt>
      <trkpt lat="45.23307" lon="4.91038">
        <ele>362.24700927734</ele>
        <time>2009-11-08T10:39:13Z</time>
      </trkpt>
      <trkpt lat="45.23267" lon="4.90989">
        <ele>357.89099121094</ele>
        <time>2009-11-08T10:39:18Z</time>
      </trkpt>
      <trkpt lat="45.23195" lon="4.90904">
        <ele>352.42999267578</ele>
        <time>2009-11-08T10:39:26Z</time>
      </trkpt>
      <trkpt lat="45.23178" lon="4.90887">
        <ele>351.18499755859</ele>
        <time>2009-11-08T10:39:28Z</time>
      </trkpt>
      <trkpt lat="45.23167" lon="4.90876">
        <ele>350.36999511719</ele>
        <time>2009-11-08T10:39:30Z</time>
      </trkpt>
      <trkpt lat="45.23164" lon="4.90862">
        <ele>350.50698852539</ele>
        <time>2009-11-08T10:39:32Z</time>
      </trkpt>
      <trkpt lat="45.23156" lon="4.90806">
        <ele>348.22500610352</ele>
        <time>2009-11-08T10:39:38Z</time>
      </trkpt>
      <trkpt lat="45.23147" lon="4.90745">
        <ele>343.85299682617</ele>
        <time>2009-11-08T10:39:43Z</time>
      </trkpt>
      <trkpt lat="45.23141" lon="4.90702">
        <ele>341.04098510742</ele>
        <time>2009-11-08T10:39:46Z</time>
      </trkpt>
      <trkpt lat="45.23126" lon="4.9066">
        <ele>338.03399658203</ele>
        <time>2009-11-08T10:39:49Z</time>
      </trkpt>
      <trkpt lat="45.2312" lon="4.90647">
        <ele>338.1969909668</ele>
        <time>2009-11-08T10:39:50Z</time>
      </trkpt>
      <trkpt lat="45.23096" lon="4.9059">
        <ele>335.06500244141</ele>
        <time>2009-11-08T10:39:54Z</time>
      </trkpt>
      <trkpt lat="45.23055" lon="4.90532">
        <ele>332.45001220703</ele>
        <time>2009-11-08T10:39:59Z</time>
      </trkpt>
      <trkpt lat="45.23013" lon="4.90477">
        <ele>330.06900024414</ele>
        <time>2009-11-08T10:40:04Z</time>
      </trkpt>
      <trkpt lat="45.22958" lon="4.90405">
        <ele>328.83099365234</ele>
        <time>2009-11-08T10:40:11Z</time>
      </trkpt>
      <trkpt lat="45.2292" lon="4.90349">
        <ele>328.60501098633</ele>
        <time>2009-11-08T10:40:17Z</time>
      </trkpt>
      <trkpt lat="45.22889" lon="4.90299">
        <ele>328.51300048828</ele>
        <time>2009-11-08T10:40:23Z</time>
      </trkpt>
      <trkpt lat="45.22878" lon="4.90267">
        <ele>328.65301513672</ele>
        <time>2009-11-08T10:40:27Z</time>
      </trkpt>
      <trkpt lat="45.22878" lon="4.90258">
        <ele>328.54098510742</ele>
        <time>2009-11-08T10:40:28Z</time>
      </trkpt>
      <trkpt lat="45.22879" lon="4.90179">
        <ele>328.09600830078</ele>
        <time>2009-11-08T10:40:37Z</time>
      </trkpt>
      <trkpt lat="45.22885" lon="4.90155">
        <ele>327.70700073242</ele>
        <time>2009-11-08T10:40:40Z</time>
      </trkpt>
      <trkpt lat="45.229" lon="4.9012">
        <ele>327.38598632812</ele>
        <time>2009-11-08T10:40:45Z</time>
      </trkpt>
      <trkpt lat="45.22922" lon="4.90107">
        <ele>327.16799926758</ele>
        <time>2009-11-08T10:40:49Z</time>
      </trkpt>
      <trkpt lat="45.22932" lon="4.90102">
        <ele>327.34201049805</ele>
        <time>2009-11-08T10:40:51Z</time>
      </trkpt>
      <trkpt lat="45.22969" lon="4.90066">
        <ele>326.8030090332</ele>
        <time>2009-11-08T10:40:58Z</time>
      </trkpt>
      <trkpt lat="45.23008" lon="4.90024">
        <ele>326.33499145508</ele>
        <time>2009-11-08T10:41:05Z</time>
      </trkpt>
      <trkpt lat="45.23013" lon="4.90018">
        <ele>326.21798706055</ele>
        <time>2009-11-08T10:41:06Z</time>
      </trkpt>
      <trkpt lat="45.23033" lon="4.89979">
        <ele>325.95700073242</ele>
        <time>2009-11-08T10:41:11Z</time>
      </trkpt>
      <trkpt lat="45.23034" lon="4.89969">
        <ele>325.82998657227</ele>
        <time>2009-11-08T10:41:12Z</time>
      </trkpt>
      <trkpt lat="45.23043" lon="4.89899">
        <ele>325.61599731445</ele>
        <time>2009-11-08T10:41:19Z</time>
      </trkpt>
      <trkpt lat="45.2305" lon="4.89848">
        <ele>325.26800537109</ele>
        <time>2009-11-08T10:41:24Z</time>
      </trkpt>
      <trkpt lat="45.23038" lon="4.89758">
        <ele>325.65200805664</ele>
        <time>2009-11-08T10:41:33Z</time>
      </trkpt>
      <trkpt lat="45.23029" lon="4.89672">
        <ele>326.56799316406</ele>
        <time>2009-11-08T10:41:42Z</time>
      </trkpt>
      <trkpt lat="45.23031" lon="4.89609">
        <ele>326.67599487305</ele>
        <time>2009-11-08T10:41:49Z</time>
      </trkpt>
      <trkpt lat="45.23044" lon="4.89547">
        <ele>325.63400268555</ele>
        <time>2009-11-08T10:41:56Z</time>
      </trkpt>
      <trkpt lat="45.23061" lon="4.89483">
        <ele>324.95199584961</ele>
        <time>2009-11-08T10:42:03Z</time>
      </trkpt>
      <trkpt lat="45.23068" lon="4.89469">
        <ele>324.17300415039</ele>
        <time>2009-11-08T10:42:05Z</time>
      </trkpt>
      <trkpt lat="45.23084" lon="4.89451">
        <ele>323.2799987793</ele>
        <time>2009-11-08T10:42:08Z</time>
      </trkpt>
      <trkpt lat="45.23123" lon="4.89426">
        <ele>321.15899658203</ele>
        <time>2009-11-08T10:42:14Z</time>
      </trkpt>
      <trkpt lat="45.23149" lon="4.89412">
        <ele>319.00399780273</ele>
        <time>2009-11-08T10:42:18Z</time>
      </trkpt>
      <trkpt lat="45.23163" lon="4.89404">
        <ele>318.06900024414</ele>
        <time>2009-11-08T10:42:22Z</time>
      </trkpt>
      <trkpt lat="45.23174" lon="4.89393">
        <ele>318.06799316406</ele>
        <time>2009-11-08T10:42:26Z</time>
      </trkpt>
      <trkpt lat="45.23168" lon="4.89358">
        <ele>319.73001098633</ele>
        <time>2009-11-08T10:42:32Z</time>
      </trkpt>
      <trkpt lat="45.23166" lon="4.8934">
        <ele>320.40701293945</ele>
        <time>2009-11-08T10:42:35Z</time>
      </trkpt>
      <trkpt lat="45.23167" lon="4.89316">
        <ele>321.34799194336</ele>
        <time>2009-11-08T10:42:39Z</time>
      </trkpt>
      <trkpt lat="45.23171" lon="4.89304">
        <ele>321.6369934082</ele>
        <time>2009-11-08T10:42:41Z</time>
      </trkpt>
      <trkpt lat="45.23186" lon="4.8926">
        <ele>321.80200195312</ele>
        <time>2009-11-08T10:42:48Z</time>
      </trkpt>
      <trkpt lat="45.23196" lon="4.89234">
        <ele>320.61401367188</ele>
        <time>2009-11-08T10:42:52Z</time>
      </trkpt>
      <trkpt lat="45.2322" lon="4.89188">
        <ele>319.24301147461</ele>
        <time>2009-11-08T10:42:58Z</time>
      </trkpt>
      <trkpt lat="45.23238" lon="4.89127">
        <ele>315.31298828125</ele>
        <time>2009-11-08T10:43:04Z</time>
      </trkpt>
      <trkpt lat="45.23244" lon="4.89107">
        <ele>313.69100952148</ele>
        <time>2009-11-08T10:43:06Z</time>
      </trkpt>
      <trkpt lat="45.23259" lon="4.89058">
        <ele>308.53100585938</ele>
        <time>2009-11-08T10:43:10Z</time>
      </trkpt>
      <trkpt lat="45.23259" lon="4.89011">
        <ele>305.53399658203</ele>
        <time>2009-11-08T10:43:13Z</time>
      </trkpt>
      <trkpt lat="45.23261" lon="4.88995">
        <ele>304.33700561523</ele>
        <time>2009-11-08T10:43:14Z</time>
      </trkpt>
      <trkpt lat="45.23264" lon="4.88967">
        <ele>302.9700012207</ele>
        <time>2009-11-08T10:43:16Z</time>
      </trkpt>
      <trkpt lat="45.2326" lon="4.88929">
        <ele>299.20999145508</ele>
        <time>2009-11-08T10:43:20Z</time>
      </trkpt>
      <trkpt lat="45.23253" lon="4.88908">
        <ele>297.45001220703</ele>
        <time>2009-11-08T10:43:24Z</time>
      </trkpt>
      <trkpt lat="45.23264" lon="4.88889">
        <ele>294.9280090332</ele>
        <time>2009-11-08T10:43:28Z</time>
      </trkpt>
      <trkpt lat="45.23272" lon="4.88877">
        <ele>293.5830078125</ele>
        <time>2009-11-08T10:43:30Z</time>
      </trkpt>
      <trkpt lat="45.23282" lon="4.88866">
        <ele>291.77600097656</ele>
        <time>2009-11-08T10:43:32Z</time>
      </trkpt>
      <trkpt lat="45.23312" lon="4.88826">
        <ele>285.96798706055</ele>
        <time>2009-11-08T10:43:38Z</time>
      </trkpt>
      <trkpt lat="45.23339" lon="4.88803">
        <ele>282.58401489258</ele>
        <time>2009-11-08T10:43:42Z</time>
      </trkpt>
      <trkpt lat="45.23347" lon="4.88799">
        <ele>281.28500366211</ele>
        <time>2009-11-08T10:43:43Z</time>
      </trkpt>
      <trkpt lat="45.23379" lon="4.88767">
        <ele>277.35400390625</ele>
        <time>2009-11-08T10:43:48Z</time>
      </trkpt>
      <trkpt lat="45.23416" lon="4.8872">
        <ele>272.46701049805</ele>
        <time>2009-11-08T10:43:53Z</time>
      </trkpt>
      <trkpt lat="45.23433" lon="4.88699">
        <ele>270.63598632812</ele>
        <time>2009-11-08T10:43:55Z</time>
      </trkpt>
      <trkpt lat="45.23467" lon="4.88656">
        <ele>265.31698608398</ele>
        <time>2009-11-08T10:43:59Z</time>
      </trkpt>
      <trkpt lat="45.23483" lon="4.88626">
        <ele>265.20300292969</ele>
        <time>2009-11-08T10:44:02Z</time>
      </trkpt>
      <trkpt lat="45.23511" lon="4.88562">
        <ele>265.18399047852</ele>
        <time>2009-11-08T10:44:07Z</time>
      </trkpt>
      <trkpt lat="45.23548" lon="4.8849">
        <ele>245.51300048828</ele>
        <time>2009-11-08T10:44:12Z</time>
      </trkpt>
      <trkpt lat="45.23565" lon="4.88464">
        <ele>243.16200256348</ele>
        <time>2009-11-08T10:44:14Z</time>
      </trkpt>
      <trkpt lat="45.23611" lon="4.88395">
        <ele>235.55099487305</ele>
        <time>2009-11-08T10:44:19Z</time>
      </trkpt>
      <trkpt lat="45.23649" lon="4.88337">
        <ele>230.32600402832</ele>
        <time>2009-11-08T10:44:23Z</time>
      </trkpt>
      <trkpt lat="45.2367" lon="4.88303">
        <ele>226.28999328613</ele>
        <time>2009-11-08T10:44:26Z</time>
      </trkpt>
      <trkpt lat="45.23681" lon="4.88273">
        <ele>222.83399963379</ele>
        <time>2009-11-08T10:44:29Z</time>
      </trkpt>
      <trkpt lat="45.23688" lon="4.8823">
        <ele>218.63600158691</ele>
        <time>2009-11-08T10:44:33Z</time>
      </trkpt>
      <trkpt lat="45.23686" lon="4.88205">
        <ele>215.70300292969</ele>
        <time>2009-11-08T10:44:35Z</time>
      </trkpt>
      <trkpt lat="45.23694" lon="4.88167">
        <ele>211.93699645996</ele>
        <time>2009-11-08T10:44:39Z</time>
      </trkpt>
      <trkpt lat="45.23708" lon="4.88149">
        <ele>209.9049987793</ele>
        <time>2009-11-08T10:44:43Z</time>
      </trkpt>
      <trkpt lat="45.23714" lon="4.88147">
        <ele>209.26600646973</ele>
        <time>2009-11-08T10:44:44Z</time>
      </trkpt>
      <trkpt lat="45.23751" lon="4.8813">
        <ele>205.83500671387</ele>
        <time>2009-11-08T10:44:49Z</time>
      </trkpt>
      <trkpt lat="45.23763" lon="4.88111">
        <ele>204.56500244141</ele>
        <time>2009-11-08T10:44:51Z</time>
      </trkpt>
      <trkpt lat="45.23792" lon="4.88079">
        <ele>201.6549987793</ele>
        <time>2009-11-08T10:44:56Z</time>
      </trkpt>
      <trkpt lat="45.23801" lon="4.88071">
        <ele>201.22900390625</ele>
        <time>2009-11-08T10:44:59Z</time>
      </trkpt>
      <trkpt lat="45.23804" lon="4.88063">
        <ele>201.02900695801</ele>
        <time>2009-11-08T10:45:02Z</time>
      </trkpt>
      <trkpt lat="45.23801" lon="4.88048">
        <ele>201.03500366211</ele>
        <time>2009-11-08T10:45:05Z</time>
      </trkpt>
      <trkpt lat="45.23796" lon="4.88027">
        <ele>200.5059967041</ele>
        <time>2009-11-08T10:45:08Z</time>
      </trkpt>
      <trkpt lat="45.23791" lon="4.88004">
        <ele>200.67399597168</ele>
        <time>2009-11-08T10:45:11Z</time>
      </trkpt>
      <trkpt lat="45.23781" lon="4.87962">
        <ele>199.92100524902</ele>
        <time>2009-11-08T10:45:16Z</time>
      </trkpt>
      <trkpt lat="45.23779" lon="4.87953">
        <ele>199.69599914551</ele>
        <time>2009-11-08T10:45:17Z</time>
      </trkpt>
      <trkpt lat="45.23763" lon="4.87884">
        <ele>199.66600036621</ele>
        <time>2009-11-08T10:45:25Z</time>
      </trkpt>
      <trkpt lat="45.23752" lon="4.87839">
        <ele>199.98699951172</ele>
        <time>2009-11-08T10:45:31Z</time>
      </trkpt>
      <trkpt lat="45.23741" lon="4.87789">
        <ele>199.95700073242</ele>
        <time>2009-11-08T10:45:38Z</time>
      </trkpt>
      <trkpt lat="45.23735" lon="4.87755">
        <ele>200.98199462891</ele>
        <time>2009-11-08T10:45:44Z</time>
      </trkpt>
      <trkpt lat="45.23731" lon="4.87729">
        <ele>201.32000732422</ele>
        <time>2009-11-08T10:45:49Z</time>
      </trkpt>
      <trkpt lat="45.23725" lon="4.87689">
        <ele>200.85299682617</ele>
        <time>2009-11-08T10:45:55Z</time>
      </trkpt>
      <trkpt lat="45.23718" lon="4.87647">
        <ele>200.48899841309</ele>
        <time>2009-11-08T10:46:01Z</time>
      </trkpt>
      <trkpt lat="45.23715" lon="4.87631">
        <ele>200.73500061035</ele>
        <time>2009-11-08T10:46:03Z</time>
      </trkpt>
      <trkpt lat="45.23718" lon="4.87564">
        <ele>200.39500427246</ele>
        <time>2009-11-08T10:46:11Z</time>
      </trkpt>
      <trkpt lat="45.23721" lon="4.87514">
        <ele>199.77900695801</ele>
        <time>2009-11-08T10:46:17Z</time>
      </trkpt>
      <trkpt lat="45.23724" lon="4.87445">
        <ele>199.4049987793</ele>
        <time>2009-11-08T10:46:26Z</time>
      </trkpt>
      <trkpt lat="45.23724" lon="4.87445">
        <ele>199.09399414062</ele>
        <time>2009-11-08T10:46:27Z</time>
      </trkpt>
      <trkpt lat="45.23734" lon="4.87348">
        <ele>198.35000610352</ele>
        <time>2009-11-08T10:46:35Z</time>
      </trkpt>
      <trkpt lat="45.23743" lon="4.87268">
        <ele>197.38900756836</ele>
        <time>2009-11-08T10:46:44Z</time>
      </trkpt>
      <trkpt lat="45.23749" lon="4.87184">
        <ele>195.90899658203</ele>
        <time>2009-11-08T10:46:53Z</time>
      </trkpt>
      <trkpt lat="45.23752" lon="4.87117">
        <ele>195.6369934082</ele>
        <time>2009-11-08T10:47:00Z</time>
      </trkpt>
      <trkpt lat="45.23755" lon="4.87052">
        <ele>195.64199829102</ele>
        <time>2009-11-08T10:47:07Z</time>
      </trkpt>
      <trkpt lat="45.23757" lon="4.87009">
        <ele>195.64300537109</ele>
        <time>2009-11-08T10:47:12Z</time>
      </trkpt>
      <trkpt lat="45.23758" lon="4.86968">
        <ele>192.71699523926</ele>
        <time>2009-11-08T10:47:17Z</time>
      </trkpt>
      <trkpt lat="45.23758" lon="4.86922">
        <ele>192.35699462891</ele>
        <time>2009-11-08T10:47:22Z</time>
      </trkpt>
      <trkpt lat="45.23758" lon="4.86816">
        <ele>192.9880065918</ele>
        <time>2009-11-08T10:47:33Z</time>
      </trkpt>
      <trkpt lat="45.23758" lon="4.86721">
        <ele>192.35800170898</ele>
        <time>2009-11-08T10:47:43Z</time>
      </trkpt>
      <trkpt lat="45.23759" lon="4.86634">
        <ele>192.48399353027</ele>
        <time>2009-11-08T10:47:52Z</time>
      </trkpt>
      <trkpt lat="45.23769" lon="4.86578">
        <ele>192.04699707031</ele>
        <time>2009-11-08T10:47:58Z</time>
      </trkpt>
      <trkpt lat="45.23789" lon="4.86511">
        <ele>190.39300537109</ele>
        <time>2009-11-08T10:48:05Z</time>
      </trkpt>
      <trkpt lat="45.23808" lon="4.8645">
        <ele>189.35499572754</ele>
        <time>2009-11-08T10:48:11Z</time>
      </trkpt>
      <trkpt lat="45.23833" lon="4.86354">
        <ele>187.77499389648</ele>
        <time>2009-11-08T10:48:20Z</time>
      </trkpt>
      <trkpt lat="45.23855" lon="4.86264">
        <ele>186.04200744629</ele>
        <time>2009-11-08T10:48:28Z</time>
      </trkpt>
      <trkpt lat="45.23876" lon="4.86176">
        <ele>184.625</ele>
        <time>2009-11-08T10:48:36Z</time>
      </trkpt>
      <trkpt lat="45.23895" lon="4.86081">
        <ele>183.18600463867</ele>
        <time>2009-11-08T10:48:45Z</time>
      </trkpt>
      <trkpt lat="45.23906" lon="4.85995">
        <ele>182.72399902344</ele>
        <time>2009-11-08T10:48:53Z</time>
      </trkpt>
      <trkpt lat="45.23904" lon="4.85921">
        <ele>182.65299987793</ele>
        <time>2009-11-08T10:49:00Z</time>
      </trkpt>
      <trkpt lat="45.23899" lon="4.85832">
        <ele>182.73599243164</ele>
        <time>2009-11-08T10:49:09Z</time>
      </trkpt>
      <trkpt lat="45.23894" lon="4.85747">
        <ele>182.75199890137</ele>
        <time>2009-11-08T10:49:18Z</time>
      </trkpt>
      <trkpt lat="45.2389" lon="4.85666">
        <ele>183.35400390625</ele>
        <time>2009-11-08T10:49:27Z</time>
      </trkpt>
      <trkpt lat="45.23888" lon="4.85592">
        <ele>183.22700500488</ele>
        <time>2009-11-08T10:49:35Z</time>
      </trkpt>
      <trkpt lat="45.23882" lon="4.85507">
        <ele>183.42399597168</ele>
        <time>2009-11-08T10:49:44Z</time>
      </trkpt>
      <trkpt lat="45.23875" lon="4.85462">
        <ele>182.78300476074</ele>
        <time>2009-11-08T10:49:49Z</time>
      </trkpt>
      <trkpt lat="45.23871" lon="4.85432">
        <ele>181.10400390625</ele>
        <time>2009-11-08T10:49:52Z</time>
      </trkpt>
      <trkpt lat="45.23881" lon="4.85428">
        <ele>180.34199523926</ele>
        <time>2009-11-08T10:49:54Z</time>
      </trkpt>
      <trkpt lat="45.23915" lon="4.85415">
        <ele>177.30000305176</ele>
        <time>2009-11-08T10:49:59Z</time>
      </trkpt>
      <trkpt lat="45.23967" lon="4.85395">
        <ele>173.4640045166</ele>
        <time>2009-11-08T10:50:05Z</time>
      </trkpt>
      <trkpt lat="45.23995" lon="4.85384">
        <ele>171.99099731445</ele>
        <time>2009-11-08T10:50:08Z</time>
      </trkpt>
      <trkpt lat="45.24025" lon="4.85372">
        <ele>170.58599853516</ele>
        <time>2009-11-08T10:50:11Z</time>
      </trkpt>
      <trkpt lat="45.2407" lon="4.85344">
        <ele>167.96200561523</ele>
        <time>2009-11-08T10:50:16Z</time>
      </trkpt>
      <trkpt lat="45.24079" lon="4.8534">
        <ele>167.68600463867</ele>
        <time>2009-11-08T10:50:17Z</time>
      </trkpt>
      <trkpt lat="45.24115" lon="4.85324">
        <ele>167.41000366211</ele>
        <time>2009-11-08T10:50:21Z</time>
      </trkpt>
      <trkpt lat="45.24146" lon="4.85305">
        <ele>165.14100646973</ele>
        <time>2009-11-08T10:50:25Z</time>
      </trkpt>
      <trkpt lat="45.24163" lon="4.85279">
        <ele>164.77600097656</ele>
        <time>2009-11-08T10:50:28Z</time>
      </trkpt>
      <trkpt lat="45.24205" lon="4.85213">
        <ele>164.06199645996</ele>
        <time>2009-11-08T10:50:36Z</time>
      </trkpt>
      <trkpt lat="45.24215" lon="4.85199">
        <ele>164.53900146484</ele>
        <time>2009-11-08T10:50:38Z</time>
      </trkpt>
      <trkpt lat="45.24252" lon="4.8517">
        <ele>165.05400085449</ele>
        <time>2009-11-08T10:50:45Z</time>
      </trkpt>
      <trkpt lat="45.24273" lon="4.85152">
        <ele>164.79899597168</ele>
        <time>2009-11-08T10:50:49Z</time>
      </trkpt>
      <trkpt lat="45.243" lon="4.85122">
        <ele>166.55000305176</ele>
        <time>2009-11-08T10:50:55Z</time>
      </trkpt>
      <trkpt lat="45.24324" lon="4.8509">
        <ele>168.66200256348</ele>
        <time>2009-11-08T10:51:03Z</time>
      </trkpt>
      <trkpt lat="45.24334" lon="4.85077">
        <ele>169.58700561523</ele>
        <time>2009-11-08T10:51:07Z</time>
      </trkpt>
      <trkpt lat="45.2435" lon="4.85062">
        <ele>171.71699523926</ele>
        <time>2009-11-08T10:51:13Z</time>
      </trkpt>
      <trkpt lat="45.24363" lon="4.85054">
        <ele>172.75999450684</ele>
        <time>2009-11-08T10:51:17Z</time>
      </trkpt>
      <trkpt lat="45.24389" lon="4.8504">
        <ele>173.76400756836</ele>
        <time>2009-11-08T10:51:24Z</time>
      </trkpt>
      <trkpt lat="45.24409" lon="4.85033">
        <ele>174.78399658203</ele>
        <time>2009-11-08T10:51:29Z</time>
      </trkpt>
      <trkpt lat="45.2443" lon="4.85026">
        <ele>175.36099243164</ele>
        <time>2009-11-08T10:51:34Z</time>
      </trkpt>
      <trkpt lat="45.24453" lon="4.85019">
        <ele>177.01100158691</ele>
        <time>2009-11-08T10:51:40Z</time>
      </trkpt>
      <trkpt lat="45.24466" lon="4.85002">
        <ele>177.10000610352</ele>
        <time>2009-11-08T10:51:45Z</time>
      </trkpt>
      <trkpt lat="45.24469" lon="4.84991">
        <ele>177.61700439453</ele>
        <time>2009-11-08T10:51:48Z</time>
      </trkpt>
      <trkpt lat="45.24505" lon="4.84982">
        <ele>177.35299682617</ele>
        <time>2009-11-08T10:51:55Z</time>
      </trkpt>
      <trkpt lat="45.24514" lon="4.8498">
        <ele>177.64199829102</ele>
        <time>2009-11-08T10:51:57Z</time>
      </trkpt>
      <trkpt lat="45.2453" lon="4.84973">
        <ele>177.12199401856</ele>
        <time>2009-11-08T10:52:01Z</time>
      </trkpt>
      <trkpt lat="45.2453" lon="4.84973">
        <ele>176.6130065918</ele>
        <time>2009-11-08T10:52:06Z</time>
      </trkpt>
      <trkpt lat="45.24588" lon="4.84989">
        <ele>177.53900146484</ele>
        <time>2009-11-08T10:52:13Z</time>
      </trkpt>
      <trkpt lat="45.24612" lon="4.85009">
        <ele>178.61700439453</ele>
        <time>2009-11-08T10:52:20Z</time>
      </trkpt>
      <trkpt lat="45.24633" lon="4.85027">
        <ele>181.39999389648</ele>
        <time>2009-11-08T10:52:27Z</time>
      </trkpt>
      <trkpt lat="45.24648" lon="4.8504">
        <ele>182.67100524902</ele>
        <time>2009-11-08T10:52:32Z</time>
      </trkpt>
      <trkpt lat="45.24667" lon="4.85057">
        <ele>184.93699645996</ele>
        <time>2009-11-08T10:52:38Z</time>
      </trkpt>
      <trkpt lat="45.24686" lon="4.85073">
        <ele>186.04299926758</ele>
        <time>2009-11-08T10:52:44Z</time>
      </trkpt>
      <trkpt lat="45.24715" lon="4.85093">
        <ele>189.42999267578</ele>
        <time>2009-11-08T10:52:53Z</time>
      </trkpt>
      <trkpt lat="45.24736" lon="4.85108">
        <ele>190.95199584961</ele>
        <time>2009-11-08T10:53:00Z</time>
      </trkpt>
      <trkpt lat="45.24741" lon="4.85111">
        <ele>192.46299743652</ele>
        <time>2009-11-08T10:53:06Z</time>
      </trkpt>
      <trkpt lat="45.24762" lon="4.85158">
        <ele>195.28999328613</ele>
        <time>2009-11-08T10:53:13Z</time>
      </trkpt>
      <trkpt lat="45.24768" lon="4.8518">
        <ele>196.94999694824</ele>
        <time>2009-11-08T10:53:18Z</time>
      </trkpt>
      <trkpt lat="45.24769" lon="4.85184">
        <ele>197.30799865723</ele>
        <time>2009-11-08T10:53:19Z</time>
      </trkpt>
      <trkpt lat="45.2477" lon="4.85188">
        <ele>197.69799804688</ele>
        <time>2009-11-08T10:53:20Z</time>
      </trkpt>
      <trkpt lat="45.24778" lon="4.85218">
        <ele>199.44299316406</ele>
        <time>2009-11-08T10:53:27Z</time>
      </trkpt>
      <trkpt lat="45.24785" lon="4.85245">
        <ele>201.00199890137</ele>
        <time>2009-11-08T10:53:33Z</time>
      </trkpt>
      <trkpt lat="45.24791" lon="4.85267">
        <ele>201.92599487305</ele>
        <time>2009-11-08T10:53:38Z</time>
      </trkpt>
      <trkpt lat="45.24801" lon="4.85302">
        <ele>202.94700622559</ele>
        <time>2009-11-08T10:53:45Z</time>
      </trkpt>
      <trkpt lat="45.24813" lon="4.85349">
        <ele>204.69799804688</ele>
        <time>2009-11-08T10:53:54Z</time>
      </trkpt>
      <trkpt lat="45.24825" lon="4.85391">
        <ele>206.50500488281</ele>
        <time>2009-11-08T10:54:03Z</time>
      </trkpt>
      <trkpt lat="45.24834" lon="4.85423">
        <ele>208.08000183106</ele>
        <time>2009-11-08T10:54:11Z</time>
      </trkpt>
      <trkpt lat="45.24841" lon="4.85451">
        <ele>209.87800598144</ele>
        <time>2009-11-08T10:54:18Z</time>
      </trkpt>
      <trkpt lat="45.24848" lon="4.85483">
        <ele>211.62100219727</ele>
        <time>2009-11-08T10:54:26Z</time>
      </trkpt>
      <trkpt lat="45.24855" lon="4.85512">
        <ele>213.73899841309</ele>
        <time>2009-11-08T10:54:34Z</time>
      </trkpt>
      <trkpt lat="45.2486" lon="4.85536">
        <ele>215.31700134277</ele>
        <time>2009-11-08T10:54:41Z</time>
      </trkpt>
      <trkpt lat="45.24866" lon="4.85563">
        <ele>217.20399475098</ele>
        <time>2009-11-08T10:54:48Z</time>
      </trkpt>
      <trkpt lat="45.24871" lon="4.85595">
        <ele>219.28399658203</ele>
        <time>2009-11-08T10:54:56Z</time>
      </trkpt>
      <trkpt lat="45.24876" lon="4.85632">
        <ele>221.80299377441</ele>
        <time>2009-11-08T10:55:05Z</time>
      </trkpt>
      <trkpt lat="45.24881" lon="4.85666">
        <ele>223.77600097656</ele>
        <time>2009-11-08T10:55:13Z</time>
      </trkpt>
      <trkpt lat="45.24884" lon="4.85691">
        <ele>225.59700012207</ele>
        <time>2009-11-08T10:55:19Z</time>
      </trkpt>
      <trkpt lat="45.24889" lon="4.85721">
        <ele>227.55299377441</ele>
        <time>2009-11-08T10:55:26Z</time>
      </trkpt>
      <trkpt lat="45.24894" lon="4.85757">
        <ele>229.92700195312</ele>
        <time>2009-11-08T10:55:35Z</time>
      </trkpt>
      <trkpt lat="45.24895" lon="4.85795">
        <ele>231.91600036621</ele>
        <time>2009-11-08T10:55:44Z</time>
      </trkpt>
      <trkpt lat="45.24895" lon="4.85828">
        <ele>233.97500610352</ele>
        <time>2009-11-08T10:55:52Z</time>
      </trkpt>
      <trkpt lat="45.24895" lon="4.85858">
        <ele>235.95700073242</ele>
        <time>2009-11-08T10:55:59Z</time>
      </trkpt>
      <trkpt lat="45.24891" lon="4.859">
        <ele>238.26699829102</ele>
        <time>2009-11-08T10:56:09Z</time>
      </trkpt>
      <trkpt lat="45.24886" lon="4.85932">
        <ele>240.98899841309</ele>
        <time>2009-11-08T10:56:17Z</time>
      </trkpt>
      <trkpt lat="45.24882" lon="4.85968">
        <ele>242.91999816894</ele>
        <time>2009-11-08T10:56:26Z</time>
      </trkpt>
      <trkpt lat="45.24879" lon="4.86008">
        <ele>245.66000366211</ele>
        <time>2009-11-08T10:56:36Z</time>
      </trkpt>
      <trkpt lat="45.24881" lon="4.8604">
        <ele>247.88800048828</ele>
        <time>2009-11-08T10:56:44Z</time>
      </trkpt>
      <trkpt lat="45.24886" lon="4.86075">
        <ele>250.08000183106</ele>
        <time>2009-11-08T10:56:53Z</time>
      </trkpt>
      <trkpt lat="45.24892" lon="4.86111">
        <ele>252.14199829102</ele>
        <time>2009-11-08T10:57:02Z</time>
      </trkpt>
      <trkpt lat="45.24897" lon="4.86138">
        <ele>254.08599853516</ele>
        <time>2009-11-08T10:57:09Z</time>
      </trkpt>
      <trkpt lat="45.24902" lon="4.86167">
        <ele>255.87600708008</ele>
        <time>2009-11-08T10:57:16Z</time>
      </trkpt>
      <trkpt lat="45.24908" lon="4.86204">
        <ele>257.19299316406</ele>
        <time>2009-11-08T10:57:24Z</time>
      </trkpt>
      <trkpt lat="45.24914" lon="4.86247">
        <ele>258.48001098633</ele>
        <time>2009-11-08T10:57:33Z</time>
      </trkpt>
      <trkpt lat="45.2492" lon="4.86298">
        <ele>260.34298706055</ele>
        <time>2009-11-08T10:57:43Z</time>
      </trkpt>
      <trkpt lat="45.24926" lon="4.8634">
        <ele>261.62200927734</ele>
        <time>2009-11-08T10:57:51Z</time>
      </trkpt>
      <trkpt lat="45.24933" lon="4.86385">
        <ele>262.25399780273</ele>
        <time>2009-11-08T10:57:59Z</time>
      </trkpt>
      <trkpt lat="45.24947" lon="4.86448">
        <ele>262.33801269531</ele>
        <time>2009-11-08T10:58:09Z</time>
      </trkpt>
      <trkpt lat="45.24962" lon="4.86516">
        <ele>262.8869934082</ele>
        <time>2009-11-08T10:58:19Z</time>
      </trkpt>
      <trkpt lat="45.24968" lon="4.86578">
        <ele>263.43200683594</ele>
        <time>2009-11-08T10:58:28Z</time>
      </trkpt>
      <trkpt lat="45.24965" lon="4.86614">
        <ele>264.46499633789</ele>
        <time>2009-11-08T10:58:34Z</time>
      </trkpt>
      <trkpt lat="45.24955" lon="4.86639">
        <ele>265.86499023438</ele>
        <time>2009-11-08T10:58:40Z</time>
      </trkpt>
      <trkpt lat="45.24955" lon="4.86639">
        <ele>267.95700073242</ele>
        <time>2009-11-08T10:58:48Z</time>
      </trkpt>
      <trkpt lat="45.24928" lon="4.86691">
        <ele>270.42599487305</ele>
        <time>2009-11-08T10:58:55Z</time>
      </trkpt>
      <trkpt lat="45.24915" lon="4.8671">
        <ele>272.11499023438</ele>
        <time>2009-11-08T10:59:01Z</time>
      </trkpt>
      <trkpt lat="45.24898" lon="4.86735">
        <ele>274.22500610352</ele>
        <time>2009-11-08T10:59:09Z</time>
      </trkpt>
      <trkpt lat="45.24883" lon="4.86759">
        <ele>277.10198974609</ele>
        <time>2009-11-08T10:59:19Z</time>
      </trkpt>
      <trkpt lat="45.24857" lon="4.86789">
        <ele>279.20901489258</ele>
        <time>2009-11-08T10:59:27Z</time>
      </trkpt>
      <trkpt lat="45.24844" lon="4.86805">
        <ele>280.77700805664</ele>
        <time>2009-11-08T10:59:33Z</time>
      </trkpt>
      <trkpt lat="45.24824" lon="4.86829">
        <ele>282.4289855957</ele>
        <time>2009-11-08T10:59:41Z</time>
      </trkpt>
      <trkpt lat="45.24805" lon="4.86852">
        <ele>283.88000488281</ele>
        <time>2009-11-08T10:59:48Z</time>
      </trkpt>
      <trkpt lat="45.24782" lon="4.86878">
        <ele>285.01000976562</ele>
        <time>2009-11-08T10:59:56Z</time>
      </trkpt>
      <trkpt lat="45.2476" lon="4.86913">
        <ele>285.98699951172</ele>
        <time>2009-11-08T11:00:04Z</time>
      </trkpt>
      <trkpt lat="45.24743" lon="4.86951">
        <ele>287.72399902344</ele>
        <time>2009-11-08T11:00:12Z</time>
      </trkpt>
      <trkpt lat="45.24737" lon="4.86973">
        <ele>288.59298706055</ele>
        <time>2009-11-08T11:00:16Z</time>
      </trkpt>
      <trkpt lat="45.24725" lon="4.87013">
        <ele>288.35800170898</ele>
        <time>2009-11-08T11:00:23Z</time>
      </trkpt>
      <trkpt lat="45.24704" lon="4.8706">
        <ele>288.74200439453</ele>
        <time>2009-11-08T11:00:30Z</time>
      </trkpt>
      <trkpt lat="45.24681" lon="4.87109">
        <ele>288.86801147461</ele>
        <time>2009-11-08T11:00:37Z</time>
      </trkpt>
      <trkpt lat="45.24675" lon="4.87123">
        <ele>289.26300048828</ele>
        <time>2009-11-08T11:00:39Z</time>
      </trkpt>
      <trkpt lat="45.24652" lon="4.87182">
        <ele>290.08499145508</ele>
        <time>2009-11-08T11:00:47Z</time>
      </trkpt>
      <trkpt lat="45.24643" lon="4.87235">
        <ele>290.83999633789</ele>
        <time>2009-11-08T11:00:54Z</time>
      </trkpt>
      <trkpt lat="45.24639" lon="4.87273">
        <ele>292.35000610352</ele>
        <time>2009-11-08T11:01:00Z</time>
      </trkpt>
      <trkpt lat="45.2464" lon="4.87307">
        <ele>293.91799926758</ele>
        <time>2009-11-08T11:01:06Z</time>
      </trkpt>
      <trkpt lat="45.24652" lon="4.87336">
        <ele>295.65100097656</ele>
        <time>2009-11-08T11:01:13Z</time>
      </trkpt>
      <trkpt lat="45.24671" lon="4.87362">
        <ele>296.4049987793</ele>
        <time>2009-11-08T11:01:19Z</time>
      </trkpt>
      <trkpt lat="45.2468" lon="4.87375">
        <ele>296.65200805664</ele>
        <time>2009-11-08T11:01:22Z</time>
      </trkpt>
      <trkpt lat="45.24702" lon="4.87399">
        <ele>295.93399047852</ele>
        <time>2009-11-08T11:01:28Z</time>
      </trkpt>
      <trkpt lat="45.24741" lon="4.87422">
        <ele>294.42599487305</ele>
        <time>2009-11-08T11:01:35Z</time>
      </trkpt>
      <trkpt lat="45.24784" lon="4.8744">
        <ele>292.19299316406</ele>
        <time>2009-11-08T11:01:41Z</time>
      </trkpt>
      <trkpt lat="45.24829" lon="4.87463">
        <ele>290.58999633789</ele>
        <time>2009-11-08T11:01:47Z</time>
      </trkpt>
      <trkpt lat="45.24857" lon="4.87498">
        <ele>290.72198486328</ele>
        <time>2009-11-08T11:01:52Z</time>
      </trkpt>
      <trkpt lat="45.24878" lon="4.87546">
        <ele>291.77200317383</ele>
        <time>2009-11-08T11:01:58Z</time>
      </trkpt>
      <trkpt lat="45.2488" lon="4.87581">
        <ele>291.67599487305</ele>
        <time>2009-11-08T11:02:02Z</time>
      </trkpt>
      <trkpt lat="45.24883" lon="4.87666">
        <ele>290.8330078125</ele>
        <time>2009-11-08T11:02:11Z</time>
      </trkpt>
      <trkpt lat="45.24889" lon="4.87727">
        <ele>290.07501220703</ele>
        <time>2009-11-08T11:02:17Z</time>
      </trkpt>
      <trkpt lat="45.24913" lon="4.8779">
        <ele>289.17700195312</ele>
        <time>2009-11-08T11:02:24Z</time>
      </trkpt>
      <trkpt lat="45.24948" lon="4.8787">
        <ele>288.48300170898</ele>
        <time>2009-11-08T11:02:33Z</time>
      </trkpt>
      <trkpt lat="45.24961" lon="4.87915">
        <ele>289.20098876953</ele>
        <time>2009-11-08T11:02:38Z</time>
      </trkpt>
      <trkpt lat="45.24973" lon="4.87986">
        <ele>289.51098632812</ele>
        <time>2009-11-08T11:02:46Z</time>
      </trkpt>
      <trkpt lat="45.24983" lon="4.88049">
        <ele>290.74899291992</ele>
        <time>2009-11-08T11:02:54Z</time>
      </trkpt>
      <trkpt lat="45.24994" lon="4.88097">
        <ele>291.57800292969</ele>
        <time>2009-11-08T11:03:01Z</time>
      </trkpt>
      <trkpt lat="45.25008" lon="4.88154">
        <ele>293.28500366211</ele>
        <time>2009-11-08T11:03:10Z</time>
      </trkpt>
      <trkpt lat="45.25024" lon="4.88202">
        <ele>294.97601318359</ele>
        <time>2009-11-08T11:03:19Z</time>
      </trkpt>
      <trkpt lat="45.25042" lon="4.88237">
        <ele>296.88500976562</ele>
        <time>2009-11-08T11:03:27Z</time>
      </trkpt>
      <trkpt lat="45.25051" lon="4.88276">
        <ele>298.85501098633</ele>
        <time>2009-11-08T11:03:35Z</time>
      </trkpt>
      <trkpt lat="45.25056" lon="4.88298">
        <ele>299.14099121094</ele>
        <time>2009-11-08T11:03:39Z</time>
      </trkpt>
      <trkpt lat="45.25062" lon="4.88339">
        <ele>300.10400390625</ele>
        <time>2009-11-08T11:03:46Z</time>
      </trkpt>
      <trkpt lat="45.25063" lon="4.88358">
        <ele>300.5119934082</ele>
        <time>2009-11-08T11:03:49Z</time>
      </trkpt>
      <trkpt lat="45.25056" lon="4.88388">
        <ele>300.10400390625</ele>
        <time>2009-11-08T11:03:54Z</time>
      </trkpt>
      <trkpt lat="45.25042" lon="4.88409">
        <ele>300.62899780273</ele>
        <time>2009-11-08T11:03:58Z</time>
      </trkpt>
      <trkpt lat="45.25025" lon="4.88417">
        <ele>300.88000488281</ele>
        <time>2009-11-08T11:04:02Z</time>
      </trkpt>
      <trkpt lat="45.25015" lon="4.88419">
        <ele>300.81201171875</ele>
        <time>2009-11-08T11:04:04Z</time>
      </trkpt>
      <trkpt lat="45.24973" lon="4.88401">
        <ele>301.47799682617</ele>
        <time>2009-11-08T11:04:12Z</time>
      </trkpt>
      <trkpt lat="45.24927" lon="4.88375">
        <ele>301.58898925781</ele>
        <time>2009-11-08T11:04:20Z</time>
      </trkpt>
      <trkpt lat="45.24881" lon="4.88368">
        <ele>302.23400878906</ele>
        <time>2009-11-08T11:04:27Z</time>
      </trkpt>
      <trkpt lat="45.24868" lon="4.88369">
        <ele>302.43399047852</ele>
        <time>2009-11-08T11:04:29Z</time>
      </trkpt>
      <trkpt lat="45.24827" lon="4.88396">
        <ele>303.31201171875</ele>
        <time>2009-11-08T11:04:36Z</time>
      </trkpt>
      <trkpt lat="45.24796" lon="4.88421">
        <ele>304.23400878906</ele>
        <time>2009-11-08T11:04:42Z</time>
      </trkpt>
      <trkpt lat="45.24763" lon="4.88457">
        <ele>302.92700195312</ele>
        <time>2009-11-08T11:04:48Z</time>
      </trkpt>
      <trkpt lat="45.24751" lon="4.88484">
        <ele>302.90600585938</ele>
        <time>2009-11-08T11:04:51Z</time>
      </trkpt>
      <trkpt lat="45.24742" lon="4.88522">
        <ele>302.28698730469</ele>
        <time>2009-11-08T11:04:55Z</time>
      </trkpt>
      <trkpt lat="45.24738" lon="4.88582">
        <ele>302.03698730469</ele>
        <time>2009-11-08T11:05:01Z</time>
      </trkpt>
      <trkpt lat="45.24744" lon="4.88665">
        <ele>301.24398803711</ele>
        <time>2009-11-08T11:05:09Z</time>
      </trkpt>
      <trkpt lat="45.24751" lon="4.88763">
        <ele>300.78100585938</ele>
        <time>2009-11-08T11:05:18Z</time>
      </trkpt>
      <trkpt lat="45.24757" lon="4.88849">
        <ele>300.95401000977</ele>
        <time>2009-11-08T11:05:26Z</time>
      </trkpt>
      <trkpt lat="45.24765" lon="4.88942">
        <ele>301.11199951172</ele>
        <time>2009-11-08T11:05:35Z</time>
      </trkpt>
      <trkpt lat="45.24781" lon="4.8901">
        <ele>299.65301513672</ele>
        <time>2009-11-08T11:05:42Z</time>
      </trkpt>
      <trkpt lat="45.24802" lon="4.89103">
        <ele>299.52099609375</ele>
        <time>2009-11-08T11:05:51Z</time>
      </trkpt>
      <trkpt lat="45.24819" lon="4.89178">
        <ele>299.83599853516</ele>
        <time>2009-11-08T11:05:59Z</time>
      </trkpt>
      <trkpt lat="45.24833" lon="4.89233">
        <ele>299.72198486328</ele>
        <time>2009-11-08T11:06:05Z</time>
      </trkpt>
      <trkpt lat="45.24864" lon="4.89277">
        <ele>299.125</ele>
        <time>2009-11-08T11:06:12Z</time>
      </trkpt>
      <trkpt lat="45.24895" lon="4.89321">
        <ele>299.69500732422</ele>
        <time>2009-11-08T11:06:19Z</time>
      </trkpt>
      <trkpt lat="45.24914" lon="4.89361">
        <ele>301.19500732422</ele>
        <time>2009-11-08T11:06:25Z</time>
      </trkpt>
      <trkpt lat="45.24929" lon="4.89396">
        <ele>303.0719909668</ele>
        <time>2009-11-08T11:06:32Z</time>
      </trkpt>
      <trkpt lat="45.24943" lon="4.89424">
        <ele>305.20498657227</ele>
        <time>2009-11-08T11:06:39Z</time>
      </trkpt>
      <trkpt lat="45.24946" lon="4.89427">
        <ele>305.28399658203</ele>
        <time>2009-11-08T11:06:40Z</time>
      </trkpt>
      <trkpt lat="45.2496" lon="4.8944">
        <ele>306.62600708008</ele>
        <time>2009-11-08T11:06:45Z</time>
      </trkpt>
      <trkpt lat="45.24987" lon="4.89465">
        <ele>308.24200439453</ele>
        <time>2009-11-08T11:06:53Z</time>
      </trkpt>
      <trkpt lat="45.25012" lon="4.89488">
        <ele>310.18499755859</ele>
        <time>2009-11-08T11:07:00Z</time>
      </trkpt>
      <trkpt lat="45.2504" lon="4.89514">
        <ele>311.52899169922</ele>
        <time>2009-11-08T11:07:06Z</time>
      </trkpt>
      <trkpt lat="45.25063" lon="4.89536">
        <ele>312.91000366211</ele>
        <time>2009-11-08T11:07:11Z</time>
      </trkpt>
      <trkpt lat="45.25103" lon="4.89572">
        <ele>314.68798828125</ele>
        <time>2009-11-08T11:07:20Z</time>
      </trkpt>
      <trkpt lat="45.25129" lon="4.89596">
        <ele>316.43798828125</ele>
        <time>2009-11-08T11:07:26Z</time>
      </trkpt>
      <trkpt lat="45.25159" lon="4.89624">
        <ele>316.81298828125</ele>
        <time>2009-11-08T11:07:34Z</time>
      </trkpt>
      <trkpt lat="45.25182" lon="4.89657">
        <ele>317.85699462891</ele>
        <time>2009-11-08T11:07:41Z</time>
      </trkpt>
      <trkpt lat="45.25192" lon="4.89678">
        <ele>318.67700195312</ele>
        <time>2009-11-08T11:07:45Z</time>
      </trkpt>
      <trkpt lat="45.25206" lon="4.89754">
        <ele>318.46899414062</ele>
        <time>2009-11-08T11:07:55Z</time>
      </trkpt>
      <trkpt lat="45.2522" lon="4.89835">
        <ele>319.28799438477</ele>
        <time>2009-11-08T11:08:06Z</time>
      </trkpt>
      <trkpt lat="45.25229" lon="4.89887">
        <ele>319.83401489258</ele>
        <time>2009-11-08T11:08:13Z</time>
      </trkpt>
      <trkpt lat="45.25235" lon="4.89921">
        <ele>319.39999389648</ele>
        <time>2009-11-08T11:08:17Z</time>
      </trkpt>
      <trkpt lat="45.25248" lon="4.89958">
        <ele>320.32800292969</ele>
        <time>2009-11-08T11:08:22Z</time>
      </trkpt>
      <trkpt lat="45.25264" lon="4.89982">
        <ele>322.43600463867</ele>
        <time>2009-11-08T11:08:28Z</time>
      </trkpt>
      <trkpt lat="45.25274" lon="4.89999">
        <ele>324.54098510742</ele>
        <time>2009-11-08T11:08:34Z</time>
      </trkpt>
      <trkpt lat="45.25285" lon="4.90016">
        <ele>326.97299194336</ele>
        <time>2009-11-08T11:08:41Z</time>
      </trkpt>
      <trkpt lat="45.25299" lon="4.90037">
        <ele>329.61700439453</ele>
        <time>2009-11-08T11:08:50Z</time>
      </trkpt>
      <trkpt lat="45.25313" lon="4.90059">
        <ele>331.52801513672</ele>
        <time>2009-11-08T11:08:58Z</time>
      </trkpt>
      <trkpt lat="45.25325" lon="4.90079">
        <ele>333.39801025391</ele>
        <time>2009-11-08T11:09:05Z</time>
      </trkpt>
      <trkpt lat="45.25338" lon="4.90098">
        <ele>335.36199951172</ele>
        <time>2009-11-08T11:09:12Z</time>
      </trkpt>
      <trkpt lat="45.25356" lon="4.90112">
        <ele>337.38198852539</ele>
        <time>2009-11-08T11:09:20Z</time>
      </trkpt>
      <trkpt lat="45.25371" lon="4.90129">
        <ele>340.0530090332</ele>
        <time>2009-11-08T11:09:28Z</time>
      </trkpt>
      <trkpt lat="45.25386" lon="4.90148">
        <ele>341.83898925781</ele>
        <time>2009-11-08T11:09:36Z</time>
      </trkpt>
      <trkpt lat="45.25395" lon="4.9017">
        <ele>343.23498535156</ele>
        <time>2009-11-08T11:09:43Z</time>
      </trkpt>
      <trkpt lat="45.25404" lon="4.90193">
        <ele>344.69400024414</ele>
        <time>2009-11-08T11:09:50Z</time>
      </trkpt>
      <trkpt lat="45.25417" lon="4.90223">
        <ele>346.54598999023</ele>
        <time>2009-11-08T11:09:59Z</time>
      </trkpt>
      <trkpt lat="45.25425" lon="4.90242">
        <ele>347.66000366211</ele>
        <time>2009-11-08T11:10:05Z</time>
      </trkpt>
      <trkpt lat="45.25436" lon="4.90269">
        <ele>349.93099975586</ele>
        <time>2009-11-08T11:10:13Z</time>
      </trkpt>
      <trkpt lat="45.25444" lon="4.90288">
        <ele>351.55599975586</ele>
        <time>2009-11-08T11:10:19Z</time>
      </trkpt>
      <trkpt lat="45.25454" lon="4.90312">
        <ele>353.05899047852</ele>
        <time>2009-11-08T11:10:26Z</time>
      </trkpt>
      <trkpt lat="45.25463" lon="4.90333">
        <ele>354.25</ele>
        <time>2009-11-08T11:10:32Z</time>
      </trkpt>
      <trkpt lat="45.25473" lon="4.90357">
        <ele>355.74099731445</ele>
        <time>2009-11-08T11:10:39Z</time>
      </trkpt>
      <trkpt lat="45.25482" lon="4.90379">
        <ele>356.98699951172</ele>
        <time>2009-11-08T11:10:45Z</time>
      </trkpt>
      <trkpt lat="45.25495" lon="4.90411">
        <ele>358.23901367188</ele>
        <time>2009-11-08T11:10:53Z</time>
      </trkpt>
      <trkpt lat="45.25497" lon="4.90414">
        <ele>358.49700927734</ele>
        <time>2009-11-08T11:10:54Z</time>
      </trkpt>
      <trkpt lat="45.25486" lon="4.90433">
        <ele>359.16299438477</ele>
        <time>2009-11-08T11:10:59Z</time>
      </trkpt>
      <trkpt lat="45.25467" lon="4.90451">
        <ele>359.74899291992</ele>
        <time>2009-11-08T11:11:06Z</time>
      </trkpt>
      <trkpt lat="45.25452" lon="4.90472">
        <ele>360.75698852539</ele>
        <time>2009-11-08T11:11:12Z</time>
      </trkpt>
      <trkpt lat="45.25436" lon="4.90475">
        <ele>361.57800292969</ele>
        <time>2009-11-08T11:11:17Z</time>
      </trkpt>
      <trkpt lat="45.25416" lon="4.90464">
        <ele>362.43301391602</ele>
        <time>2009-11-08T11:11:23Z</time>
      </trkpt>
      <trkpt lat="45.25393" lon="4.90443">
        <ele>363.1789855957</ele>
        <time>2009-11-08T11:11:30Z</time>
      </trkpt>
      <trkpt lat="45.25383" lon="4.90433">
        <ele>363.59100341797</ele>
        <time>2009-11-08T11:11:33Z</time>
      </trkpt>
      <trkpt lat="45.25354" lon="4.90406">
        <ele>364.12200927734</ele>
        <time>2009-11-08T11:11:41Z</time>
      </trkpt>
      <trkpt lat="45.25351" lon="4.90402">
        <ele>364.11401367188</ele>
        <time>2009-11-08T11:11:42Z</time>
      </trkpt>
      <trkpt lat="45.25327" lon="4.90397">
        <ele>363.88800048828</ele>
        <time>2009-11-08T11:11:47Z</time>
      </trkpt>
      <trkpt lat="45.25314" lon="4.90412">
        <ele>363.32400512695</ele>
        <time>2009-11-08T11:11:50Z</time>
      </trkpt>
      <trkpt lat="45.25309" lon="4.90439">
        <ele>362.40200805664</ele>
        <time>2009-11-08T11:11:53Z</time>
      </trkpt>
      <trkpt lat="45.25312" lon="4.90458">
        <ele>360.56399536133</ele>
        <time>2009-11-08T11:11:55Z</time>
      </trkpt>
      <trkpt lat="45.25318" lon="4.90468">
        <ele>360.27801513672</ele>
        <time>2009-11-08T11:11:56Z</time>
      </trkpt>
      <trkpt lat="45.25335" lon="4.90497">
        <ele>358.72198486328</ele>
        <time>2009-11-08T11:11:59Z</time>
      </trkpt>
      <trkpt lat="45.25346" lon="4.90518">
        <ele>356.44198608398</ele>
        <time>2009-11-08T11:12:01Z</time>
      </trkpt>
      <trkpt lat="45.25379" lon="4.90576">
        <ele>352.01000976562</ele>
        <time>2009-11-08T11:12:06Z</time>
      </trkpt>
      <trkpt lat="45.25396" lon="4.90617">
        <ele>349.37701416016</ele>
        <time>2009-11-08T11:12:09Z</time>
      </trkpt>
      <trkpt lat="45.25402" lon="4.90631">
        <ele>348.24301147461</ele>
        <time>2009-11-08T11:12:10Z</time>
      </trkpt>
      <trkpt lat="45.25421" lon="4.90712">
        <ele>342.86599731445</ele>
        <time>2009-11-08T11:12:15Z</time>
      </trkpt>
      <trkpt lat="45.25425" lon="4.9073">
        <ele>341.95401000977</ele>
        <time>2009-11-08T11:12:16Z</time>
      </trkpt>
      <trkpt lat="45.25436" lon="4.908">
        <ele>338.48699951172</ele>
        <time>2009-11-08T11:12:20Z</time>
      </trkpt>
      <trkpt lat="45.2542" lon="4.90851">
        <ele>335.51599121094</ele>
        <time>2009-11-08T11:12:23Z</time>
      </trkpt>
      <trkpt lat="45.25414" lon="4.90867">
        <ele>333.80200195312</ele>
        <time>2009-11-08T11:12:24Z</time>
      </trkpt>
      <trkpt lat="45.25402" lon="4.909">
        <ele>331.92001342773</ele>
        <time>2009-11-08T11:12:26Z</time>
      </trkpt>
      <trkpt lat="45.25389" lon="4.90962">
        <ele>327.02099609375</ele>
        <time>2009-11-08T11:12:30Z</time>
      </trkpt>
      <trkpt lat="45.25393" lon="4.90995">
        <ele>324.86499023438</ele>
        <time>2009-11-08T11:12:33Z</time>
      </trkpt>
      <trkpt lat="45.25449" lon="4.91071">
        <ele>318.74600219727</ele>
        <time>2009-11-08T11:12:39Z</time>
      </trkpt>
      <trkpt lat="45.25468" lon="4.91093">
        <ele>317.48498535156</ele>
        <time>2009-11-08T11:12:41Z</time>
      </trkpt>
      <trkpt lat="45.25499" lon="4.91142">
        <ele>313.44000244141</ele>
        <time>2009-11-08T11:12:45Z</time>
      </trkpt>
      <trkpt lat="45.25512" lon="4.912">
        <ele>308.77499389648</ele>
        <time>2009-11-08T11:12:49Z</time>
      </trkpt>
      <trkpt lat="45.25513" lon="4.91243">
        <ele>306.54699707031</ele>
        <time>2009-11-08T11:12:53Z</time>
      </trkpt>
      <trkpt lat="45.255" lon="4.91252">
        <ele>305.71200561523</ele>
        <time>2009-11-08T11:12:55Z</time>
      </trkpt>
      <trkpt lat="45.25477" lon="4.9124">
        <ele>303.65798950195</ele>
        <time>2009-11-08T11:12:58Z</time>
      </trkpt>
      <trkpt lat="45.25452" lon="4.91228">
        <ele>301.64599609375</ele>
        <time>2009-11-08T11:13:01Z</time>
      </trkpt>
      <trkpt lat="45.25417" lon="4.91221">
        <ele>297.79501342773</ele>
        <time>2009-11-08T11:13:05Z</time>
      </trkpt>
      <trkpt lat="45.25388" lon="4.9124">
        <ele>295.75799560547</ele>
        <time>2009-11-08T11:13:08Z</time>
      </trkpt>
      <trkpt lat="45.25367" lon="4.91256">
        <ele>293.92999267578</ele>
        <time>2009-11-08T11:13:10Z</time>
      </trkpt>
      <trkpt lat="45.25328" lon="4.91295">
        <ele>290.16299438477</ele>
        <time>2009-11-08T11:13:14Z</time>
      </trkpt>
      <trkpt lat="45.25297" lon="4.91327">
        <ele>287.76699829102</ele>
        <time>2009-11-08T11:13:17Z</time>
      </trkpt>
      <trkpt lat="45.25287" lon="4.91334">
        <ele>287.60501098633</ele>
        <time>2009-11-08T11:13:18Z</time>
      </trkpt>
      <trkpt lat="45.25255" lon="4.91356">
        <ele>284.55599975586</ele>
        <time>2009-11-08T11:13:21Z</time>
      </trkpt>
      <trkpt lat="45.25247" lon="4.91391">
        <ele>283.06698608398</ele>
        <time>2009-11-08T11:13:24Z</time>
      </trkpt>
      <trkpt lat="45.25257" lon="4.91427">
        <ele>280.23400878906</ele>
        <time>2009-11-08T11:13:27Z</time>
      </trkpt>
      <trkpt lat="45.25274" lon="4.91464">
        <ele>277.72500610352</ele>
        <time>2009-11-08T11:13:30Z</time>
      </trkpt>
      <trkpt lat="45.25289" lon="4.91487">
        <ele>276.22299194336</ele>
        <time>2009-11-08T11:13:32Z</time>
      </trkpt>
      <trkpt lat="45.25301" lon="4.91513">
        <ele>274.69900512695</ele>
        <time>2009-11-08T11:13:34Z</time>
      </trkpt>
      <trkpt lat="45.25306" lon="4.91558">
        <ele>272.36099243164</ele>
        <time>2009-11-08T11:13:37Z</time>
      </trkpt>
      <trkpt lat="45.25304" lon="4.91575">
        <ele>271.25500488281</ele>
        <time>2009-11-08T11:13:38Z</time>
      </trkpt>
      <trkpt lat="45.25301" lon="4.91639">
        <ele>266.18200683594</ele>
        <time>2009-11-08T11:13:42Z</time>
      </trkpt>
      <trkpt lat="45.25312" lon="4.91667">
        <ele>264.09201049805</ele>
        <time>2009-11-08T11:13:44Z</time>
      </trkpt>
      <trkpt lat="45.25351" lon="4.91707">
        <ele>260.09298706055</ele>
        <time>2009-11-08T11:13:48Z</time>
      </trkpt>
      <trkpt lat="45.25377" lon="4.91744">
        <ele>256.67001342773</ele>
        <time>2009-11-08T11:13:51Z</time>
      </trkpt>
      <trkpt lat="45.25385" lon="4.9176">
        <ele>255.94400024414</ele>
        <time>2009-11-08T11:13:52Z</time>
      </trkpt>
      <trkpt lat="45.25395" lon="4.91815">
        <ele>254.58599853516</ele>
        <time>2009-11-08T11:13:55Z</time>
      </trkpt>
      <trkpt lat="45.25399" lon="4.91832">
        <ele>254.20799255371</ele>
        <time>2009-11-08T11:13:56Z</time>
      </trkpt>
      <trkpt lat="45.25407" lon="4.91899">
        <ele>252.25799560547</ele>
        <time>2009-11-08T11:14:00Z</time>
      </trkpt>
      <trkpt lat="45.25409" lon="4.91944">
        <ele>251.20100402832</ele>
        <time>2009-11-08T11:14:03Z</time>
      </trkpt>
      <trkpt lat="45.25406" lon="4.92">
        <ele>249.22999572754</ele>
        <time>2009-11-08T11:14:07Z</time>
      </trkpt>
      <trkpt lat="45.25384" lon="4.92031">
        <ele>247.40699768066</ele>
        <time>2009-11-08T11:14:10Z</time>
      </trkpt>
      <trkpt lat="45.25368" lon="4.92047">
        <ele>246.92100524902</ele>
        <time>2009-11-08T11:14:12Z</time>
      </trkpt>
      <trkpt lat="45.25313" lon="4.92088">
        <ele>248.10000610352</ele>
        <time>2009-11-08T11:14:19Z</time>
      </trkpt>
      <trkpt lat="45.2529" lon="4.92104">
        <ele>249.42799377441</ele>
        <time>2009-11-08T11:14:23Z</time>
      </trkpt>
      <trkpt lat="45.25271" lon="4.92118">
        <ele>250.70799255371</ele>
        <time>2009-11-08T11:14:27Z</time>
      </trkpt>
      <trkpt lat="45.25262" lon="4.92124">
        <ele>250.88200378418</ele>
        <time>2009-11-08T11:14:29Z</time>
      </trkpt>
      <trkpt lat="45.25233" lon="4.92146">
        <ele>252.22799682617</ele>
        <time>2009-11-08T11:14:37Z</time>
      </trkpt>
      <trkpt lat="45.25219" lon="4.92157">
        <ele>253.12699890137</ele>
        <time>2009-11-08T11:14:41Z</time>
      </trkpt>
      <trkpt lat="45.252" lon="4.9217">
        <ele>254.00199890137</ele>
        <time>2009-11-08T11:14:46Z</time>
      </trkpt>
      <trkpt lat="45.25188" lon="4.92179">
        <ele>254.63400268555</ele>
        <time>2009-11-08T11:14:49Z</time>
      </trkpt>
      <trkpt lat="45.25161" lon="4.92199">
        <ele>256.11099243164</ele>
        <time>2009-11-08T11:14:56Z</time>
      </trkpt>
      <trkpt lat="45.25153" lon="4.92205">
        <ele>256.62899780273</ele>
        <time>2009-11-08T11:15:01Z</time>
      </trkpt>
      <trkpt lat="45.25153" lon="4.92205">
        <ele>256.30999755859</ele>
        <time>2009-11-08T11:15:05Z</time>
      </trkpt>
      <trkpt lat="45.25153" lon="4.92205">
        <ele>256.16400146484</ele>
        <time>2009-11-08T11:15:09Z</time>
      </trkpt>
      <trkpt lat="45.25127" lon="4.92209">
        <ele>255.99000549316</ele>
        <time>2009-11-08T11:15:11Z</time>
      </trkpt>
      <trkpt lat="45.25127" lon="4.92209">
        <ele>256.0299987793</ele>
        <time>2009-11-08T11:15:15Z</time>
      </trkpt>
      <trkpt lat="45.25127" lon="4.92227">
        <ele>257.37200927734</ele>
        <time>2009-11-08T11:15:20Z</time>
      </trkpt>
      <trkpt lat="45.25127" lon="4.92244">
        <ele>257.66900634766</ele>
        <time>2009-11-08T11:15:23Z</time>
      </trkpt>
      <trkpt lat="45.25127" lon="4.9227">
        <ele>257.99398803711</ele>
        <time>2009-11-08T11:15:27Z</time>
      </trkpt>
      <trkpt lat="45.25127" lon="4.92322">
        <ele>259.15798950195</ele>
        <time>2009-11-08T11:15:35Z</time>
      </trkpt>
      <trkpt lat="45.25127" lon="4.92367">
        <ele>260.06399536133</ele>
        <time>2009-11-08T11:15:42Z</time>
      </trkpt>
      <trkpt lat="45.25127" lon="4.92423">
        <ele>261.29800415039</ele>
        <time>2009-11-08T11:15:51Z</time>
      </trkpt>
      <trkpt lat="45.25124" lon="4.92443">
        <ele>261.65301513672</ele>
        <time>2009-11-08T11:15:54Z</time>
      </trkpt>
      <trkpt lat="45.25122" lon="4.92455">
        <ele>261.96798706055</ele>
        <time>2009-11-08T11:15:56Z</time>
      </trkpt>
      <trkpt lat="45.25118" lon="4.92475">
        <ele>262.99899291992</ele>
        <time>2009-11-08T11:16:05Z</time>
      </trkpt>
      <trkpt lat="45.25082" lon="4.92585">
        <ele>264.33898925781</ele>
        <time>2009-11-08T11:16:16Z</time>
      </trkpt>
      <trkpt lat="45.25068" lon="4.92632">
        <ele>264.66799926758</ele>
        <time>2009-11-08T11:16:24Z</time>
      </trkpt>
      <trkpt lat="45.25066" lon="4.92638">
        <ele>264.66598510742</ele>
        <time>2009-11-08T11:16:25Z</time>
      </trkpt>
      <trkpt lat="45.2506" lon="4.92695">
        <ele>266.58401489258</ele>
        <time>2009-11-08T11:16:34Z</time>
      </trkpt>
      <trkpt lat="45.2506" lon="4.92722">
        <ele>266.52801513672</ele>
        <time>2009-11-08T11:16:38Z</time>
      </trkpt>
      <trkpt lat="45.25069" lon="4.9277">
        <ele>266.91101074219</ele>
        <time>2009-11-08T11:16:45Z</time>
      </trkpt>
      <trkpt lat="45.25077" lon="4.928">
        <ele>266.46099853516</ele>
        <time>2009-11-08T11:16:50Z</time>
      </trkpt>
      <trkpt lat="45.25095" lon="4.9287">
        <ele>267.80099487305</ele>
        <time>2009-11-08T11:17:01Z</time>
      </trkpt>
      <trkpt lat="45.2511" lon="4.92925">
        <ele>269.09600830078</ele>
        <time>2009-11-08T11:17:10Z</time>
      </trkpt>
      <trkpt lat="45.2513" lon="4.92969">
        <ele>269.70999145508</ele>
        <time>2009-11-08T11:17:18Z</time>
      </trkpt>
      <trkpt lat="45.25159" lon="4.93014">
        <ele>269.14599609375</ele>
        <time>2009-11-08T11:17:26Z</time>
      </trkpt>
      <trkpt lat="45.25187" lon="4.93057">
        <ele>268.82901000977</ele>
        <time>2009-11-08T11:17:33Z</time>
      </trkpt>
      <trkpt lat="45.25225" lon="4.93116">
        <ele>267.76098632812</ele>
        <time>2009-11-08T11:17:42Z</time>
      </trkpt>
      <trkpt lat="45.25272" lon="4.93189">
        <ele>266.79598999023</ele>
        <time>2009-11-08T11:17:53Z</time>
      </trkpt>
      <trkpt lat="45.25308" lon="4.93245">
        <ele>266.40899658203</ele>
        <time>2009-11-08T11:18:01Z</time>
      </trkpt>
      <trkpt lat="45.25323" lon="4.93263">
        <ele>266.35101318359</ele>
        <time>2009-11-08T11:18:04Z</time>
      </trkpt>
      <trkpt lat="45.25363" lon="4.93294">
        <ele>265.89898681641</ele>
        <time>2009-11-08T11:18:11Z</time>
      </trkpt>
      <trkpt lat="45.25413" lon="4.93329">
        <ele>264.87799072266</ele>
        <time>2009-11-08T11:18:19Z</time>
      </trkpt>
      <trkpt lat="45.25458" lon="4.93361">
        <ele>265.15100097656</ele>
        <time>2009-11-08T11:18:26Z</time>
      </trkpt>
      <trkpt lat="45.25493" lon="4.93392">
        <ele>264.21499633789</ele>
        <time>2009-11-08T11:18:32Z</time>
      </trkpt>
      <trkpt lat="45.25502" lon="4.93405">
        <ele>264.48699951172</ele>
        <time>2009-11-08T11:18:34Z</time>
      </trkpt>
      <trkpt lat="45.25514" lon="4.93436">
        <ele>263.74200439453</ele>
        <time>2009-11-08T11:18:38Z</time>
      </trkpt>
      <trkpt lat="45.25523" lon="4.93487">
        <ele>263.36999511719</ele>
        <time>2009-11-08T11:18:45Z</time>
      </trkpt>
      <trkpt lat="45.25533" lon="4.93539">
        <ele>264.94900512695</ele>
        <time>2009-11-08T11:18:53Z</time>
      </trkpt>
      <trkpt lat="45.25546" lon="4.93593">
        <ele>264.94299316406</ele>
        <time>2009-11-08T11:19:02Z</time>
      </trkpt>
      <trkpt lat="45.25563" lon="4.93642">
        <ele>267.10800170898</ele>
        <time>2009-11-08T11:19:11Z</time>
      </trkpt>
      <trkpt lat="45.25578" lon="4.93683">
        <ele>267.68899536133</ele>
        <time>2009-11-08T11:19:19Z</time>
      </trkpt>
      <trkpt lat="45.25593" lon="4.93724">
        <ele>267.67999267578</ele>
        <time>2009-11-08T11:19:27Z</time>
      </trkpt>
      <trkpt lat="45.25611" lon="4.93772">
        <ele>267.67401123047</ele>
        <time>2009-11-08T11:19:37Z</time>
      </trkpt>
      <trkpt lat="45.25623" lon="4.93804">
        <ele>271.9169921875</ele>
        <time>2009-11-08T11:19:44Z</time>
      </trkpt>
      <trkpt lat="45.25633" lon="4.93831">
        <ele>272.67199707031</ele>
        <time>2009-11-08T11:19:50Z</time>
      </trkpt>
      <trkpt lat="45.25648" lon="4.93875">
        <ele>273.05499267578</ele>
        <time>2009-11-08T11:19:59Z</time>
      </trkpt>
      <trkpt lat="45.25657" lon="4.93917">
        <ele>275.28698730469</ele>
        <time>2009-11-08T11:20:07Z</time>
      </trkpt>
      <trkpt lat="45.25657" lon="4.93922">
        <ele>275.42498779297</ele>
        <time>2009-11-08T11:20:08Z</time>
      </trkpt>
      <trkpt lat="45.25657" lon="4.93969">
        <ele>276.16299438477</ele>
        <time>2009-11-08T11:20:16Z</time>
      </trkpt>
      <trkpt lat="45.25657" lon="4.93994">
        <ele>276.50601196289</ele>
        <time>2009-11-08T11:20:20Z</time>
      </trkpt>
      <trkpt lat="45.25649" lon="4.94005">
        <ele>276.83801269531</ele>
        <time>2009-11-08T11:20:23Z</time>
      </trkpt>
      <trkpt lat="45.25636" lon="4.93998">
        <ele>277.10101318359</ele>
        <time>2009-11-08T11:20:26Z</time>
      </trkpt>
      <trkpt lat="45.25632" lon="4.93996">
        <ele>277.5</ele>
        <time>2009-11-08T11:20:27Z</time>
      </trkpt>
      <trkpt lat="45.2561" lon="4.93984">
        <ele>280.33499145508</ele>
        <time>2009-11-08T11:20:34Z</time>
      </trkpt>
      <trkpt lat="45.25589" lon="4.93971">
        <ele>283.33499145508</ele>
        <time>2009-11-08T11:20:43Z</time>
      </trkpt>
      <trkpt lat="45.25573" lon="4.93962">
        <ele>285.71499633789</ele>
        <time>2009-11-08T11:20:50Z</time>
      </trkpt>
      <trkpt lat="45.2556" lon="4.93956">
        <ele>288.03298950195</ele>
        <time>2009-11-08T11:20:56Z</time>
      </trkpt>
      <trkpt lat="45.25543" lon="4.93955">
        <ele>290.31100463867</ele>
        <time>2009-11-08T11:21:03Z</time>
      </trkpt>
      <trkpt lat="45.25521" lon="4.93955">
        <ele>291.73901367188</ele>
        <time>2009-11-08T11:21:10Z</time>
      </trkpt>
      <trkpt lat="45.25502" lon="4.93955">
        <ele>292.62799072266</ele>
        <time>2009-11-08T11:21:16Z</time>
      </trkpt>
      <trkpt lat="45.25472" lon="4.93958">
        <ele>294.58599853516</ele>
        <time>2009-11-08T11:21:25Z</time>
      </trkpt>
      <trkpt lat="45.25432" lon="4.93972">
        <ele>295.43499755859</ele>
        <time>2009-11-08T11:21:36Z</time>
      </trkpt>
      <trkpt lat="45.25398" lon="4.93993">
        <ele>297.31900024414</ele>
        <time>2009-11-08T11:21:46Z</time>
      </trkpt>
      <trkpt lat="45.25368" lon="4.94012">
        <ele>298.80599975586</ele>
        <time>2009-11-08T11:21:55Z</time>
      </trkpt>
      <trkpt lat="45.25327" lon="4.94036">
        <ele>300.81900024414</ele>
        <time>2009-11-08T11:22:07Z</time>
      </trkpt>
      <trkpt lat="45.25291" lon="4.94058">
        <ele>302.75</ele>
        <time>2009-11-08T11:22:18Z</time>
      </trkpt>
      <trkpt lat="45.25261" lon="4.94074">
        <ele>304.39801025391</ele>
        <time>2009-11-08T11:22:27Z</time>
      </trkpt>
      <trkpt lat="45.25222" lon="4.94096">
        <ele>307.12899780273</ele>
        <time>2009-11-08T11:22:39Z</time>
      </trkpt>
      <trkpt lat="45.25197" lon="4.94112">
        <ele>309.10598754883</ele>
        <time>2009-11-08T11:22:47Z</time>
      </trkpt>
      <trkpt lat="45.25174" lon="4.94126">
        <ele>311.21200561523</ele>
        <time>2009-11-08T11:22:55Z</time>
      </trkpt>
      <trkpt lat="45.25151" lon="4.9414">
        <ele>313.19198608398</ele>
        <time>2009-11-08T11:23:03Z</time>
      </trkpt>
      <trkpt lat="45.25135" lon="4.94154">
        <ele>315.53399658203</ele>
        <time>2009-11-08T11:23:10Z</time>
      </trkpt>
      <trkpt lat="45.25121" lon="4.94164">
        <ele>317.13299560547</ele>
        <time>2009-11-08T11:23:16Z</time>
      </trkpt>
      <trkpt lat="45.2511" lon="4.94173">
        <ele>319.35000610352</ele>
        <time>2009-11-08T11:23:22Z</time>
      </trkpt>
      <trkpt lat="45.25102" lon="4.94176">
        <ele>320.76300048828</ele>
        <time>2009-11-08T11:23:26Z</time>
      </trkpt>
      <trkpt lat="45.25085" lon="4.94172">
        <ele>323.67001342773</ele>
        <time>2009-11-08T11:23:34Z</time>
      </trkpt>
      <trkpt lat="45.25063" lon="4.94163">
        <ele>325.5830078125</ele>
        <time>2009-11-08T11:23:42Z</time>
      </trkpt>
      <trkpt lat="45.25043" lon="4.94157">
        <ele>327.13800048828</ele>
        <time>2009-11-08T11:23:49Z</time>
      </trkpt>
      <trkpt lat="45.25021" lon="4.94151">
        <ele>328.93899536133</ele>
        <time>2009-11-08T11:23:56Z</time>
      </trkpt>
      <trkpt lat="45.2499" lon="4.94146">
        <ele>330.52099609375</ele>
        <time>2009-11-08T11:24:05Z</time>
      </trkpt>
      <trkpt lat="45.24964" lon="4.94138">
        <ele>332.78201293945</ele>
        <time>2009-11-08T11:24:12Z</time>
      </trkpt>
      <trkpt lat="45.24953" lon="4.94129">
        <ele>334.08898925781</ele>
        <time>2009-11-08T11:24:15Z</time>
      </trkpt>
      <trkpt lat="45.24926" lon="4.94103">
        <ele>337.05599975586</ele>
        <time>2009-11-08T11:24:23Z</time>
      </trkpt>
      <trkpt lat="45.249" lon="4.94081">
        <ele>337.90301513672</ele>
        <time>2009-11-08T11:24:30Z</time>
      </trkpt>
      <trkpt lat="45.24884" lon="4.94076">
        <ele>339.67599487305</ele>
        <time>2009-11-08T11:24:34Z</time>
      </trkpt>
      <trkpt lat="45.24863" lon="4.94082">
        <ele>340.67300415039</ele>
        <time>2009-11-08T11:24:40Z</time>
      </trkpt>
      <trkpt lat="45.24841" lon="4.94101">
        <ele>342.54901123047</ele>
        <time>2009-11-08T11:24:47Z</time>
      </trkpt>
      <trkpt lat="45.24818" lon="4.94121">
        <ele>344.81100463867</ele>
        <time>2009-11-08T11:24:54Z</time>
      </trkpt>
      <trkpt lat="45.24781" lon="4.94131">
        <ele>347.13000488281</ele>
        <time>2009-11-08T11:25:03Z</time>
      </trkpt>
      <trkpt lat="45.24755" lon="4.94134">
        <ele>348.81600952148</ele>
        <time>2009-11-08T11:25:10Z</time>
      </trkpt>
      <trkpt lat="45.24742" lon="4.94133">
        <ele>350.42700195312</ele>
        <time>2009-11-08T11:25:15Z</time>
      </trkpt>
      <trkpt lat="45.24718" lon="4.94131">
        <ele>353.95999145508</ele>
        <time>2009-11-08T11:25:24Z</time>
      </trkpt>
      <trkpt lat="45.24697" lon="4.94124">
        <ele>356.22900390625</ele>
        <time>2009-11-08T11:25:32Z</time>
      </trkpt>
      <trkpt lat="45.2468" lon="4.9412">
        <ele>357.91101074219</ele>
        <time>2009-11-08T11:25:38Z</time>
      </trkpt>
      <trkpt lat="45.24663" lon="4.94118">
        <ele>360.20001220703</ele>
        <time>2009-11-08T11:25:45Z</time>
      </trkpt>
      <trkpt lat="45.24644" lon="4.94117">
        <ele>362.51000976562</ele>
        <time>2009-11-08T11:25:53Z</time>
      </trkpt>
      <trkpt lat="45.24627" lon="4.94117">
        <ele>363.99200439453</ele>
        <time>2009-11-08T11:25:59Z</time>
      </trkpt>
      <trkpt lat="45.24606" lon="4.94117">
        <ele>366.74200439453</ele>
        <time>2009-11-08T11:26:07Z</time>
      </trkpt>
      <trkpt lat="45.24591" lon="4.94115">
        <ele>368.54299926758</ele>
        <time>2009-11-08T11:26:13Z</time>
      </trkpt>
      <trkpt lat="45.24572" lon="4.94113">
        <ele>370.64300537109</ele>
        <time>2009-11-08T11:26:20Z</time>
      </trkpt>
      <trkpt lat="45.24557" lon="4.9412">
        <ele>371.89898681641</ele>
        <time>2009-11-08T11:26:25Z</time>
      </trkpt>
      <trkpt lat="45.24538" lon="4.94138">
        <ele>373.94000244141</ele>
        <time>2009-11-08T11:26:31Z</time>
      </trkpt>
      <trkpt lat="45.24524" lon="4.94155">
        <ele>374.73400878906</ele>
        <time>2009-11-08T11:26:36Z</time>
      </trkpt>
      <trkpt lat="45.24507" lon="4.94177">
        <ele>376.14001464844</ele>
        <time>2009-11-08T11:26:42Z</time>
      </trkpt>
      <trkpt lat="45.24483" lon="4.94206">
        <ele>376.78900146484</ele>
        <time>2009-11-08T11:26:49Z</time>
      </trkpt>
      <trkpt lat="45.24448" lon="4.94245">
        <ele>377.95498657227</ele>
        <time>2009-11-08T11:26:59Z</time>
      </trkpt>
      <trkpt lat="45.24419" lon="4.94281">
        <ele>378.83200073242</ele>
        <time>2009-11-08T11:27:07Z</time>
      </trkpt>
      <trkpt lat="45.24393" lon="4.94303">
        <ele>378.59399414062</ele>
        <time>2009-11-08T11:27:13Z</time>
      </trkpt>
      <trkpt lat="45.24361" lon="4.94326">
        <ele>378.36801147461</ele>
        <time>2009-11-08T11:27:20Z</time>
      </trkpt>
      <trkpt lat="45.2433" lon="4.94359">
        <ele>379.36599731445</ele>
        <time>2009-11-08T11:27:27Z</time>
      </trkpt>
      <trkpt lat="45.24292" lon="4.94401">
        <ele>379.875</ele>
        <time>2009-11-08T11:27:35Z</time>
      </trkpt>
      <trkpt lat="45.24251" lon="4.94447">
        <ele>380.90301513672</ele>
        <time>2009-11-08T11:27:44Z</time>
      </trkpt>
      <trkpt lat="45.24213" lon="4.94485">
        <ele>381.70700073242</ele>
        <time>2009-11-08T11:27:53Z</time>
      </trkpt>
      <trkpt lat="45.24176" lon="4.94519">
        <ele>382.74499511719</ele>
        <time>2009-11-08T11:28:02Z</time>
      </trkpt>
      <trkpt lat="45.24132" lon="4.94558">
        <ele>383.60501098633</ele>
        <time>2009-11-08T11:28:12Z</time>
      </trkpt>
      <trkpt lat="45.24092" lon="4.9459">
        <ele>384.23001098633</ele>
        <time>2009-11-08T11:28:20Z</time>
      </trkpt>
      <trkpt lat="45.24048" lon="4.94616">
        <ele>384.99798583984</ele>
        <time>2009-11-08T11:28:28Z</time>
      </trkpt>
      <trkpt lat="45.23991" lon="4.94646">
        <ele>385.93899536133</ele>
        <time>2009-11-08T11:28:38Z</time>
      </trkpt>
      <trkpt lat="45.23943" lon="4.94671">
        <ele>386.57299804688</ele>
        <time>2009-11-08T11:28:46Z</time>
      </trkpt>
      <trkpt lat="45.23892" lon="4.947">
        <ele>386.39999389648</ele>
        <time>2009-11-08T11:28:54Z</time>
      </trkpt>
      <trkpt lat="45.23867" lon="4.94717">
        <ele>386.48699951172</ele>
        <time>2009-11-08T11:28:58Z</time>
      </trkpt>
      <trkpt lat="45.23855" lon="4.94736">
        <ele>386.86599731445</ele>
        <time>2009-11-08T11:29:02Z</time>
      </trkpt>
      <trkpt lat="45.23856" lon="4.94758">
        <ele>387.38500976562</ele>
        <time>2009-11-08T11:29:06Z</time>
      </trkpt>
      <trkpt lat="45.23862" lon="4.9478">
        <ele>387.56799316406</ele>
        <time>2009-11-08T11:29:09Z</time>
      </trkpt>
      <trkpt lat="45.23869" lon="4.94814">
        <ele>389.10501098633</ele>
        <time>2009-11-08T11:29:13Z</time>
      </trkpt>
      <trkpt lat="45.23872" lon="4.94829">
        <ele>388.85198974609</ele>
        <time>2009-11-08T11:29:15Z</time>
      </trkpt>
      <trkpt lat="45.23879" lon="4.94849">
        <ele>389.04699707031</ele>
        <time>2009-11-08T11:29:18Z</time>
      </trkpt>
      <trkpt lat="45.23897" lon="4.94875">
        <ele>389.65701293945</ele>
        <time>2009-11-08T11:29:23Z</time>
      </trkpt>
      <trkpt lat="45.23919" lon="4.94899">
        <ele>389.64401245117</ele>
        <time>2009-11-08T11:29:28Z</time>
      </trkpt>
      <trkpt lat="45.23958" lon="4.94935">
        <ele>389.32000732422</ele>
        <time>2009-11-08T11:29:36Z</time>
      </trkpt>
      <trkpt lat="45.23967" lon="4.94943">
        <ele>389.0719909668</ele>
        <time>2009-11-08T11:29:38Z</time>
      </trkpt>
      <trkpt lat="45.23982" lon="4.94959">
        <ele>388.53799438477</ele>
        <time>2009-11-08T11:29:42Z</time>
      </trkpt>
      <trkpt lat="45.23979" lon="4.94968">
        <ele>388.72900390625</ele>
        <time>2009-11-08T11:29:44Z</time>
      </trkpt>
      <trkpt lat="45.23975" lon="4.9497">
        <ele>389.07699584961</ele>
        <time>2009-11-08T11:29:45Z</time>
      </trkpt>
      <trkpt lat="45.23942" lon="4.94989">
        <ele>390.03298950195</ele>
        <time>2009-11-08T11:29:52Z</time>
      </trkpt>
      <trkpt lat="45.23909" lon="4.95007">
        <ele>390.4289855957</ele>
        <time>2009-11-08T11:29:58Z</time>
      </trkpt>
      <trkpt lat="45.23878" lon="4.9502">
        <ele>389.82400512695</ele>
        <time>2009-11-08T11:30:03Z</time>
      </trkpt>
      <trkpt lat="45.2385" lon="4.95021">
        <ele>389.93399047852</ele>
        <time>2009-11-08T11:30:07Z</time>
      </trkpt>
      <trkpt lat="45.23801" lon="4.95002">
        <ele>388.61199951172</ele>
        <time>2009-11-08T11:30:14Z</time>
      </trkpt>
      <trkpt lat="45.23758" lon="4.94982">
        <ele>386.60699462891</ele>
        <time>2009-11-08T11:30:19Z</time>
      </trkpt>
      <trkpt lat="45.237" lon="4.94955">
        <ele>383.49899291992</ele>
        <time>2009-11-08T11:30:25Z</time>
      </trkpt>
      <trkpt lat="45.2369" lon="4.9495">
        <ele>382.99099731445</ele>
        <time>2009-11-08T11:30:26Z</time>
      </trkpt>
      <trkpt lat="45.23661" lon="4.94958">
        <ele>380.83200073242</ele>
        <time>2009-11-08T11:30:29Z</time>
      </trkpt>
      <trkpt lat="45.23657" lon="4.94989">
        <ele>379.95700073242</ele>
        <time>2009-11-08T11:30:31Z</time>
      </trkpt>
      <trkpt lat="45.2366" lon="4.95004">
        <ele>379.34600830078</ele>
        <time>2009-11-08T11:30:32Z</time>
      </trkpt>
      <trkpt lat="45.23677" lon="4.95113">
        <ele>371.85598754883</ele>
        <time>2009-11-08T11:30:39Z</time>
      </trkpt>
      <trkpt lat="45.2368" lon="4.95129">
        <ele>371.65399169922</ele>
        <time>2009-11-08T11:30:40Z</time>
      </trkpt>
      <trkpt lat="45.2369" lon="4.95159">
        <ele>369.81500244141</ele>
        <time>2009-11-08T11:30:42Z</time>
      </trkpt>
      <trkpt lat="45.23696" lon="4.95174">
        <ele>368.66101074219</ele>
        <time>2009-11-08T11:30:43Z</time>
      </trkpt>
      <trkpt lat="45.23702" lon="4.95187">
        <ele>368.52801513672</ele>
        <time>2009-11-08T11:30:44Z</time>
      </trkpt>
      <trkpt lat="45.23721" lon="4.95229">
        <ele>366.72799682617</ele>
        <time>2009-11-08T11:30:47Z</time>
      </trkpt>
      <trkpt lat="45.23749" lon="4.95301">
        <ele>361.71899414062</ele>
        <time>2009-11-08T11:30:52Z</time>
      </trkpt>
      <trkpt lat="45.23754" lon="4.95317">
        <ele>360.51300048828</ele>
        <time>2009-11-08T11:30:53Z</time>
      </trkpt>
      <trkpt lat="45.23761" lon="4.9535">
        <ele>359.74200439453</ele>
        <time>2009-11-08T11:30:55Z</time>
      </trkpt>
      <trkpt lat="45.23762" lon="4.95421">
        <ele>356.30899047852</ele>
        <time>2009-11-08T11:30:59Z</time>
      </trkpt>
      <trkpt lat="45.23763" lon="4.95476">
        <ele>353.25900268555</ele>
        <time>2009-11-08T11:31:02Z</time>
      </trkpt>
      <trkpt lat="45.23767" lon="4.9553">
        <ele>350.35598754883</ele>
        <time>2009-11-08T11:31:05Z</time>
      </trkpt>
      <trkpt lat="45.23783" lon="4.95574">
        <ele>346.29800415039</ele>
        <time>2009-11-08T11:31:08Z</time>
      </trkpt>
      <trkpt lat="45.23807" lon="4.95579">
        <ele>344.92401123047</ele>
        <time>2009-11-08T11:31:10Z</time>
      </trkpt>
      <trkpt lat="45.23818" lon="4.95576">
        <ele>344.71099853516</ele>
        <time>2009-11-08T11:31:11Z</time>
      </trkpt>
      <trkpt lat="45.23835" lon="4.95577">
        <ele>343.92199707031</ele>
        <time>2009-11-08T11:31:13Z</time>
      </trkpt>
      <trkpt lat="45.2384" lon="4.956">
        <ele>341.45199584961</ele>
        <time>2009-11-08T11:31:15Z</time>
      </trkpt>
      <trkpt lat="45.23838" lon="4.95613">
        <ele>340.65200805664</ele>
        <time>2009-11-08T11:31:16Z</time>
      </trkpt>
      <trkpt lat="45.23822" lon="4.95678">
        <ele>336.58499145508</ele>
        <time>2009-11-08T11:31:21Z</time>
      </trkpt>
      <trkpt lat="45.23802" lon="4.95714">
        <ele>334.98498535156</ele>
        <time>2009-11-08T11:31:24Z</time>
      </trkpt>
      <trkpt lat="45.23779" lon="4.95722">
        <ele>333.12399291992</ele>
        <time>2009-11-08T11:31:26Z</time>
      </trkpt>
      <trkpt lat="45.23756" lon="4.95712">
        <ele>332.54098510742</ele>
        <time>2009-11-08T11:31:28Z</time>
      </trkpt>
      <trkpt lat="45.23745" lon="4.95704">
        <ele>331.19900512695</ele>
        <time>2009-11-08T11:31:29Z</time>
      </trkpt>
      <trkpt lat="45.23685" lon="4.95676">
        <ele>325.85000610352</ele>
        <time>2009-11-08T11:31:34Z</time>
      </trkpt>
      <trkpt lat="45.23634" lon="4.95643">
        <ele>320.2619934082</ele>
        <time>2009-11-08T11:31:38Z</time>
      </trkpt>
      <trkpt lat="45.23623" lon="4.9563">
        <ele>320.58499145508</ele>
        <time>2009-11-08T11:31:39Z</time>
      </trkpt>
      <trkpt lat="45.23596" lon="4.95582">
        <ele>316.86801147461</ele>
        <time>2009-11-08T11:31:42Z</time>
      </trkpt>
      <trkpt lat="45.23579" lon="4.95549">
        <ele>315.65899658203</ele>
        <time>2009-11-08T11:31:44Z</time>
      </trkpt>
      <trkpt lat="45.23556" lon="4.95526">
        <ele>313.22698974609</ele>
        <time>2009-11-08T11:31:46Z</time>
      </trkpt>
      <trkpt lat="45.23515" lon="4.95511">
        <ele>309.37399291992</ele>
        <time>2009-11-08T11:31:49Z</time>
      </trkpt>
      <trkpt lat="45.23485" lon="4.95516">
        <ele>306.60501098633</ele>
        <time>2009-11-08T11:31:51Z</time>
      </trkpt>
      <trkpt lat="45.23455" lon="4.95525">
        <ele>303.70001220703</ele>
        <time>2009-11-08T11:31:53Z</time>
      </trkpt>
      <trkpt lat="45.23401" lon="4.95519">
        <ele>300.07998657227</ele>
        <time>2009-11-08T11:31:57Z</time>
      </trkpt>
      <trkpt lat="45.23388" lon="4.95528">
        <ele>299.21099853516</ele>
        <time>2009-11-08T11:31:59Z</time>
      </trkpt>
      <trkpt lat="45.23392" lon="4.95548">
        <ele>298.06799316406</ele>
        <time>2009-11-08T11:32:01Z</time>
      </trkpt>
      <trkpt lat="45.23411" lon="4.95553">
        <ele>297.74099731445</ele>
        <time>2009-11-08T11:32:03Z</time>
      </trkpt>
      <trkpt lat="45.23441" lon="4.95562">
        <ele>293.97900390625</ele>
        <time>2009-11-08T11:32:07Z</time>
      </trkpt>
      <trkpt lat="45.23438" lon="4.95586">
        <ele>292.9700012207</ele>
        <time>2009-11-08T11:32:09Z</time>
      </trkpt>
      <trkpt lat="45.23413" lon="4.95607">
        <ele>290.6960144043</ele>
        <time>2009-11-08T11:32:12Z</time>
      </trkpt>
      <trkpt lat="45.23384" lon="4.95621">
        <ele>288.63299560547</ele>
        <time>2009-11-08T11:32:15Z</time>
      </trkpt>
      <trkpt lat="45.23364" lon="4.95632">
        <ele>286.98098754883</ele>
        <time>2009-11-08T11:32:17Z</time>
      </trkpt>
      <trkpt lat="45.23318" lon="4.95634">
        <ele>283.1960144043</ele>
        <time>2009-11-08T11:32:21Z</time>
      </trkpt>
      <trkpt lat="45.23291" lon="4.95623">
        <ele>281.5</ele>
        <time>2009-11-08T11:32:23Z</time>
      </trkpt>
      <trkpt lat="45.23243" lon="4.95561">
        <ele>274.08099365234</ele>
        <time>2009-11-08T11:32:28Z</time>
      </trkpt>
      <trkpt lat="45.23235" lon="4.95552">
        <ele>272.68600463867</ele>
        <time>2009-11-08T11:32:29Z</time>
      </trkpt>
      <trkpt lat="45.23206" lon="4.95548">
        <ele>270.80200195312</ele>
        <time>2009-11-08T11:32:32Z</time>
      </trkpt>
      <trkpt lat="45.23195" lon="4.95554">
        <ele>269.89001464844</ele>
        <time>2009-11-08T11:32:33Z</time>
      </trkpt>
      <trkpt lat="45.2313" lon="4.95595">
        <ele>264.9280090332</ele>
        <time>2009-11-08T11:32:39Z</time>
      </trkpt>
      <trkpt lat="45.23119" lon="4.95601">
        <ele>263.64099121094</ele>
        <time>2009-11-08T11:32:40Z</time>
      </trkpt>
      <trkpt lat="45.23069" lon="4.95643">
        <ele>261.86099243164</ele>
        <time>2009-11-08T11:32:45Z</time>
      </trkpt>
      <trkpt lat="45.23057" lon="4.95657">
        <ele>260.25201416016</ele>
        <time>2009-11-08T11:32:47Z</time>
      </trkpt>
      <trkpt lat="45.23052" lon="4.95665">
        <ele>259.31799316406</ele>
        <time>2009-11-08T11:32:49Z</time>
      </trkpt>
      <trkpt lat="45.23034" lon="4.95668">
        <ele>258.41500854492</ele>
        <time>2009-11-08T11:32:53Z</time>
      </trkpt>
      <trkpt lat="45.2303" lon="4.95683">
        <ele>258.51998901367</ele>
        <time>2009-11-08T11:32:55Z</time>
      </trkpt>
      <trkpt lat="45.23011" lon="4.9572">
        <ele>257.27700805664</ele>
        <time>2009-11-08T11:33:00Z</time>
      </trkpt>
      <trkpt lat="45.2298" lon="4.95757">
        <ele>256.26998901367</ele>
        <time>2009-11-08T11:33:05Z</time>
      </trkpt>
      <trkpt lat="45.22934" lon="4.95816">
        <ele>254.2799987793</ele>
        <time>2009-11-08T11:33:12Z</time>
      </trkpt>
      <trkpt lat="45.22919" lon="4.95833">
        <ele>253.62600708008</ele>
        <time>2009-11-08T11:33:14Z</time>
      </trkpt>
      <trkpt lat="45.22887" lon="4.95881">
        <ele>252.44700622559</ele>
        <time>2009-11-08T11:33:19Z</time>
      </trkpt>
      <trkpt lat="45.22845" lon="4.95952">
        <ele>251.24899291992</ele>
        <time>2009-11-08T11:33:26Z</time>
      </trkpt>
      <trkpt lat="45.22814" lon="4.96016">
        <ele>250.47900390625</ele>
        <time>2009-11-08T11:33:32Z</time>
      </trkpt>
      <trkpt lat="45.22787" lon="4.96096">
        <ele>249.69999694824</ele>
        <time>2009-11-08T11:33:39Z</time>
      </trkpt>
      <trkpt lat="45.2278" lon="4.96118">
        <ele>250.1609954834</ele>
        <time>2009-11-08T11:33:41Z</time>
      </trkpt>
      <trkpt lat="45.22754" lon="4.96165">
        <ele>250.07400512695</ele>
        <time>2009-11-08T11:33:46Z</time>
      </trkpt>
      <trkpt lat="45.22708" lon="4.96231">
        <ele>250.00399780273</ele>
        <time>2009-11-08T11:33:54Z</time>
      </trkpt>
      <trkpt lat="45.2267" lon="4.96282">
        <ele>251.13999938965</ele>
        <time>2009-11-08T11:34:01Z</time>
      </trkpt>
      <trkpt lat="45.2266" lon="4.96292">
        <ele>251.78100585938</ele>
        <time>2009-11-08T11:34:03Z</time>
      </trkpt>
      <trkpt lat="45.2263" lon="4.96304">
        <ele>253.78300476074</ele>
        <time>2009-11-08T11:34:09Z</time>
      </trkpt>
      <trkpt lat="45.22625" lon="4.96304">
        <ele>253.65899658203</ele>
        <time>2009-11-08T11:34:10Z</time>
      </trkpt>
      <trkpt lat="45.22589" lon="4.96288">
        <ele>255.94299316406</ele>
        <time>2009-11-08T11:34:18Z</time>
      </trkpt>
      <trkpt lat="45.22567" lon="4.96275">
        <ele>256.67700195312</ele>
        <time>2009-11-08T11:34:23Z</time>
      </trkpt>
      <trkpt lat="45.22538" lon="4.96259">
        <ele>257.3869934082</ele>
        <time>2009-11-08T11:34:29Z</time>
      </trkpt>
      <trkpt lat="45.22502" lon="4.96238">
        <ele>257.86401367188</ele>
        <time>2009-11-08T11:34:36Z</time>
      </trkpt>
      <trkpt lat="45.22459" lon="4.96213">
        <ele>257.90399169922</ele>
        <time>2009-11-08T11:34:43Z</time>
      </trkpt>
      <trkpt lat="45.22408" lon="4.96183">
        <ele>257.70300292969</ele>
        <time>2009-11-08T11:34:50Z</time>
      </trkpt>
      <trkpt lat="45.22362" lon="4.96148">
        <ele>257.48498535156</ele>
        <time>2009-11-08T11:34:56Z</time>
      </trkpt>
      <trkpt lat="45.22289" lon="4.9609">
        <ele>257.4880065918</ele>
        <time>2009-11-08T11:35:05Z</time>
      </trkpt>
      <trkpt lat="45.22177" lon="4.96002">
        <ele>257.88101196289</ele>
        <time>2009-11-08T11:35:18Z</time>
      </trkpt>
      <trkpt lat="45.22077" lon="4.95924">
        <ele>257.55801391602</ele>
        <time>2009-11-08T11:35:29Z</time>
      </trkpt>
      <trkpt lat="45.21991" lon="4.95857">
        <ele>256.56298828125</ele>
        <time>2009-11-08T11:35:38Z</time>
      </trkpt>
      <trkpt lat="45.21885" lon="4.95774">
        <ele>255.06300354004</ele>
        <time>2009-11-08T11:35:49Z</time>
      </trkpt>
      <trkpt lat="45.2177" lon="4.95684">
        <ele>253.58799743652</ele>
        <time>2009-11-08T11:36:01Z</time>
      </trkpt>
      <trkpt lat="45.21687" lon="4.95619">
        <ele>253.49899291992</ele>
        <time>2009-11-08T11:36:10Z</time>
      </trkpt>
      <trkpt lat="45.2159" lon="4.95543">
        <ele>252.27799987793</ele>
        <time>2009-11-08T11:36:20Z</time>
      </trkpt>
      <trkpt lat="45.2152" lon="4.95498">
        <ele>251.48500061035</ele>
        <time>2009-11-08T11:36:27Z</time>
      </trkpt>
      <trkpt lat="45.21458" lon="4.95478">
        <ele>251.89900207519</ele>
        <time>2009-11-08T11:36:33Z</time>
      </trkpt>
      <trkpt lat="45.2137" lon="4.95452">
        <ele>252.10400390625</ele>
        <time>2009-11-08T11:36:42Z</time>
      </trkpt>
      <trkpt lat="45.21286" lon="4.9543">
        <ele>253.08000183106</ele>
        <time>2009-11-08T11:36:51Z</time>
      </trkpt>
      <trkpt lat="45.21225" lon="4.95418">
        <ele>253.08999633789</ele>
        <time>2009-11-08T11:36:58Z</time>
      </trkpt>
      <trkpt lat="45.21181" lon="4.95426">
        <ele>252.89399719238</ele>
        <time>2009-11-08T11:37:03Z</time>
      </trkpt>
      <trkpt lat="45.21146" lon="4.95436">
        <ele>252.00500488281</ele>
        <time>2009-11-08T11:37:07Z</time>
      </trkpt>
      <trkpt lat="45.21109" lon="4.95425">
        <ele>250.81199645996</ele>
        <time>2009-11-08T11:37:11Z</time>
      </trkpt>
      <trkpt lat="45.21096" lon="4.95402">
        <ele>250.31500244141</ele>
        <time>2009-11-08T11:37:13Z</time>
      </trkpt>
      <trkpt lat="45.21092" lon="4.95388">
        <ele>249.65299987793</ele>
        <time>2009-11-08T11:37:14Z</time>
      </trkpt>
      <trkpt lat="45.21074" lon="4.95299">
        <ele>245.81700134277</ele>
        <time>2009-11-08T11:37:20Z</time>
      </trkpt>
      <trkpt lat="45.21056" lon="4.95261">
        <ele>243.80700683594</ele>
        <time>2009-11-08T11:37:23Z</time>
      </trkpt>
      <trkpt lat="45.21035" lon="4.95251">
        <ele>242.07000732422</ele>
        <time>2009-11-08T11:37:25Z</time>
      </trkpt>
      <trkpt lat="45.21024" lon="4.9525">
        <ele>241.73699951172</ele>
        <time>2009-11-08T11:37:26Z</time>
      </trkpt>
      <trkpt lat="45.20951" lon="4.95252">
        <ele>241.51800537109</ele>
        <time>2009-11-08T11:37:33Z</time>
      </trkpt>
      <trkpt lat="45.20889" lon="4.95252">
        <ele>242.88400268555</ele>
        <time>2009-11-08T11:37:40Z</time>
      </trkpt>
      <trkpt lat="45.20835" lon="4.95247">
        <ele>244.83999633789</ele>
        <time>2009-11-08T11:37:47Z</time>
      </trkpt>
      <trkpt lat="45.20774" lon="4.95232">
        <ele>245.62699890137</ele>
        <time>2009-11-08T11:37:56Z</time>
      </trkpt>
      <trkpt lat="45.20704" lon="4.95217">
        <ele>247.29100036621</ele>
        <time>2009-11-08T11:38:07Z</time>
      </trkpt>
      <trkpt lat="45.20631" lon="4.95212">
        <ele>248.74000549316</ele>
        <time>2009-11-08T11:38:18Z</time>
      </trkpt>
      <trkpt lat="45.20577" lon="4.9521">
        <ele>250.44400024414</ele>
        <time>2009-11-08T11:38:26Z</time>
      </trkpt>
      <trkpt lat="45.20504" lon="4.95208">
        <ele>252.29200744629</ele>
        <time>2009-11-08T11:38:37Z</time>
      </trkpt>
      <trkpt lat="45.2046" lon="4.95204">
        <ele>252.91400146484</ele>
        <time>2009-11-08T11:38:43Z</time>
      </trkpt>
      <trkpt lat="45.20398" lon="4.95198">
        <ele>253.08599853516</ele>
        <time>2009-11-08T11:38:51Z</time>
      </trkpt>
      <trkpt lat="45.20309" lon="4.95189">
        <ele>252.82600402832</ele>
        <time>2009-11-08T11:39:02Z</time>
      </trkpt>
      <trkpt lat="45.20221" lon="4.95181">
        <ele>252.26100158691</ele>
        <time>2009-11-08T11:39:12Z</time>
      </trkpt>
      <trkpt lat="45.20135" lon="4.95173">
        <ele>253.02799987793</ele>
        <time>2009-11-08T11:39:21Z</time>
      </trkpt>
      <trkpt lat="45.20057" lon="4.95166">
        <ele>252.88299560547</ele>
        <time>2009-11-08T11:39:29Z</time>
      </trkpt>
      <trkpt lat="45.19953" lon="4.95155">
        <ele>252.75300598144</ele>
        <time>2009-11-08T11:39:40Z</time>
      </trkpt>
      <trkpt lat="45.19864" lon="4.95147">
        <ele>253.75199890137</ele>
        <time>2009-11-08T11:39:50Z</time>
      </trkpt>
      <trkpt lat="45.19799" lon="4.95145">
        <ele>254.92999267578</ele>
        <time>2009-11-08T11:39:58Z</time>
      </trkpt>
      <trkpt lat="45.19748" lon="4.95153">
        <ele>255.77900695801</ele>
        <time>2009-11-08T11:40:05Z</time>
      </trkpt>
      <trkpt lat="45.19705" lon="4.95161">
        <ele>257.79598999023</ele>
        <time>2009-11-08T11:40:12Z</time>
      </trkpt>
      <trkpt lat="45.1966" lon="4.95168">
        <ele>260.09899902344</ele>
        <time>2009-11-08T11:40:20Z</time>
      </trkpt>
      <trkpt lat="45.19627" lon="4.95177">
        <ele>261.78900146484</ele>
        <time>2009-11-08T11:40:26Z</time>
      </trkpt>
      <trkpt lat="45.19594" lon="4.95194">
        <ele>264.24301147461</ele>
        <time>2009-11-08T11:40:32Z</time>
      </trkpt>
      <trkpt lat="45.19554" lon="4.95218">
        <ele>265.85501098633</ele>
        <time>2009-11-08T11:40:39Z</time>
      </trkpt>
      <trkpt lat="45.1951" lon="4.95245">
        <ele>266.19400024414</ele>
        <time>2009-11-08T11:40:47Z</time>
      </trkpt>
      <trkpt lat="45.1947" lon="4.95271">
        <ele>264.35998535156</ele>
        <time>2009-11-08T11:40:53Z</time>
      </trkpt>
      <trkpt lat="45.19408" lon="4.9531">
        <ele>262.53601074219</ele>
        <time>2009-11-08T11:41:01Z</time>
      </trkpt>
      <trkpt lat="45.19339" lon="4.9535">
        <ele>262.15200805664</ele>
        <time>2009-11-08T11:41:09Z</time>
      </trkpt>
      <trkpt lat="45.19268" lon="4.95378">
        <ele>262.12100219727</ele>
        <time>2009-11-08T11:41:17Z</time>
      </trkpt>
      <trkpt lat="45.19205" lon="4.95394">
        <ele>260.9289855957</ele>
        <time>2009-11-08T11:41:24Z</time>
      </trkpt>
      <trkpt lat="45.19123" lon="4.95403">
        <ele>261.00900268555</ele>
        <time>2009-11-08T11:41:33Z</time>
      </trkpt>
      <trkpt lat="45.19049" lon="4.95413">
        <ele>261.02899169922</ele>
        <time>2009-11-08T11:41:41Z</time>
      </trkpt>
      <trkpt lat="45.18966" lon="4.95428">
        <ele>261.76901245117</ele>
        <time>2009-11-08T11:41:50Z</time>
      </trkpt>
      <trkpt lat="45.18885" lon="4.95446">
        <ele>262.56900024414</ele>
        <time>2009-11-08T11:41:59Z</time>
      </trkpt>
      <trkpt lat="45.18795" lon="4.95466">
        <ele>262.13101196289</ele>
        <time>2009-11-08T11:42:09Z</time>
      </trkpt>
      <trkpt lat="45.18716" lon="4.9549">
        <ele>262.05999755859</ele>
        <time>2009-11-08T11:42:17Z</time>
      </trkpt>
      <trkpt lat="45.18614" lon="4.95524">
        <ele>260.08401489258</ele>
        <time>2009-11-08T11:42:27Z</time>
      </trkpt>
      <trkpt lat="45.18521" lon="4.95549">
        <ele>259.50399780273</ele>
        <time>2009-11-08T11:42:36Z</time>
      </trkpt>
      <trkpt lat="45.18432" lon="4.95569">
        <ele>257.28799438477</ele>
        <time>2009-11-08T11:42:45Z</time>
      </trkpt>
      <trkpt lat="45.18349" lon="4.95586">
        <ele>257.94198608398</ele>
        <time>2009-11-08T11:42:54Z</time>
      </trkpt>
      <trkpt lat="45.18273" lon="4.95594">
        <ele>258.94198608398</ele>
        <time>2009-11-08T11:43:03Z</time>
      </trkpt>
      <trkpt lat="45.18194" lon="4.95601">
        <ele>259.74099731445</ele>
        <time>2009-11-08T11:43:13Z</time>
      </trkpt>
      <trkpt lat="45.18127" lon="4.95608">
        <ele>260.70098876953</ele>
        <time>2009-11-08T11:43:22Z</time>
      </trkpt>
      <trkpt lat="45.18063" lon="4.95613">
        <ele>262.02499389648</ele>
        <time>2009-11-08T11:43:31Z</time>
      </trkpt>
      <trkpt lat="45.17975" lon="4.95621">
        <ele>263.66198730469</ele>
        <time>2009-11-08T11:43:44Z</time>
      </trkpt>
      <trkpt lat="45.17913" lon="4.95627">
        <ele>265.23001098633</ele>
        <time>2009-11-08T11:43:54Z</time>
      </trkpt>
      <trkpt lat="45.1786" lon="4.95631">
        <ele>266.78500366211</ele>
        <time>2009-11-08T11:44:03Z</time>
      </trkpt>
      <trkpt lat="45.17804" lon="4.95636">
        <ele>268.67700195312</ele>
        <time>2009-11-08T11:44:12Z</time>
      </trkpt>
      <trkpt lat="45.17746" lon="4.9564">
        <ele>270.83999633789</ele>
        <time>2009-11-08T11:44:21Z</time>
      </trkpt>
      <trkpt lat="45.17712" lon="4.95649">
        <ele>272.33599853516</ele>
        <time>2009-11-08T11:44:27Z</time>
      </trkpt>
      <trkpt lat="45.17675" lon="4.95663">
        <ele>274.57901000977</ele>
        <time>2009-11-08T11:44:34Z</time>
      </trkpt>
      <trkpt lat="45.1765" lon="4.95674">
        <ele>275.8030090332</ele>
        <time>2009-11-08T11:44:39Z</time>
      </trkpt>
      <trkpt lat="45.17618" lon="4.95687">
        <ele>277.82400512695</ele>
        <time>2009-11-08T11:44:46Z</time>
      </trkpt>
      <trkpt lat="45.17589" lon="4.957">
        <ele>279.48199462891</ele>
        <time>2009-11-08T11:44:53Z</time>
      </trkpt>
      <trkpt lat="45.17566" lon="4.95709">
        <ele>281.07699584961</ele>
        <time>2009-11-08T11:45:00Z</time>
      </trkpt>
      <trkpt lat="45.17544" lon="4.95717">
        <ele>282.92001342773</ele>
        <time>2009-11-08T11:45:07Z</time>
      </trkpt>
      <trkpt lat="45.17524" lon="4.95725">
        <ele>284.25</ele>
        <time>2009-11-08T11:45:13Z</time>
      </trkpt>
      <trkpt lat="45.17502" lon="4.9574">
        <ele>286.44799804688</ele>
        <time>2009-11-08T11:45:20Z</time>
      </trkpt>
      <trkpt lat="45.17486" lon="4.95756">
        <ele>288.23498535156</ele>
        <time>2009-11-08T11:45:26Z</time>
      </trkpt>
      <trkpt lat="45.17475" lon="4.95778">
        <ele>289.42999267578</ele>
        <time>2009-11-08T11:45:32Z</time>
      </trkpt>
      <trkpt lat="45.17468" lon="4.95797">
        <ele>291.19900512695</ele>
        <time>2009-11-08T11:45:36Z</time>
      </trkpt>
      <trkpt lat="45.17463" lon="4.95819">
        <ele>291.89401245117</ele>
        <time>2009-11-08T11:45:41Z</time>
      </trkpt>
      <trkpt lat="45.17457" lon="4.95851">
        <ele>293.83700561523</ele>
        <time>2009-11-08T11:45:48Z</time>
      </trkpt>
      <trkpt lat="45.17451" lon="4.95884">
        <ele>295.46798706055</ele>
        <time>2009-11-08T11:45:55Z</time>
      </trkpt>
      <trkpt lat="45.1744" lon="4.95911">
        <ele>297.25201416016</ele>
        <time>2009-11-08T11:46:01Z</time>
      </trkpt>
      <trkpt lat="45.17427" lon="4.95927">
        <ele>298.66598510742</ele>
        <time>2009-11-08T11:46:05Z</time>
      </trkpt>
      <trkpt lat="45.17403" lon="4.95942">
        <ele>301.11599731445</ele>
        <time>2009-11-08T11:46:11Z</time>
      </trkpt>
      <trkpt lat="45.17395" lon="4.95945">
        <ele>301.74700927734</ele>
        <time>2009-11-08T11:46:13Z</time>
      </trkpt>
      <trkpt lat="45.17371" lon="4.9595">
        <ele>303.94198608398</ele>
        <time>2009-11-08T11:46:19Z</time>
      </trkpt>
      <trkpt lat="45.17342" lon="4.95957">
        <ele>305.46200561523</ele>
        <time>2009-11-08T11:46:26Z</time>
      </trkpt>
      <trkpt lat="45.17315" lon="4.95965">
        <ele>307.5299987793</ele>
        <time>2009-11-08T11:46:33Z</time>
      </trkpt>
      <trkpt lat="45.17287" lon="4.95973">
        <ele>309.87600708008</ele>
        <time>2009-11-08T11:46:41Z</time>
      </trkpt>
      <trkpt lat="45.17263" lon="4.95983">
        <ele>311.3219909668</ele>
        <time>2009-11-08T11:46:49Z</time>
      </trkpt>
      <trkpt lat="45.17237" lon="4.95995">
        <ele>312.6780090332</ele>
        <time>2009-11-08T11:46:57Z</time>
      </trkpt>
      <trkpt lat="45.17206" lon="4.96011">
        <ele>314.64898681641</ele>
        <time>2009-11-08T11:47:06Z</time>
      </trkpt>
      <trkpt lat="45.17175" lon="4.96027">
        <ele>316.54400634766</ele>
        <time>2009-11-08T11:47:15Z</time>
      </trkpt>
      <trkpt lat="45.17144" lon="4.96043">
        <ele>318.11199951172</ele>
        <time>2009-11-08T11:47:23Z</time>
      </trkpt>
      <trkpt lat="45.17109" lon="4.96061">
        <ele>320.23098754883</ele>
        <time>2009-11-08T11:47:32Z</time>
      </trkpt>
      <trkpt lat="45.17072" lon="4.9608">
        <ele>322.61199951172</ele>
        <time>2009-11-08T11:47:41Z</time>
      </trkpt>
      <trkpt lat="45.17048" lon="4.96092">
        <ele>324</ele>
        <time>2009-11-08T11:47:47Z</time>
      </trkpt>
      <trkpt lat="45.17031" lon="4.961">
        <ele>325.25100708008</ele>
        <time>2009-11-08T11:47:51Z</time>
      </trkpt>
      <trkpt lat="45.16995" lon="4.96117">
        <ele>327.68099975586</ele>
        <time>2009-11-08T11:47:59Z</time>
      </trkpt>
      <trkpt lat="45.16968" lon="4.96132">
        <ele>329.58401489258</ele>
        <time>2009-11-08T11:48:06Z</time>
      </trkpt>
      <trkpt lat="45.16964" lon="4.96135">
        <ele>329.71499633789</ele>
        <time>2009-11-08T11:48:07Z</time>
      </trkpt>
      <trkpt lat="45.16954" lon="4.96154">
        <ele>330.66198730469</ele>
        <time>2009-11-08T11:48:11Z</time>
      </trkpt>
      <trkpt lat="45.16956" lon="4.96183">
        <ele>332.19198608398</ele>
        <time>2009-11-08T11:48:16Z</time>
      </trkpt>
      <trkpt lat="45.16968" lon="4.96209">
        <ele>333.40899658203</ele>
        <time>2009-11-08T11:48:22Z</time>
      </trkpt>
      <trkpt lat="45.16986" lon="4.96244">
        <ele>334.33700561523</ele>
        <time>2009-11-08T11:48:30Z</time>
      </trkpt>
      <trkpt lat="45.16995" lon="4.9628">
        <ele>335.61199951172</ele>
        <time>2009-11-08T11:48:37Z</time>
      </trkpt>
      <trkpt lat="45.16998" lon="4.96304">
        <ele>336.28900146484</ele>
        <time>2009-11-08T11:48:41Z</time>
      </trkpt>
      <trkpt lat="45.17002" lon="4.96371">
        <ele>336.87701416016</ele>
        <time>2009-11-08T11:48:51Z</time>
      </trkpt>
      <trkpt lat="45.17004" lon="4.9643">
        <ele>337.64700317383</ele>
        <time>2009-11-08T11:48:59Z</time>
      </trkpt>
      <trkpt lat="45.16998" lon="4.96472">
        <ele>336.60998535156</ele>
        <time>2009-11-08T11:49:04Z</time>
      </trkpt>
      <trkpt lat="45.16983" lon="4.96527">
        <ele>334.61401367188</ele>
        <time>2009-11-08T11:49:10Z</time>
      </trkpt>
      <trkpt lat="45.16975" lon="4.96546">
        <ele>333.96701049805</ele>
        <time>2009-11-08T11:49:12Z</time>
      </trkpt>
      <trkpt lat="45.1697" lon="4.96566">
        <ele>333.02600097656</ele>
        <time>2009-11-08T11:49:14Z</time>
      </trkpt>
      <trkpt lat="45.16954" lon="4.9661">
        <ele>331.12200927734</ele>
        <time>2009-11-08T11:49:18Z</time>
      </trkpt>
      <trkpt lat="45.1694" lon="4.9663">
        <ele>330.47500610352</ele>
        <time>2009-11-08T11:49:20Z</time>
      </trkpt>
      <trkpt lat="45.16919" lon="4.96657">
        <ele>328.67300415039</ele>
        <time>2009-11-08T11:49:23Z</time>
      </trkpt>
      <trkpt lat="45.16909" lon="4.96692">
        <ele>327.14199829102</ele>
        <time>2009-11-08T11:49:26Z</time>
      </trkpt>
      <trkpt lat="45.16912" lon="4.96724">
        <ele>325.71499633789</ele>
        <time>2009-11-08T11:49:28Z</time>
      </trkpt>
      <trkpt lat="45.16917" lon="4.96743">
        <ele>325.09201049805</ele>
        <time>2009-11-08T11:49:29Z</time>
      </trkpt>
      <trkpt lat="45.16928" lon="4.96774">
        <ele>323.74700927734</ele>
        <time>2009-11-08T11:49:31Z</time>
      </trkpt>
      <trkpt lat="45.16914" lon="4.9683">
        <ele>320.79998779297</ele>
        <time>2009-11-08T11:49:35Z</time>
      </trkpt>
      <trkpt lat="45.16895" lon="4.96843">
        <ele>320.46499633789</ele>
        <time>2009-11-08T11:49:37Z</time>
      </trkpt>
      <trkpt lat="45.16885" lon="4.96849">
        <ele>320.46499633789</ele>
        <time>2009-11-08T11:49:38Z</time>
      </trkpt>
      <trkpt lat="45.16828" lon="4.9688">
        <ele>318.37799072266</ele>
        <time>2009-11-08T11:49:44Z</time>
      </trkpt>
      <trkpt lat="45.1679" lon="4.96878">
        <ele>318.33999633789</ele>
        <time>2009-11-08T11:49:48Z</time>
      </trkpt>
      <trkpt lat="45.16768" lon="4.96854">
        <ele>318.21200561523</ele>
        <time>2009-11-08T11:49:51Z</time>
      </trkpt>
      <trkpt lat="45.16722" lon="4.96777">
        <ele>318.41598510742</ele>
        <time>2009-11-08T11:49:59Z</time>
      </trkpt>
      <trkpt lat="45.16701" lon="4.96741">
        <ele>318.09399414062</ele>
        <time>2009-11-08T11:50:03Z</time>
      </trkpt>
      <trkpt lat="45.16668" lon="4.96712">
        <ele>318.78100585938</ele>
        <time>2009-11-08T11:50:08Z</time>
      </trkpt>
      <trkpt lat="45.16645" lon="4.96712">
        <ele>319.12100219727</ele>
        <time>2009-11-08T11:50:11Z</time>
      </trkpt>
      <trkpt lat="45.16615" lon="4.96713">
        <ele>319.63598632812</ele>
        <time>2009-11-08T11:50:15Z</time>
      </trkpt>
      <trkpt lat="45.16601" lon="4.96705">
        <ele>319.99099731445</ele>
        <time>2009-11-08T11:50:17Z</time>
      </trkpt>
      <trkpt lat="45.16577" lon="4.96677">
        <ele>319.90301513672</ele>
        <time>2009-11-08T11:50:21Z</time>
      </trkpt>
      <trkpt lat="45.16559" lon="4.96635">
        <ele>317.84399414062</ele>
        <time>2009-11-08T11:50:25Z</time>
      </trkpt>
      <trkpt lat="45.16543" lon="4.96568">
        <ele>315.17300415039</ele>
        <time>2009-11-08T11:50:30Z</time>
      </trkpt>
      <trkpt lat="45.16517" lon="4.96518">
        <ele>312.1780090332</ele>
        <time>2009-11-08T11:50:34Z</time>
      </trkpt>
      <trkpt lat="45.16485" lon="4.96499">
        <ele>309.85400390625</ele>
        <time>2009-11-08T11:50:37Z</time>
      </trkpt>
      <trkpt lat="45.16474" lon="4.96498">
        <ele>309.64700317383</ele>
        <time>2009-11-08T11:50:38Z</time>
      </trkpt>
      <trkpt lat="45.16462" lon="4.96499">
        <ele>308.25100708008</ele>
        <time>2009-11-08T11:50:39Z</time>
      </trkpt>
      <trkpt lat="45.16426" lon="4.96503">
        <ele>306.75100708008</ele>
        <time>2009-11-08T11:50:42Z</time>
      </trkpt>
      <trkpt lat="45.16377" lon="4.96495">
        <ele>303.84298706055</ele>
        <time>2009-11-08T11:50:46Z</time>
      </trkpt>
      <trkpt lat="45.16352" lon="4.96485">
        <ele>301.48599243164</ele>
        <time>2009-11-08T11:50:48Z</time>
      </trkpt>
      <trkpt lat="45.16325" lon="4.96483">
        <ele>300.90701293945</ele>
        <time>2009-11-08T11:50:50Z</time>
      </trkpt>
      <trkpt lat="45.16312" lon="4.96489">
        <ele>300.06100463867</ele>
        <time>2009-11-08T11:50:51Z</time>
      </trkpt>
      <trkpt lat="45.16293" lon="4.96516">
        <ele>299.36499023438</ele>
        <time>2009-11-08T11:50:53Z</time>
      </trkpt>
      <trkpt lat="45.16288" lon="4.96549">
        <ele>299.26501464844</ele>
        <time>2009-11-08T11:50:55Z</time>
      </trkpt>
      <trkpt lat="45.16287" lon="4.96565">
        <ele>298.97500610352</ele>
        <time>2009-11-08T11:50:56Z</time>
      </trkpt>
      <trkpt lat="45.16285" lon="4.96613">
        <ele>298.13800048828</ele>
        <time>2009-11-08T11:50:59Z</time>
      </trkpt>
      <trkpt lat="45.16268" lon="4.96668">
        <ele>295.55899047852</ele>
        <time>2009-11-08T11:51:03Z</time>
      </trkpt>
      <trkpt lat="45.16249" lon="4.96684">
        <ele>295.06399536133</ele>
        <time>2009-11-08T11:51:05Z</time>
      </trkpt>
      <trkpt lat="45.1617" lon="4.96732">
        <ele>294.00299072266</ele>
        <time>2009-11-08T11:51:13Z</time>
      </trkpt>
      <trkpt lat="45.16151" lon="4.96743">
        <ele>294.41900634766</ele>
        <time>2009-11-08T11:51:15Z</time>
      </trkpt>
      <trkpt lat="45.16131" lon="4.96746">
        <ele>292.67700195312</ele>
        <time>2009-11-08T11:51:17Z</time>
      </trkpt>
      <trkpt lat="45.16101" lon="4.96737">
        <ele>292.10598754883</ele>
        <time>2009-11-08T11:51:20Z</time>
      </trkpt>
      <trkpt lat="45.16092" lon="4.96731">
        <ele>291.77899169922</ele>
        <time>2009-11-08T11:51:21Z</time>
      </trkpt>
      <trkpt lat="45.16054" lon="4.96707">
        <ele>289.71301269531</ele>
        <time>2009-11-08T11:51:25Z</time>
      </trkpt>
      <trkpt lat="45.16012" lon="4.96702">
        <ele>288.26901245117</ele>
        <time>2009-11-08T11:51:29Z</time>
      </trkpt>
      <trkpt lat="45.16001" lon="4.96704">
        <ele>287.59899902344</ele>
        <time>2009-11-08T11:51:30Z</time>
      </trkpt>
      <trkpt lat="45.15923" lon="4.9673">
        <ele>284.63299560547</ele>
        <time>2009-11-08T11:51:37Z</time>
      </trkpt>
      <trkpt lat="45.15848" lon="4.96755">
        <ele>282.76599121094</ele>
        <time>2009-11-08T11:51:44Z</time>
      </trkpt>
      <trkpt lat="45.15811" lon="4.96769">
        <ele>281.74899291992</ele>
        <time>2009-11-08T11:51:48Z</time>
      </trkpt>
      <trkpt lat="45.15767" lon="4.96805">
        <ele>280.93099975586</ele>
        <time>2009-11-08T11:51:53Z</time>
      </trkpt>
      <trkpt lat="45.15676" lon="4.96898">
        <ele>278.75100708008</ele>
        <time>2009-11-08T11:52:04Z</time>
      </trkpt>
      <trkpt lat="45.15653" lon="4.96925">
        <ele>277.58898925781</ele>
        <time>2009-11-08T11:52:07Z</time>
      </trkpt>
      <trkpt lat="45.15626" lon="4.96983">
        <ele>276.46200561523</ele>
        <time>2009-11-08T11:52:12Z</time>
      </trkpt>
      <trkpt lat="45.15596" lon="4.97081">
        <ele>272.9580078125</ele>
        <time>2009-11-08T11:52:19Z</time>
      </trkpt>
      <trkpt lat="45.15579" lon="4.97139">
        <ele>269.63900756836</ele>
        <time>2009-11-08T11:52:23Z</time>
      </trkpt>
      <trkpt lat="45.15574" lon="4.97154">
        <ele>269.70098876953</ele>
        <time>2009-11-08T11:52:24Z</time>
      </trkpt>
      <trkpt lat="45.1554" lon="4.97202">
        <ele>268.5710144043</ele>
        <time>2009-11-08T11:52:28Z</time>
      </trkpt>
      <trkpt lat="45.15515" lon="4.97212">
        <ele>267.01599121094</ele>
        <time>2009-11-08T11:52:30Z</time>
      </trkpt>
      <trkpt lat="45.15451" lon="4.97216">
        <ele>263.08200073242</ele>
        <time>2009-11-08T11:52:35Z</time>
      </trkpt>
      <trkpt lat="45.154" lon="4.97232">
        <ele>260.60400390625</ele>
        <time>2009-11-08T11:52:39Z</time>
      </trkpt>
      <trkpt lat="45.15324" lon="4.97276">
        <ele>255.2140045166</ele>
        <time>2009-11-08T11:52:45Z</time>
      </trkpt>
      <trkpt lat="45.15299" lon="4.9729">
        <ele>254.32200622559</ele>
        <time>2009-11-08T11:52:47Z</time>
      </trkpt>
      <trkpt lat="45.15218" lon="4.97337">
        <ele>251.15600585938</ele>
        <time>2009-11-08T11:52:54Z</time>
      </trkpt>
      <trkpt lat="45.15208" lon="4.97343">
        <ele>251.01100158691</ele>
        <time>2009-11-08T11:52:55Z</time>
      </trkpt>
      <trkpt lat="45.15137" lon="4.97384">
        <ele>250.45300292969</ele>
        <time>2009-11-08T11:53:02Z</time>
      </trkpt>
      <trkpt lat="45.15052" lon="4.97432">
        <ele>249.11799621582</ele>
        <time>2009-11-08T11:53:11Z</time>
      </trkpt>
      <trkpt lat="45.14994" lon="4.97449">
        <ele>249.26100158691</ele>
        <time>2009-11-08T11:53:17Z</time>
      </trkpt>
      <trkpt lat="45.14945" lon="4.97452">
        <ele>248.54899597168</ele>
        <time>2009-11-08T11:53:22Z</time>
      </trkpt>
      <trkpt lat="45.14854" lon="4.97451">
        <ele>247.03999328613</ele>
        <time>2009-11-08T11:53:31Z</time>
      </trkpt>
      <trkpt lat="45.14781" lon="4.97454">
        <ele>246.04699707031</ele>
        <time>2009-11-08T11:53:38Z</time>
      </trkpt>
      <trkpt lat="45.14717" lon="4.97468">
        <ele>244.09199523926</ele>
        <time>2009-11-08T11:53:44Z</time>
      </trkpt>
      <trkpt lat="45.14634" lon="4.97501">
        <ele>243.56700134277</ele>
        <time>2009-11-08T11:53:52Z</time>
      </trkpt>
      <trkpt lat="45.14553" lon="4.9754">
        <ele>241.29400634766</ele>
        <time>2009-11-08T11:54:00Z</time>
      </trkpt>
      <trkpt lat="45.1451" lon="4.97574">
        <ele>240.47300720215</ele>
        <time>2009-11-08T11:54:05Z</time>
      </trkpt>
      <trkpt lat="45.14444" lon="4.97631">
        <ele>240.00300598144</ele>
        <time>2009-11-08T11:54:13Z</time>
      </trkpt>
      <trkpt lat="45.1436" lon="4.97705">
        <ele>239.43200683594</ele>
        <time>2009-11-08T11:54:23Z</time>
      </trkpt>
      <trkpt lat="45.143" lon="4.97753">
        <ele>238.41799926758</ele>
        <time>2009-11-08T11:54:30Z</time>
      </trkpt>
      <trkpt lat="45.14232" lon="4.97785">
        <ele>238.03399658203</ele>
        <time>2009-11-08T11:54:37Z</time>
      </trkpt>
      <trkpt lat="45.14151" lon="4.97821">
        <ele>237.26699829102</ele>
        <time>2009-11-08T11:54:45Z</time>
      </trkpt>
      <trkpt lat="45.14047" lon="4.97868">
        <ele>235.80999755859</ele>
        <time>2009-11-08T11:54:55Z</time>
      </trkpt>
      <trkpt lat="45.13957" lon="4.97909">
        <ele>235.16600036621</ele>
        <time>2009-11-08T11:55:04Z</time>
      </trkpt>
      <trkpt lat="45.13846" lon="4.9796">
        <ele>233.7140045166</ele>
        <time>2009-11-08T11:55:15Z</time>
      </trkpt>
      <trkpt lat="45.13778" lon="4.9799">
        <ele>233.2799987793</ele>
        <time>2009-11-08T11:55:22Z</time>
      </trkpt>
      <trkpt lat="45.13729" lon="4.98013">
        <ele>231.99000549316</ele>
        <time>2009-11-08T11:55:27Z</time>
      </trkpt>
      <trkpt lat="45.13655" lon="4.98052">
        <ele>231.15800476074</ele>
        <time>2009-11-08T11:55:35Z</time>
      </trkpt>
      <trkpt lat="45.13588" lon="4.98102">
        <ele>230.47099304199</ele>
        <time>2009-11-08T11:55:43Z</time>
      </trkpt>
      <trkpt lat="45.13536" lon="4.98124">
        <ele>229.79400634766</ele>
        <time>2009-11-08T11:55:49Z</time>
      </trkpt>
      <trkpt lat="45.13463" lon="4.98147">
        <ele>228.92999267578</ele>
        <time>2009-11-08T11:55:57Z</time>
      </trkpt>
      <trkpt lat="45.13387" lon="4.98168">
        <ele>228.43800354004</ele>
        <time>2009-11-08T11:56:05Z</time>
      </trkpt>
      <trkpt lat="45.1334" lon="4.9818">
        <ele>228.22399902344</ele>
        <time>2009-11-08T11:56:10Z</time>
      </trkpt>
      <trkpt lat="45.13305" lon="4.98191">
        <ele>226.70500183106</ele>
        <time>2009-11-08T11:56:14Z</time>
      </trkpt>
      <trkpt lat="45.13231" lon="4.98212">
        <ele>226.89300537109</ele>
        <time>2009-11-08T11:56:22Z</time>
      </trkpt>
      <trkpt lat="45.13189" lon="4.98224">
        <ele>226.08799743652</ele>
        <time>2009-11-08T11:56:27Z</time>
      </trkpt>
      <trkpt lat="45.13154" lon="4.98241">
        <ele>225.30000305176</ele>
        <time>2009-11-08T11:56:31Z</time>
      </trkpt>
      <trkpt lat="45.13092" lon="4.98281">
        <ele>225.04600524902</ele>
        <time>2009-11-08T11:56:38Z</time>
      </trkpt>
      <trkpt lat="45.13039" lon="4.98309">
        <ele>225.04600524902</ele>
        <time>2009-11-08T11:56:44Z</time>
      </trkpt>
      <trkpt lat="45.12986" lon="4.98311">
        <ele>223.66400146484</ele>
        <time>2009-11-08T11:56:50Z</time>
      </trkpt>
      <trkpt lat="45.12934" lon="4.98303">
        <ele>223.64100646973</ele>
        <time>2009-11-08T11:56:56Z</time>
      </trkpt>
      <trkpt lat="45.12883" lon="4.98283">
        <ele>223.3630065918</ele>
        <time>2009-11-08T11:57:02Z</time>
      </trkpt>
      <trkpt lat="45.12831" lon="4.98259">
        <ele>223.12600708008</ele>
        <time>2009-11-08T11:57:08Z</time>
      </trkpt>
      <trkpt lat="45.12782" lon="4.98249">
        <ele>222.51699829102</ele>
        <time>2009-11-08T11:57:13Z</time>
      </trkpt>
      <trkpt lat="45.1271" lon="4.9824">
        <ele>219.54600524902</ele>
        <time>2009-11-08T11:57:20Z</time>
      </trkpt>
      <trkpt lat="45.127" lon="4.98238">
        <ele>219.44299316406</ele>
        <time>2009-11-08T11:57:21Z</time>
      </trkpt>
      <trkpt lat="45.12651" lon="4.98244">
        <ele>218.30700683594</ele>
        <time>2009-11-08T11:57:26Z</time>
      </trkpt>
      <trkpt lat="45.12593" lon="4.98262">
        <ele>216.13600158691</ele>
        <time>2009-11-08T11:57:32Z</time>
      </trkpt>
      <trkpt lat="45.12564" lon="4.98269">
        <ele>215.8630065918</ele>
        <time>2009-11-08T11:57:35Z</time>
      </trkpt>
      <trkpt lat="45.12516" lon="4.98281">
        <ele>213.99800109863</ele>
        <time>2009-11-08T11:57:40Z</time>
      </trkpt>
      <trkpt lat="45.12469" lon="4.98304">
        <ele>212.25799560547</ele>
        <time>2009-11-08T11:57:45Z</time>
      </trkpt>
      <trkpt lat="45.12423" lon="4.98335">
        <ele>211.93899536133</ele>
        <time>2009-11-08T11:57:50Z</time>
      </trkpt>
      <trkpt lat="45.12383" lon="4.98359">
        <ele>210.80400085449</ele>
        <time>2009-11-08T11:57:55Z</time>
      </trkpt>
      <trkpt lat="45.12366" lon="4.98369">
        <ele>211.00100708008</ele>
        <time>2009-11-08T11:57:57Z</time>
      </trkpt>
      <trkpt lat="45.12343" lon="4.98403">
        <ele>211.47500610352</ele>
        <time>2009-11-08T11:58:01Z</time>
      </trkpt>
      <trkpt lat="45.12338" lon="4.98411">
        <ele>211.18600463867</ele>
        <time>2009-11-08T11:58:02Z</time>
      </trkpt>
      <trkpt lat="45.12311" lon="4.98419">
        <ele>209.89300537109</ele>
        <time>2009-11-08T11:58:06Z</time>
      </trkpt>
      <trkpt lat="45.12263" lon="4.98412">
        <ele>209.43899536133</ele>
        <time>2009-11-08T11:58:11Z</time>
      </trkpt>
      <trkpt lat="45.1223" lon="4.98413">
        <ele>209.07299804688</ele>
        <time>2009-11-08T11:58:15Z</time>
      </trkpt>
      <trkpt lat="45.12197" lon="4.98412">
        <ele>208.63400268555</ele>
        <time>2009-11-08T11:58:19Z</time>
      </trkpt>
      <trkpt lat="45.12167" lon="4.98408">
        <ele>208.19299316406</ele>
        <time>2009-11-08T11:58:23Z</time>
      </trkpt>
      <trkpt lat="45.1212" lon="4.98407">
        <ele>208.50100708008</ele>
        <time>2009-11-08T11:58:29Z</time>
      </trkpt>
      <trkpt lat="45.12072" lon="4.98405">
        <ele>208.48699951172</ele>
        <time>2009-11-08T11:58:35Z</time>
      </trkpt>
      <trkpt lat="45.12064" lon="4.98405">
        <ele>208.48699951172</ele>
        <time>2009-11-08T11:58:36Z</time>
      </trkpt>
      <trkpt lat="45.12048" lon="4.98384">
        <ele>208.0059967041</ele>
        <time>2009-11-08T11:58:39Z</time>
      </trkpt>
      <trkpt lat="45.12049" lon="4.98361">
        <ele>207.80299377441</ele>
        <time>2009-11-08T11:58:41Z</time>
      </trkpt>
      <trkpt lat="45.12066" lon="4.98275">
        <ele>206.50900268555</ele>
        <time>2009-11-08T11:58:48Z</time>
      </trkpt>
      <trkpt lat="45.1207" lon="4.98188">
        <ele>206.69999694824</ele>
        <time>2009-11-08T11:58:55Z</time>
      </trkpt>
      <trkpt lat="45.12061" lon="4.98114">
        <ele>206.50999450684</ele>
        <time>2009-11-08T11:59:01Z</time>
      </trkpt>
      <trkpt lat="45.12053" lon="4.98077">
        <ele>205.20399475098</ele>
        <time>2009-11-08T11:59:04Z</time>
      </trkpt>
      <trkpt lat="45.12026" lon="4.97977">
        <ele>204.94999694824</ele>
        <time>2009-11-08T11:59:12Z</time>
      </trkpt>
      <trkpt lat="45.12006" lon="4.9789">
        <ele>203.48599243164</ele>
        <time>2009-11-08T11:59:19Z</time>
      </trkpt>
      <trkpt lat="45.11974" lon="4.97712">
        <ele>202.36700439453</ele>
        <time>2009-11-08T11:59:33Z</time>
      </trkpt>
      <trkpt lat="45.11953" lon="4.97591">
        <ele>201.79499816894</ele>
        <time>2009-11-08T11:59:43Z</time>
      </trkpt>
      <trkpt lat="45.11942" lon="4.97531">
        <ele>201.21499633789</ele>
        <time>2009-11-08T11:59:48Z</time>
      </trkpt>
      <trkpt lat="45.11918" lon="4.97389">
        <ele>199.76499938965</ele>
        <time>2009-11-08T11:59:59Z</time>
      </trkpt>
      <trkpt lat="45.11897" lon="4.97267">
        <ele>199.89599609375</ele>
        <time>2009-11-08T12:00:08Z</time>
      </trkpt>
      <trkpt lat="45.11882" lon="4.9718">
        <ele>200.95599365234</ele>
        <time>2009-11-08T12:00:15Z</time>
      </trkpt>
      <trkpt lat="45.11878" lon="4.97157">
        <ele>200.64900207519</ele>
        <time>2009-11-08T12:00:17Z</time>
      </trkpt>
      <trkpt lat="45.11881" lon="4.97114">
        <ele>201.07499694824</ele>
        <time>2009-11-08T12:00:21Z</time>
      </trkpt>
      <trkpt lat="45.11889" lon="4.97098">
        <ele>201.52799987793</ele>
        <time>2009-11-08T12:00:23Z</time>
      </trkpt>
      <trkpt lat="45.11901" lon="4.97071">
        <ele>202.17199707031</ele>
        <time>2009-11-08T12:00:27Z</time>
      </trkpt>
      <trkpt lat="45.11892" lon="4.97057">
        <ele>202.17900085449</ele>
        <time>2009-11-08T12:00:29Z</time>
      </trkpt>
      <trkpt lat="45.11874" lon="4.97045">
        <ele>202.01800537109</ele>
        <time>2009-11-08T12:00:32Z</time>
      </trkpt>
      <trkpt lat="45.11868" lon="4.97039">
        <ele>202.01300048828</ele>
        <time>2009-11-08T12:00:33Z</time>
      </trkpt>
      <trkpt lat="45.11813" lon="4.96968">
        <ele>201.88900756836</ele>
        <time>2009-11-08T12:00:43Z</time>
      </trkpt>
      <trkpt lat="45.11772" lon="4.96902">
        <ele>201.27099609375</ele>
        <time>2009-11-08T12:00:51Z</time>
      </trkpt>
      <trkpt lat="45.11767" lon="4.96894">
        <ele>201.38900756836</ele>
        <time>2009-11-08T12:00:52Z</time>
      </trkpt>
      <trkpt lat="45.11758" lon="4.96864">
        <ele>202.16400146484</ele>
        <time>2009-11-08T12:00:55Z</time>
      </trkpt>
      <trkpt lat="45.11758" lon="4.96853">
        <ele>201.4880065918</ele>
        <time>2009-11-08T12:00:56Z</time>
      </trkpt>
      <trkpt lat="45.11748" lon="4.96827">
        <ele>201.16900634766</ele>
        <time>2009-11-08T12:00:59Z</time>
      </trkpt>
      <trkpt lat="45.11727" lon="4.96817">
        <ele>201.0890045166</ele>
        <time>2009-11-08T12:01:02Z</time>
      </trkpt>
      <trkpt lat="45.11709" lon="4.96798">
        <ele>200.88000488281</ele>
        <time>2009-11-08T12:01:05Z</time>
      </trkpt>
      <trkpt lat="45.11704" lon="4.9679">
        <ele>200.94999694824</ele>
        <time>2009-11-08T12:01:06Z</time>
      </trkpt>
      <trkpt lat="45.11663" lon="4.96716">
        <ele>199.78900146484</ele>
        <time>2009-11-08T12:01:14Z</time>
      </trkpt>
      <trkpt lat="45.11626" lon="4.96621">
        <ele>200.17599487305</ele>
        <time>2009-11-08T12:01:23Z</time>
      </trkpt>
      <trkpt lat="45.11591" lon="4.9653">
        <ele>200.21800231934</ele>
        <time>2009-11-08T12:01:32Z</time>
      </trkpt>
      <trkpt lat="45.11587" lon="4.9652">
        <ele>200.38200378418</ele>
        <time>2009-11-08T12:01:33Z</time>
      </trkpt>
      <trkpt lat="45.11577" lon="4.96485">
        <ele>200.3630065918</ele>
        <time>2009-11-08T12:01:37Z</time>
      </trkpt>
      <trkpt lat="45.1158" lon="4.96455">
        <ele>201.24200439453</ele>
        <time>2009-11-08T12:01:41Z</time>
      </trkpt>
      <trkpt lat="45.11576" lon="4.96446">
        <ele>200.90699768066</ele>
        <time>2009-11-08T12:01:44Z</time>
      </trkpt>
      <trkpt lat="45.11574" lon="4.96446">
        <ele>200.53199768066</ele>
        <time>2009-11-08T12:01:48Z</time>
      </trkpt>
      <trkpt lat="45.11566" lon="4.96448">
        <ele>200.23300170898</ele>
        <time>2009-11-08T12:02:17Z</time>
      </trkpt>
      <trkpt lat="45.1156" lon="4.96434">
        <ele>200.54699707031</ele>
        <time>2009-11-08T12:02:22Z</time>
      </trkpt>
      <trkpt lat="45.1156" lon="4.9643">
        <ele>200.72500610352</ele>
        <time>2009-11-08T12:02:23Z</time>
      </trkpt>
      <trkpt lat="45.11566" lon="4.96427">
        <ele>201.22399902344</ele>
        <time>2009-11-08T12:02:28Z</time>
      </trkpt>
      <trkpt lat="45.11567" lon="4.96427">
        <ele>201.15800476074</ele>
        <time>2009-11-08T12:02:30Z</time>
      </trkpt>
      <trkpt lat="45.11567" lon="4.96429">
        <ele>201.21600341797</ele>
        <time>2009-11-08T12:02:36Z</time>
      </trkpt>
    </trkseg>
  </trk>
</gpx>